<?xml version="1.0" encoding="UTF-8" standalone="no" ?>
<gpx xmlns="http://www.topografix.com/GPX/1/1" xmlns:xsi="http://www.w3.org/2001/XMLSchema-instance" xsi:schemaLocation="http://www.topografix.com/GPX/1/1 http://www.topografix.com/GPX/1/1/gpx.xsd" version="1.1" creator="VisuGPX - https://www.visugpx.com">
  <metadata>
    <name>Colmiane - Pont du cros</name>
    <desc><![CDATA[Sortie ASCVTT du 15/05/12]]></desc>
  </metadata>
  <trk>
    <name><![CDATA[Colmiane - Pont du cros_1]]></name>
    <trkseg>
      <trkpt lat="44.06968" lon="7.2272">
        <ele>1453</ele>
        <time>2012-05-15T08:44:40Z</time>
      </trkpt>
      <trkpt lat="44.06953" lon="7.22753">
        <ele>1450</ele>
        <time>2012-05-15T08:44:52Z</time>
      </trkpt>
      <trkpt lat="44.06916" lon="7.22827">
        <ele>1442</ele>
        <time>2012-05-15T08:45:01Z</time>
      </trkpt>
      <trkpt lat="44.06869" lon="7.22854">
        <ele>1435</ele>
        <time>2012-05-15T08:45:10Z</time>
      </trkpt>
      <trkpt lat="44.06842" lon="7.22858">
        <ele>1434</ele>
        <time>2012-05-15T08:45:22Z</time>
      </trkpt>
      <trkpt lat="44.06823" lon="7.22859">
        <ele>1434</ele>
        <time>2012-05-15T08:45:31Z</time>
      </trkpt>
      <trkpt lat="44.06808" lon="7.22861">
        <ele>1434</ele>
        <time>2012-05-15T08:45:41Z</time>
      </trkpt>
      <trkpt lat="44.06789" lon="7.22858">
        <ele>1434</ele>
        <time>2012-05-15T08:45:50Z</time>
      </trkpt>
      <trkpt lat="44.06768" lon="7.22851">
        <ele>1436</ele>
        <time>2012-05-15T08:46:01Z</time>
      </trkpt>
      <trkpt lat="44.06747" lon="7.22842">
        <ele>1438</ele>
        <time>2012-05-15T08:46:12Z</time>
      </trkpt>
      <trkpt lat="44.06729" lon="7.22834">
        <ele>1440</ele>
        <time>2012-05-15T08:46:22Z</time>
      </trkpt>
      <trkpt lat="44.06712" lon="7.22826">
        <ele>1442</ele>
        <time>2012-05-15T08:46:33Z</time>
      </trkpt>
      <trkpt lat="44.06695" lon="7.22818">
        <ele>1444</ele>
        <time>2012-05-15T08:46:45Z</time>
      </trkpt>
      <trkpt lat="44.06672" lon="7.22809">
        <ele>1446</ele>
        <time>2012-05-15T08:46:56Z</time>
      </trkpt>
      <trkpt lat="44.06658" lon="7.22803">
        <ele>1447</ele>
        <time>2012-05-15T08:47:08Z</time>
      </trkpt>
      <trkpt lat="44.06641" lon="7.22797">
        <ele>1449</ele>
        <time>2012-05-15T08:47:20Z</time>
      </trkpt>
      <trkpt lat="44.06619" lon="7.22788">
        <ele>1451</ele>
        <time>2012-05-15T08:47:32Z</time>
      </trkpt>
      <trkpt lat="44.06606" lon="7.22783">
        <ele>1454</ele>
        <time>2012-05-15T08:47:45Z</time>
      </trkpt>
      <trkpt lat="44.0659" lon="7.22776">
        <ele>1457</ele>
        <time>2012-05-15T08:47:58Z</time>
      </trkpt>
      <trkpt lat="44.06575" lon="7.22765">
        <ele>1460</ele>
        <time>2012-05-15T08:48:10Z</time>
      </trkpt>
      <trkpt lat="44.06564" lon="7.22758">
        <ele>1462</ele>
        <time>2012-05-15T08:48:22Z</time>
      </trkpt>
      <trkpt lat="44.06552" lon="7.22746">
        <ele>1465</ele>
        <time>2012-05-15T08:48:34Z</time>
      </trkpt>
      <trkpt lat="44.06541" lon="7.22726">
        <ele>1466</ele>
        <time>2012-05-15T08:48:46Z</time>
      </trkpt>
      <trkpt lat="44.06529" lon="7.22708">
        <ele>1467</ele>
        <time>2012-05-15T08:48:58Z</time>
      </trkpt>
      <trkpt lat="44.06511" lon="7.22704">
        <ele>1468</ele>
        <time>2012-05-15T08:49:07Z</time>
      </trkpt>
      <trkpt lat="44.06498" lon="7.22696">
        <ele>1470</ele>
        <time>2012-05-15T08:49:17Z</time>
      </trkpt>
      <trkpt lat="44.06488" lon="7.22692">
        <ele>1473</ele>
        <time>2012-05-15T08:49:27Z</time>
      </trkpt>
      <trkpt lat="44.06475" lon="7.22681">
        <ele>1476</ele>
        <time>2012-05-15T08:49:37Z</time>
      </trkpt>
      <trkpt lat="44.06466" lon="7.22673">
        <ele>1478</ele>
        <time>2012-05-15T08:49:48Z</time>
      </trkpt>
      <trkpt lat="44.06453" lon="7.22653">
        <ele>1480</ele>
        <time>2012-05-15T08:50:00Z</time>
      </trkpt>
      <trkpt lat="44.06443" lon="7.22647">
        <ele>1483</ele>
        <time>2012-05-15T08:50:13Z</time>
      </trkpt>
      <trkpt lat="44.0643" lon="7.22636">
        <ele>1485</ele>
        <time>2012-05-15T08:50:26Z</time>
      </trkpt>
      <trkpt lat="44.06417" lon="7.22621">
        <ele>1487</ele>
        <time>2012-05-15T08:50:38Z</time>
      </trkpt>
      <trkpt lat="44.06405" lon="7.22608">
        <ele>1489</ele>
        <time>2012-05-15T08:50:53Z</time>
      </trkpt>
      <trkpt lat="44.06393" lon="7.22601">
        <ele>1490</ele>
        <time>2012-05-15T08:51:02Z</time>
      </trkpt>
      <trkpt lat="44.06385" lon="7.22597">
        <ele>1491</ele>
        <time>2012-05-15T08:51:14Z</time>
      </trkpt>
      <trkpt lat="44.06372" lon="7.2259">
        <ele>1493</ele>
        <time>2012-05-15T08:51:25Z</time>
      </trkpt>
      <trkpt lat="44.06366" lon="7.22578">
        <ele>1495</ele>
        <time>2012-05-15T08:51:38Z</time>
      </trkpt>
      <trkpt lat="44.06356" lon="7.22565">
        <ele>1496</ele>
        <time>2012-05-15T08:51:50Z</time>
      </trkpt>
      <trkpt lat="44.06348" lon="7.22553">
        <ele>1498</ele>
        <time>2012-05-15T08:52:00Z</time>
      </trkpt>
      <trkpt lat="44.06346" lon="7.22542">
        <ele>1498</ele>
        <time>2012-05-15T08:52:09Z</time>
      </trkpt>
      <trkpt lat="44.06332" lon="7.22536">
        <ele>1500</ele>
        <time>2012-05-15T08:52:22Z</time>
      </trkpt>
      <trkpt lat="44.06324" lon="7.22533">
        <ele>1502</ele>
        <time>2012-05-15T08:52:31Z</time>
      </trkpt>
      <trkpt lat="44.0632" lon="7.2252">
        <ele>1503</ele>
        <time>2012-05-15T08:52:41Z</time>
      </trkpt>
      <trkpt lat="44.0631" lon="7.22517">
        <ele>1505</ele>
        <time>2012-05-15T08:52:51Z</time>
      </trkpt>
      <trkpt lat="44.06303" lon="7.22514">
        <ele>1507</ele>
        <time>2012-05-15T08:53:02Z</time>
      </trkpt>
      <trkpt lat="44.06294" lon="7.22499">
        <ele>1509</ele>
        <time>2012-05-15T08:53:16Z</time>
      </trkpt>
      <trkpt lat="44.06285" lon="7.22488">
        <ele>1514</ele>
        <time>2012-05-15T08:53:32Z</time>
      </trkpt>
      <trkpt lat="44.06281" lon="7.22488">
        <ele>1516</ele>
        <time>2012-05-15T08:53:43Z</time>
      </trkpt>
      <trkpt lat="44.06271" lon="7.22488">
        <ele>1517</ele>
        <time>2012-05-15T08:53:56Z</time>
      </trkpt>
      <trkpt lat="44.06267" lon="7.22492">
        <ele>1518</ele>
        <time>2012-05-15T08:54:06Z</time>
      </trkpt>
      <trkpt lat="44.06261" lon="7.22494">
        <ele>1520</ele>
        <time>2012-05-15T08:54:17Z</time>
      </trkpt>
      <trkpt lat="44.06254" lon="7.22477">
        <ele>1521</ele>
        <time>2012-05-15T08:54:29Z</time>
      </trkpt>
      <trkpt lat="44.06251" lon="7.22466">
        <ele>1521</ele>
        <time>2012-05-15T08:54:42Z</time>
      </trkpt>
      <trkpt lat="44.06242" lon="7.22463">
        <ele>1522</ele>
        <time>2012-05-15T08:54:56Z</time>
      </trkpt>
      <trkpt lat="44.06234" lon="7.22464">
        <ele>1522</ele>
        <time>2012-05-15T08:55:05Z</time>
      </trkpt>
      <trkpt lat="44.06232" lon="7.22454">
        <ele>1523</ele>
        <time>2012-05-15T08:55:16Z</time>
      </trkpt>
      <trkpt lat="44.06229" lon="7.22431">
        <ele>1525</ele>
        <time>2012-05-15T08:55:29Z</time>
      </trkpt>
      <trkpt lat="44.06224" lon="7.22428">
        <ele>1528</ele>
        <time>2012-05-15T08:55:38Z</time>
      </trkpt>
      <trkpt lat="44.06221" lon="7.22421">
        <ele>1530</ele>
        <time>2012-05-15T08:55:48Z</time>
      </trkpt>
      <trkpt lat="44.06214" lon="7.22418">
        <ele>1533</ele>
        <time>2012-05-15T08:56:00Z</time>
      </trkpt>
      <trkpt lat="44.06212" lon="7.22408">
        <ele>1536</ele>
        <time>2012-05-15T08:56:14Z</time>
      </trkpt>
      <trkpt lat="44.06204" lon="7.2241">
        <ele>1538</ele>
        <time>2012-05-15T08:56:23Z</time>
      </trkpt>
      <trkpt lat="44.06202" lon="7.22402">
        <ele>1539</ele>
        <time>2012-05-15T08:56:36Z</time>
      </trkpt>
      <trkpt lat="44.062" lon="7.22392">
        <ele>1542</ele>
        <time>2012-05-15T08:56:45Z</time>
      </trkpt>
      <trkpt lat="44.0619" lon="7.22394">
        <ele>1544</ele>
        <time>2012-05-15T08:56:59Z</time>
      </trkpt>
      <trkpt lat="44.0619" lon="7.22385">
        <ele>1546</ele>
        <time>2012-05-15T08:57:13Z</time>
      </trkpt>
      <trkpt lat="44.06189" lon="7.22373">
        <ele>1551</ele>
        <time>2012-05-15T08:57:23Z</time>
      </trkpt>
      <trkpt lat="44.06183" lon="7.22371">
        <ele>1555</ele>
        <time>2012-05-15T08:57:37Z</time>
      </trkpt>
      <trkpt lat="44.06176" lon="7.22368">
        <ele>1558</ele>
        <time>2012-05-15T08:57:47Z</time>
      </trkpt>
      <trkpt lat="44.06174" lon="7.22362">
        <ele>1558</ele>
        <time>2012-05-15T08:57:58Z</time>
      </trkpt>
      <trkpt lat="44.06169" lon="7.22362">
        <ele>1560</ele>
        <time>2012-05-15T08:58:08Z</time>
      </trkpt>
      <trkpt lat="44.06161" lon="7.22361">
        <ele>1562</ele>
        <time>2012-05-15T08:58:17Z</time>
      </trkpt>
      <trkpt lat="44.06161" lon="7.22353">
        <ele>1563</ele>
        <time>2012-05-15T08:58:26Z</time>
      </trkpt>
      <trkpt lat="44.06153" lon="7.22353">
        <ele>1564</ele>
        <time>2012-05-15T08:58:39Z</time>
      </trkpt>
      <trkpt lat="44.06151" lon="7.22347">
        <ele>1566</ele>
        <time>2012-05-15T08:58:48Z</time>
      </trkpt>
      <trkpt lat="44.06144" lon="7.22343">
        <ele>1568</ele>
        <time>2012-05-15T08:58:58Z</time>
      </trkpt>
      <trkpt lat="44.06144" lon="7.2233">
        <ele>1569</ele>
        <time>2012-05-15T08:59:12Z</time>
      </trkpt>
      <trkpt lat="44.06139" lon="7.2233">
        <ele>1571</ele>
        <time>2012-05-15T08:59:21Z</time>
      </trkpt>
      <trkpt lat="44.06133" lon="7.22325">
        <ele>1576</ele>
        <time>2012-05-15T08:59:34Z</time>
      </trkpt>
      <trkpt lat="44.06134" lon="7.22319">
        <ele>1583</ele>
        <time>2012-05-15T09:00:33Z</time>
      </trkpt>
      <trkpt lat="44.06136" lon="7.22318">
        <ele>1585</ele>
        <time>2012-05-15T09:01:04Z</time>
      </trkpt>
      <trkpt lat="44.06135" lon="7.2232">
        <ele>1587</ele>
        <time>2012-05-15T09:01:21Z</time>
      </trkpt>
      <trkpt lat="44.06137" lon="7.22316">
        <ele>1587</ele>
        <time>2012-05-15T09:01:38Z</time>
      </trkpt>
      <trkpt lat="44.06142" lon="7.22302">
        <ele>1587</ele>
        <time>2012-05-15T09:01:52Z</time>
      </trkpt>
      <trkpt lat="44.06146" lon="7.22291">
        <ele>1587</ele>
        <time>2012-05-15T09:02:01Z</time>
      </trkpt>
      <trkpt lat="44.06151" lon="7.22283">
        <ele>1587</ele>
        <time>2012-05-15T09:02:14Z</time>
      </trkpt>
      <trkpt lat="44.0615" lon="7.2228">
        <ele>1587</ele>
        <time>2012-05-15T09:02:42Z</time>
      </trkpt>
      <trkpt lat="44.06138" lon="7.22282">
        <ele>1587</ele>
        <time>2012-05-15T09:02:52Z</time>
      </trkpt>
      <trkpt lat="44.06123" lon="7.22289">
        <ele>1589</ele>
        <time>2012-05-15T09:03:04Z</time>
      </trkpt>
      <trkpt lat="44.06108" lon="7.22301">
        <ele>1592</ele>
        <time>2012-05-15T09:03:17Z</time>
      </trkpt>
      <trkpt lat="44.06094" lon="7.22323">
        <ele>1594</ele>
        <time>2012-05-15T09:03:30Z</time>
      </trkpt>
      <trkpt lat="44.06086" lon="7.22349">
        <ele>1596</ele>
        <time>2012-05-15T09:03:41Z</time>
      </trkpt>
      <trkpt lat="44.06082" lon="7.22375">
        <ele>1597</ele>
        <time>2012-05-15T09:03:52Z</time>
      </trkpt>
      <trkpt lat="44.06075" lon="7.22405">
        <ele>1600</ele>
        <time>2012-05-15T09:04:02Z</time>
      </trkpt>
      <trkpt lat="44.06069" lon="7.2243">
        <ele>1602</ele>
        <time>2012-05-15T09:04:13Z</time>
      </trkpt>
      <trkpt lat="44.06063" lon="7.22455">
        <ele>1604</ele>
        <time>2012-05-15T09:04:24Z</time>
      </trkpt>
      <trkpt lat="44.06059" lon="7.22482">
        <ele>1606</ele>
        <time>2012-05-15T09:04:35Z</time>
      </trkpt>
      <trkpt lat="44.06054" lon="7.22512">
        <ele>1608</ele>
        <time>2012-05-15T09:04:46Z</time>
      </trkpt>
      <trkpt lat="44.06052" lon="7.22542">
        <ele>1610</ele>
        <time>2012-05-15T09:04:58Z</time>
      </trkpt>
      <trkpt lat="44.06051" lon="7.2257">
        <ele>1611</ele>
        <time>2012-05-15T09:05:09Z</time>
      </trkpt>
      <trkpt lat="44.0605" lon="7.22597">
        <ele>1614</ele>
        <time>2012-05-15T09:05:20Z</time>
      </trkpt>
      <trkpt lat="44.06049" lon="7.22618">
        <ele>1616</ele>
        <time>2012-05-15T09:05:32Z</time>
      </trkpt>
      <trkpt lat="44.06049" lon="7.22643">
        <ele>1619</ele>
        <time>2012-05-15T09:05:44Z</time>
      </trkpt>
      <trkpt lat="44.0605" lon="7.22666">
        <ele>1622</ele>
        <time>2012-05-15T09:05:55Z</time>
      </trkpt>
      <trkpt lat="44.06049" lon="7.22692">
        <ele>1624</ele>
        <time>2012-05-15T09:06:06Z</time>
      </trkpt>
      <trkpt lat="44.06049" lon="7.22709">
        <ele>1626</ele>
        <time>2012-05-15T09:06:18Z</time>
      </trkpt>
      <trkpt lat="44.0605" lon="7.22733">
        <ele>1629</ele>
        <time>2012-05-15T09:06:29Z</time>
      </trkpt>
      <trkpt lat="44.0605" lon="7.22751">
        <ele>1631</ele>
        <time>2012-05-15T09:06:41Z</time>
      </trkpt>
      <trkpt lat="44.06052" lon="7.22778">
        <ele>1633</ele>
        <time>2012-05-15T09:06:52Z</time>
      </trkpt>
      <trkpt lat="44.06054" lon="7.22796">
        <ele>1635</ele>
        <time>2012-05-15T09:07:04Z</time>
      </trkpt>
      <trkpt lat="44.06053" lon="7.22821">
        <ele>1638</ele>
        <time>2012-05-15T09:07:16Z</time>
      </trkpt>
      <trkpt lat="44.06044" lon="7.2284">
        <ele>1640</ele>
        <time>2012-05-15T09:07:29Z</time>
      </trkpt>
      <trkpt lat="44.06035" lon="7.2285">
        <ele>1641</ele>
        <time>2012-05-15T09:07:39Z</time>
      </trkpt>
      <trkpt lat="44.06033" lon="7.2285">
        <ele>1642</ele>
        <time>2012-05-15T09:08:08Z</time>
      </trkpt>
      <trkpt lat="44.06027" lon="7.22826">
        <ele>1642</ele>
        <time>2012-05-15T09:08:20Z</time>
      </trkpt>
      <trkpt lat="44.06017" lon="7.22809">
        <ele>1643</ele>
        <time>2012-05-15T09:08:32Z</time>
      </trkpt>
      <trkpt lat="44.06007" lon="7.22792">
        <ele>1646</ele>
        <time>2012-05-15T09:08:46Z</time>
      </trkpt>
      <trkpt lat="44.05998" lon="7.22777">
        <ele>1650</ele>
        <time>2012-05-15T09:08:58Z</time>
      </trkpt>
      <trkpt lat="44.05987" lon="7.22773">
        <ele>1653</ele>
        <time>2012-05-15T09:09:08Z</time>
      </trkpt>
      <trkpt lat="44.05983" lon="7.22761">
        <ele>1654</ele>
        <time>2012-05-15T09:09:21Z</time>
      </trkpt>
      <trkpt lat="44.05973" lon="7.22764">
        <ele>1658</ele>
        <time>2012-05-15T09:09:35Z</time>
      </trkpt>
      <trkpt lat="44.05965" lon="7.22761">
        <ele>1660</ele>
        <time>2012-05-15T09:09:45Z</time>
      </trkpt>
      <trkpt lat="44.0596" lon="7.22753">
        <ele>1661</ele>
        <time>2012-05-15T09:09:58Z</time>
      </trkpt>
      <trkpt lat="44.05955" lon="7.22744">
        <ele>1663</ele>
        <time>2012-05-15T09:10:07Z</time>
      </trkpt>
      <trkpt lat="44.05951" lon="7.22737">
        <ele>1663</ele>
        <time>2012-05-15T09:10:18Z</time>
      </trkpt>
      <trkpt lat="44.05942" lon="7.22716">
        <ele>1665</ele>
        <time>2012-05-15T09:10:31Z</time>
      </trkpt>
      <trkpt lat="44.05934" lon="7.22697">
        <ele>1666</ele>
        <time>2012-05-15T09:10:40Z</time>
      </trkpt>
      <trkpt lat="44.05924" lon="7.22676">
        <ele>1667</ele>
        <time>2012-05-15T09:10:51Z</time>
      </trkpt>
      <trkpt lat="44.05915" lon="7.22659">
        <ele>1668</ele>
        <time>2012-05-15T09:11:04Z</time>
      </trkpt>
      <trkpt lat="44.05904" lon="7.22641">
        <ele>1670</ele>
        <time>2012-05-15T09:11:16Z</time>
      </trkpt>
      <trkpt lat="44.05894" lon="7.2262">
        <ele>1672</ele>
        <time>2012-05-15T09:11:28Z</time>
      </trkpt>
      <trkpt lat="44.05883" lon="7.22595">
        <ele>1674</ele>
        <time>2012-05-15T09:11:41Z</time>
      </trkpt>
      <trkpt lat="44.05872" lon="7.22571">
        <ele>1675</ele>
        <time>2012-05-15T09:11:53Z</time>
      </trkpt>
      <trkpt lat="44.0586" lon="7.22545">
        <ele>1676</ele>
        <time>2012-05-15T09:12:06Z</time>
      </trkpt>
      <trkpt lat="44.05855" lon="7.22539">
        <ele>1676</ele>
        <time>2012-05-15T09:12:16Z</time>
      </trkpt>
      <trkpt lat="44.05856" lon="7.22537">
        <ele>1677</ele>
        <time>2012-05-15T09:12:40Z</time>
      </trkpt>
      <trkpt lat="44.05857" lon="7.22536">
        <ele>1677</ele>
        <time>2012-05-15T09:13:05Z</time>
      </trkpt>
      <trkpt lat="44.05857" lon="7.22538">
        <ele>1677</ele>
        <time>2012-05-15T09:13:20Z</time>
      </trkpt>
      <trkpt lat="44.05858" lon="7.22537">
        <ele>1677</ele>
        <time>2012-05-15T09:13:36Z</time>
      </trkpt>
      <trkpt lat="44.05857" lon="7.22533">
        <ele>1677</ele>
        <time>2012-05-15T09:13:51Z</time>
      </trkpt>
      <trkpt lat="44.05859" lon="7.22539">
        <ele>1678</ele>
        <time>2012-05-15T09:14:08Z</time>
      </trkpt>
      <trkpt lat="44.0586" lon="7.2254">
        <ele>1678</ele>
        <time>2012-05-15T09:14:24Z</time>
      </trkpt>
      <trkpt lat="44.05859" lon="7.2254">
        <ele>1678</ele>
        <time>2012-05-15T09:14:53Z</time>
      </trkpt>
      <trkpt lat="44.05858" lon="7.2254">
        <ele>1678</ele>
        <time>2012-05-15T09:15:09Z</time>
      </trkpt>
      <trkpt lat="44.05858" lon="7.22538">
        <ele>1678</ele>
        <time>2012-05-15T09:15:42Z</time>
      </trkpt>
      <trkpt lat="44.05857" lon="7.22536">
        <ele>1678</ele>
        <time>2012-05-15T09:16:00Z</time>
      </trkpt>
      <trkpt lat="44.05856" lon="7.22536">
        <ele>1678</ele>
        <time>2012-05-15T09:16:24Z</time>
      </trkpt>
      <trkpt lat="44.05856" lon="7.2254">
        <ele>1677</ele>
        <time>2012-05-15T09:16:38Z</time>
      </trkpt>
      <trkpt lat="44.05857" lon="7.22541">
        <ele>1677</ele>
        <time>2012-05-15T09:16:47Z</time>
      </trkpt>
      <trkpt lat="44.05858" lon="7.22541">
        <ele>1677</ele>
        <time>2012-05-15T09:17:54Z</time>
      </trkpt>
      <trkpt lat="44.05855" lon="7.22542">
        <ele>1677</ele>
        <time>2012-05-15T09:18:19Z</time>
      </trkpt>
      <trkpt lat="44.05855" lon="7.2254">
        <ele>1677</ele>
        <time>2012-05-15T09:18:36Z</time>
      </trkpt>
      <trkpt lat="44.05858" lon="7.22537">
        <ele>1677</ele>
        <time>2012-05-15T09:19:25Z</time>
      </trkpt>
      <trkpt lat="44.05861" lon="7.22536">
        <ele>1677</ele>
        <time>2012-05-15T09:19:35Z</time>
      </trkpt>
      <trkpt lat="44.05862" lon="7.22536">
        <ele>1674</ele>
        <time>2012-05-15T09:19:51Z</time>
      </trkpt>
      <trkpt lat="44.0586" lon="7.22533">
        <ele>1673</ele>
        <time>2012-05-15T09:20:03Z</time>
      </trkpt>
      <trkpt lat="44.05857" lon="7.22538">
        <ele>1673</ele>
        <time>2012-05-15T09:20:26Z</time>
      </trkpt>
      <trkpt lat="44.05856" lon="7.22538">
        <ele>1674</ele>
        <time>2012-05-15T09:20:52Z</time>
      </trkpt>
      <trkpt lat="44.05861" lon="7.2254">
        <ele>1675</ele>
        <time>2012-05-15T09:21:13Z</time>
      </trkpt>
      <trkpt lat="44.05862" lon="7.2254">
        <ele>1675</ele>
        <time>2012-05-15T09:21:23Z</time>
      </trkpt>
      <trkpt lat="44.05858" lon="7.2254">
        <ele>1675</ele>
        <time>2012-05-15T09:21:39Z</time>
      </trkpt>
      <trkpt lat="44.05857" lon="7.2254">
        <ele>1675</ele>
        <time>2012-05-15T09:21:57Z</time>
      </trkpt>
      <trkpt lat="44.05859" lon="7.2254">
        <ele>1675</ele>
        <time>2012-05-15T09:22:06Z</time>
      </trkpt>
      <trkpt lat="44.0586" lon="7.2254">
        <ele>1675</ele>
        <time>2012-05-15T09:22:20Z</time>
      </trkpt>
      <trkpt lat="44.05857" lon="7.22534">
        <ele>1676</ele>
        <time>2012-05-15T09:22:37Z</time>
      </trkpt>
      <trkpt lat="44.05857" lon="7.22531">
        <ele>1679</ele>
        <time>2012-05-15T09:22:46Z</time>
      </trkpt>
      <trkpt lat="44.05855" lon="7.2253">
        <ele>1687</ele>
        <time>2012-05-15T09:23:33Z</time>
      </trkpt>
      <trkpt lat="44.05856" lon="7.22527">
        <ele>1687</ele>
        <time>2012-05-15T09:23:49Z</time>
      </trkpt>
      <trkpt lat="44.05853" lon="7.22513">
        <ele>1685</ele>
        <time>2012-05-15T09:24:03Z</time>
      </trkpt>
      <trkpt lat="44.05846" lon="7.22495">
        <ele>1684</ele>
        <time>2012-05-15T09:24:12Z</time>
      </trkpt>
      <trkpt lat="44.05843" lon="7.22482">
        <ele>1684</ele>
        <time>2012-05-15T09:24:24Z</time>
      </trkpt>
      <trkpt lat="44.05838" lon="7.22466">
        <ele>1684</ele>
        <time>2012-05-15T09:24:33Z</time>
      </trkpt>
      <trkpt lat="44.05838" lon="7.2245">
        <ele>1684</ele>
        <time>2012-05-15T09:24:46Z</time>
      </trkpt>
      <trkpt lat="44.05838" lon="7.22432">
        <ele>1687</ele>
        <time>2012-05-15T09:24:55Z</time>
      </trkpt>
      <trkpt lat="44.05838" lon="7.22419">
        <ele>1689</ele>
        <time>2012-05-15T09:25:07Z</time>
      </trkpt>
      <trkpt lat="44.05841" lon="7.22402">
        <ele>1692</ele>
        <time>2012-05-15T09:25:20Z</time>
      </trkpt>
      <trkpt lat="44.05846" lon="7.22381">
        <ele>1692</ele>
        <time>2012-05-15T09:25:34Z</time>
      </trkpt>
      <trkpt lat="44.05849" lon="7.22366">
        <ele>1695</ele>
        <time>2012-05-15T09:25:50Z</time>
      </trkpt>
      <trkpt lat="44.05852" lon="7.22347">
        <ele>1697</ele>
        <time>2012-05-15T09:26:02Z</time>
      </trkpt>
      <trkpt lat="44.05854" lon="7.22327">
        <ele>1699</ele>
        <time>2012-05-15T09:26:15Z</time>
      </trkpt>
      <trkpt lat="44.05855" lon="7.2231">
        <ele>1702</ele>
        <time>2012-05-15T09:26:27Z</time>
      </trkpt>
      <trkpt lat="44.05854" lon="7.22293">
        <ele>1703</ele>
        <time>2012-05-15T09:26:36Z</time>
      </trkpt>
      <trkpt lat="44.05855" lon="7.22279">
        <ele>1704</ele>
        <time>2012-05-15T09:26:45Z</time>
      </trkpt>
      <trkpt lat="44.05856" lon="7.22265">
        <ele>1704</ele>
        <time>2012-05-15T09:26:56Z</time>
      </trkpt>
      <trkpt lat="44.05858" lon="7.22247">
        <ele>1704</ele>
        <time>2012-05-15T09:27:08Z</time>
      </trkpt>
      <trkpt lat="44.0586" lon="7.2223">
        <ele>1704</ele>
        <time>2012-05-15T09:27:19Z</time>
      </trkpt>
      <trkpt lat="44.0586" lon="7.22213">
        <ele>1706</ele>
        <time>2012-05-15T09:27:29Z</time>
      </trkpt>
      <trkpt lat="44.05861" lon="7.22196">
        <ele>1707</ele>
        <time>2012-05-15T09:27:39Z</time>
      </trkpt>
      <trkpt lat="44.05864" lon="7.22182">
        <ele>1709</ele>
        <time>2012-05-15T09:27:48Z</time>
      </trkpt>
      <trkpt lat="44.05866" lon="7.2217">
        <ele>1710</ele>
        <time>2012-05-15T09:27:59Z</time>
      </trkpt>
      <trkpt lat="44.0587" lon="7.22153">
        <ele>1711</ele>
        <time>2012-05-15T09:28:10Z</time>
      </trkpt>
      <trkpt lat="44.05875" lon="7.22135">
        <ele>1712</ele>
        <time>2012-05-15T09:28:21Z</time>
      </trkpt>
      <trkpt lat="44.05881" lon="7.22121">
        <ele>1714</ele>
        <time>2012-05-15T09:28:32Z</time>
      </trkpt>
      <trkpt lat="44.05885" lon="7.22108">
        <ele>1716</ele>
        <time>2012-05-15T09:28:43Z</time>
      </trkpt>
      <trkpt lat="44.05891" lon="7.22095">
        <ele>1717</ele>
        <time>2012-05-15T09:28:52Z</time>
      </trkpt>
      <trkpt lat="44.05896" lon="7.22086">
        <ele>1719</ele>
        <time>2012-05-15T09:29:02Z</time>
      </trkpt>
      <trkpt lat="44.05897" lon="7.22075">
        <ele>1720</ele>
        <time>2012-05-15T09:29:11Z</time>
      </trkpt>
      <trkpt lat="44.05888" lon="7.22082">
        <ele>1722</ele>
        <time>2012-05-15T09:29:23Z</time>
      </trkpt>
      <trkpt lat="44.05877" lon="7.22092">
        <ele>1725</ele>
        <time>2012-05-15T09:29:34Z</time>
      </trkpt>
      <trkpt lat="44.05863" lon="7.22104">
        <ele>1727</ele>
        <time>2012-05-15T09:29:45Z</time>
      </trkpt>
      <trkpt lat="44.05849" lon="7.22117">
        <ele>1730</ele>
        <time>2012-05-15T09:29:57Z</time>
      </trkpt>
      <trkpt lat="44.05833" lon="7.22126">
        <ele>1731</ele>
        <time>2012-05-15T09:30:06Z</time>
      </trkpt>
      <trkpt lat="44.05825" lon="7.22135">
        <ele>1732</ele>
        <time>2012-05-15T09:30:16Z</time>
      </trkpt>
      <trkpt lat="44.05799" lon="7.22157">
        <ele>1734</ele>
        <time>2012-05-15T09:30:27Z</time>
      </trkpt>
      <trkpt lat="44.05773" lon="7.22176">
        <ele>1739</ele>
        <time>2012-05-15T09:30:37Z</time>
      </trkpt>
      <trkpt lat="44.0577" lon="7.22171">
        <ele>1743</ele>
        <time>2012-05-15T09:31:14Z</time>
      </trkpt>
      <trkpt lat="44.05765" lon="7.22157">
        <ele>1744</ele>
        <time>2012-05-15T09:31:25Z</time>
      </trkpt>
      <trkpt lat="44.05767" lon="7.22134">
        <ele>1747</ele>
        <time>2012-05-15T09:31:38Z</time>
      </trkpt>
      <trkpt lat="44.05768" lon="7.22112">
        <ele>1751</ele>
        <time>2012-05-15T09:31:51Z</time>
      </trkpt>
      <trkpt lat="44.05774" lon="7.22096">
        <ele>1753</ele>
        <time>2012-05-15T09:32:01Z</time>
      </trkpt>
      <trkpt lat="44.05776" lon="7.22083">
        <ele>1755</ele>
        <time>2012-05-15T09:32:12Z</time>
      </trkpt>
      <trkpt lat="44.05785" lon="7.22061">
        <ele>1757</ele>
        <time>2012-05-15T09:32:24Z</time>
      </trkpt>
      <trkpt lat="44.05791" lon="7.22042">
        <ele>1760</ele>
        <time>2012-05-15T09:32:36Z</time>
      </trkpt>
      <trkpt lat="44.05794" lon="7.22027">
        <ele>1763</ele>
        <time>2012-05-15T09:32:48Z</time>
      </trkpt>
      <trkpt lat="44.05794" lon="7.21976">
        <ele>1765</ele>
        <time>2012-05-15T09:32:59Z</time>
      </trkpt>
      <trkpt lat="44.05788" lon="7.21905">
        <ele>1765</ele>
        <time>2012-05-15T09:33:10Z</time>
      </trkpt>
      <trkpt lat="44.05737" lon="7.21789">
        <ele>1761</ele>
        <time>2012-05-15T09:33:23Z</time>
      </trkpt>
      <trkpt lat="44.05665" lon="7.21703">
        <ele>1755</ele>
        <time>2012-05-15T09:33:36Z</time>
      </trkpt>
      <trkpt lat="44.05664" lon="7.21638">
        <ele>1749</ele>
        <time>2012-05-15T09:33:46Z</time>
      </trkpt>
      <trkpt lat="44.05656" lon="7.21627">
        <ele>1746</ele>
        <time>2012-05-15T09:33:55Z</time>
      </trkpt>
      <trkpt lat="44.05642" lon="7.21621">
        <ele>1745</ele>
        <time>2012-05-15T09:34:06Z</time>
      </trkpt>
      <trkpt lat="44.05627" lon="7.21607">
        <ele>1745</ele>
        <time>2012-05-15T09:34:15Z</time>
      </trkpt>
      <trkpt lat="44.05616" lon="7.21602">
        <ele>1746</ele>
        <time>2012-05-15T09:34:27Z</time>
      </trkpt>
      <trkpt lat="44.05601" lon="7.2159">
        <ele>1749</ele>
        <time>2012-05-15T09:34:39Z</time>
      </trkpt>
      <trkpt lat="44.05588" lon="7.21576">
        <ele>1752</ele>
        <time>2012-05-15T09:34:50Z</time>
      </trkpt>
      <trkpt lat="44.05574" lon="7.21559">
        <ele>1753</ele>
        <time>2012-05-15T09:35:02Z</time>
      </trkpt>
      <trkpt lat="44.05534" lon="7.21533">
        <ele>1753</ele>
        <time>2012-05-15T09:35:15Z</time>
      </trkpt>
      <trkpt lat="44.05516" lon="7.21517">
        <ele>1756</ele>
        <time>2012-05-15T09:35:27Z</time>
      </trkpt>
      <trkpt lat="44.05496" lon="7.21501">
        <ele>1758</ele>
        <time>2012-05-15T09:35:39Z</time>
      </trkpt>
      <trkpt lat="44.05479" lon="7.21488">
        <ele>1760</ele>
        <time>2012-05-15T09:35:51Z</time>
      </trkpt>
      <trkpt lat="44.05463" lon="7.21477">
        <ele>1762</ele>
        <time>2012-05-15T09:36:03Z</time>
      </trkpt>
      <trkpt lat="44.05446" lon="7.21457">
        <ele>1764</ele>
        <time>2012-05-15T09:36:15Z</time>
      </trkpt>
      <trkpt lat="44.05416" lon="7.21415">
        <ele>1764</ele>
        <time>2012-05-15T09:36:27Z</time>
      </trkpt>
      <trkpt lat="44.05391" lon="7.21384">
        <ele>1761</ele>
        <time>2012-05-15T09:36:36Z</time>
      </trkpt>
      <trkpt lat="44.05366" lon="7.21345">
        <ele>1755</ele>
        <time>2012-05-15T09:36:48Z</time>
      </trkpt>
      <trkpt lat="44.05334" lon="7.21319">
        <ele>1743</ele>
        <time>2012-05-15T09:37:01Z</time>
      </trkpt>
      <trkpt lat="44.05293" lon="7.21278">
        <ele>1731</ele>
        <time>2012-05-15T09:37:13Z</time>
      </trkpt>
      <trkpt lat="44.05286" lon="7.21278">
        <ele>1719</ele>
        <time>2012-05-15T09:37:24Z</time>
      </trkpt>
      <trkpt lat="44.05265" lon="7.21258">
        <ele>1714</ele>
        <time>2012-05-15T09:37:37Z</time>
      </trkpt>
      <trkpt lat="44.05245" lon="7.21225">
        <ele>1714</ele>
        <time>2012-05-15T09:37:47Z</time>
      </trkpt>
      <trkpt lat="44.05229" lon="7.21208">
        <ele>1714</ele>
        <time>2012-05-15T09:37:57Z</time>
      </trkpt>
      <trkpt lat="44.05209" lon="7.21168">
        <ele>1714</ele>
        <time>2012-05-15T09:38:11Z</time>
      </trkpt>
      <trkpt lat="44.05199" lon="7.21112">
        <ele>1714</ele>
        <time>2012-05-15T09:38:21Z</time>
      </trkpt>
      <trkpt lat="44.05188" lon="7.21085">
        <ele>1714</ele>
        <time>2012-05-15T09:38:34Z</time>
      </trkpt>
      <trkpt lat="44.05184" lon="7.2104">
        <ele>1714</ele>
        <time>2012-05-15T09:38:43Z</time>
      </trkpt>
      <trkpt lat="44.05206" lon="7.21019">
        <ele>1718</ele>
        <time>2012-05-15T09:38:55Z</time>
      </trkpt>
      <trkpt lat="44.05221" lon="7.20977">
        <ele>1716</ele>
        <time>2012-05-15T09:39:05Z</time>
      </trkpt>
      <trkpt lat="44.05206" lon="7.20929">
        <ele>1713</ele>
        <time>2012-05-15T09:39:18Z</time>
      </trkpt>
      <trkpt lat="44.05228" lon="7.20895">
        <ele>1718</ele>
        <time>2012-05-15T09:39:27Z</time>
      </trkpt>
      <trkpt lat="44.05256" lon="7.20881">
        <ele>1714</ele>
        <time>2012-05-15T09:39:41Z</time>
      </trkpt>
      <trkpt lat="44.05285" lon="7.20874">
        <ele>1708</ele>
        <time>2012-05-15T09:39:51Z</time>
      </trkpt>
      <trkpt lat="44.05288" lon="7.20843">
        <ele>1698</ele>
        <time>2012-05-15T09:40:04Z</time>
      </trkpt>
      <trkpt lat="44.05289" lon="7.20835">
        <ele>1691</ele>
        <time>2012-05-15T09:40:21Z</time>
      </trkpt>
      <trkpt lat="44.05289" lon="7.20794">
        <ele>1691</ele>
        <time>2012-05-15T09:40:30Z</time>
      </trkpt>
      <trkpt lat="44.0529" lon="7.20723">
        <ele>1690</ele>
        <time>2012-05-15T09:40:43Z</time>
      </trkpt>
      <trkpt lat="44.05325" lon="7.20663">
        <ele>1690</ele>
        <time>2012-05-15T09:40:52Z</time>
      </trkpt>
      <trkpt lat="44.05318" lon="7.20634">
        <ele>1686</ele>
        <time>2012-05-15T09:41:06Z</time>
      </trkpt>
      <trkpt lat="44.05316" lon="7.20639">
        <ele>1681</ele>
        <time>2012-05-15T09:41:16Z</time>
      </trkpt>
      <trkpt lat="44.05311" lon="7.20637">
        <ele>1676</ele>
        <time>2012-05-15T09:41:25Z</time>
      </trkpt>
      <trkpt lat="44.05301" lon="7.20606">
        <ele>1674</ele>
        <time>2012-05-15T09:41:35Z</time>
      </trkpt>
      <trkpt lat="44.05281" lon="7.20583">
        <ele>1674</ele>
        <time>2012-05-15T09:41:47Z</time>
      </trkpt>
      <trkpt lat="44.05228" lon="7.20519">
        <ele>1674</ele>
        <time>2012-05-15T09:42:00Z</time>
      </trkpt>
      <trkpt lat="44.05189" lon="7.20465">
        <ele>1674</ele>
        <time>2012-05-15T09:42:09Z</time>
      </trkpt>
      <trkpt lat="44.05157" lon="7.20446">
        <ele>1674</ele>
        <time>2012-05-15T09:42:22Z</time>
      </trkpt>
      <trkpt lat="44.05156" lon="7.20438">
        <ele>1674</ele>
        <time>2012-05-15T09:42:32Z</time>
      </trkpt>
      <trkpt lat="44.05156" lon="7.20435">
        <ele>1678</ele>
        <time>2012-05-15T09:42:50Z</time>
      </trkpt>
      <trkpt lat="44.05156" lon="7.20436">
        <ele>1680</ele>
        <time>2012-05-15T09:43:05Z</time>
      </trkpt>
      <trkpt lat="44.05157" lon="7.20429">
        <ele>1678</ele>
        <time>2012-05-15T09:43:16Z</time>
      </trkpt>
      <trkpt lat="44.05155" lon="7.20404">
        <ele>1676</ele>
        <time>2012-05-15T09:43:25Z</time>
      </trkpt>
      <trkpt lat="44.05141" lon="7.2037">
        <ele>1676</ele>
        <time>2012-05-15T09:43:39Z</time>
      </trkpt>
      <trkpt lat="44.0514" lon="7.20361">
        <ele>1676</ele>
        <time>2012-05-15T09:43:51Z</time>
      </trkpt>
      <trkpt lat="44.05142" lon="7.20364">
        <ele>1676</ele>
        <time>2012-05-15T09:44:03Z</time>
      </trkpt>
      <trkpt lat="44.05144" lon="7.20366">
        <ele>1676</ele>
        <time>2012-05-15T09:44:12Z</time>
      </trkpt>
      <trkpt lat="44.05147" lon="7.20367">
        <ele>1676</ele>
        <time>2012-05-15T09:44:25Z</time>
      </trkpt>
      <trkpt lat="44.05144" lon="7.20367">
        <ele>1676</ele>
        <time>2012-05-15T09:44:39Z</time>
      </trkpt>
      <trkpt lat="44.05145" lon="7.20369">
        <ele>1676</ele>
        <time>2012-05-15T09:45:06Z</time>
      </trkpt>
      <trkpt lat="44.05136" lon="7.20343">
        <ele>1676</ele>
        <time>2012-05-15T09:45:18Z</time>
      </trkpt>
      <trkpt lat="44.0513" lon="7.20321">
        <ele>1676</ele>
        <time>2012-05-15T09:45:27Z</time>
      </trkpt>
      <trkpt lat="44.05114" lon="7.20278">
        <ele>1676</ele>
        <time>2012-05-15T09:45:38Z</time>
      </trkpt>
      <trkpt lat="44.05089" lon="7.20214">
        <ele>1676</ele>
        <time>2012-05-15T09:45:49Z</time>
      </trkpt>
      <trkpt lat="44.05074" lon="7.20144">
        <ele>1675</ele>
        <time>2012-05-15T09:46:00Z</time>
      </trkpt>
      <trkpt lat="44.05058" lon="7.20075">
        <ele>1675</ele>
        <time>2012-05-15T09:46:11Z</time>
      </trkpt>
      <trkpt lat="44.05064" lon="7.1999">
        <ele>1674</ele>
        <time>2012-05-15T09:46:23Z</time>
      </trkpt>
      <trkpt lat="44.05069" lon="7.199">
        <ele>1674</ele>
        <time>2012-05-15T09:46:34Z</time>
      </trkpt>
      <trkpt lat="44.05081" lon="7.19773">
        <ele>1674</ele>
        <time>2012-05-15T09:46:45Z</time>
      </trkpt>
      <trkpt lat="44.05077" lon="7.197">
        <ele>1670</ele>
        <time>2012-05-15T09:46:56Z</time>
      </trkpt>
      <trkpt lat="44.05104" lon="7.19611">
        <ele>1663</ele>
        <time>2012-05-15T09:47:07Z</time>
      </trkpt>
      <trkpt lat="44.05094" lon="7.19546">
        <ele>1659</ele>
        <time>2012-05-15T09:47:16Z</time>
      </trkpt>
      <trkpt lat="44.05082" lon="7.19479">
        <ele>1656</ele>
        <time>2012-05-15T09:47:29Z</time>
      </trkpt>
      <trkpt lat="44.05077" lon="7.19477">
        <ele>1655</ele>
        <time>2012-05-15T09:47:40Z</time>
      </trkpt>
      <trkpt lat="44.05074" lon="7.19477">
        <ele>1655</ele>
        <time>2012-05-15T09:47:53Z</time>
      </trkpt>
      <trkpt lat="44.05072" lon="7.19469">
        <ele>1655</ele>
        <time>2012-05-15T09:48:02Z</time>
      </trkpt>
      <trkpt lat="44.05061" lon="7.19456">
        <ele>1655</ele>
        <time>2012-05-15T09:48:16Z</time>
      </trkpt>
      <trkpt lat="44.05056" lon="7.19444">
        <ele>1655</ele>
        <time>2012-05-15T09:48:29Z</time>
      </trkpt>
      <trkpt lat="44.05051" lon="7.19441">
        <ele>1660</ele>
        <time>2012-05-15T09:48:39Z</time>
      </trkpt>
      <trkpt lat="44.05045" lon="7.19431">
        <ele>1665</ele>
        <time>2012-05-15T09:48:51Z</time>
      </trkpt>
      <trkpt lat="44.05046" lon="7.19417">
        <ele>1670</ele>
        <time>2012-05-15T09:49:01Z</time>
      </trkpt>
      <trkpt lat="44.05044" lon="7.19406">
        <ele>1672</ele>
        <time>2012-05-15T09:49:14Z</time>
      </trkpt>
      <trkpt lat="44.05041" lon="7.19391">
        <ele>1672</ele>
        <time>2012-05-15T09:49:24Z</time>
      </trkpt>
      <trkpt lat="44.05032" lon="7.19383">
        <ele>1675</ele>
        <time>2012-05-15T09:49:35Z</time>
      </trkpt>
      <trkpt lat="44.05024" lon="7.19373">
        <ele>1675</ele>
        <time>2012-05-15T09:49:47Z</time>
      </trkpt>
      <trkpt lat="44.05022" lon="7.19358">
        <ele>1673</ele>
        <time>2012-05-15T09:49:57Z</time>
      </trkpt>
      <trkpt lat="44.05017" lon="7.19347">
        <ele>1673</ele>
        <time>2012-05-15T09:50:08Z</time>
      </trkpt>
      <trkpt lat="44.05016" lon="7.19333">
        <ele>1673</ele>
        <time>2012-05-15T09:50:19Z</time>
      </trkpt>
      <trkpt lat="44.05016" lon="7.19322">
        <ele>1673</ele>
        <time>2012-05-15T09:50:30Z</time>
      </trkpt>
      <trkpt lat="44.05016" lon="7.19307">
        <ele>1676</ele>
        <time>2012-05-15T09:50:42Z</time>
      </trkpt>
      <trkpt lat="44.05016" lon="7.19283">
        <ele>1680</ele>
        <time>2012-05-15T09:50:54Z</time>
      </trkpt>
      <trkpt lat="44.05013" lon="7.19267">
        <ele>1682</ele>
        <time>2012-05-15T09:51:08Z</time>
      </trkpt>
      <trkpt lat="44.05013" lon="7.19256">
        <ele>1682</ele>
        <time>2012-05-15T09:51:18Z</time>
      </trkpt>
      <trkpt lat="44.0501" lon="7.19245">
        <ele>1687</ele>
        <time>2012-05-15T09:51:30Z</time>
      </trkpt>
      <trkpt lat="44.05001" lon="7.1923">
        <ele>1692</ele>
        <time>2012-05-15T09:51:39Z</time>
      </trkpt>
      <trkpt lat="44.04993" lon="7.19222">
        <ele>1692</ele>
        <time>2012-05-15T09:51:53Z</time>
      </trkpt>
      <trkpt lat="44.0498" lon="7.19214">
        <ele>1697</ele>
        <time>2012-05-15T09:52:03Z</time>
      </trkpt>
      <trkpt lat="44.04979" lon="7.19203">
        <ele>1703</ele>
        <time>2012-05-15T09:52:16Z</time>
      </trkpt>
      <trkpt lat="44.04973" lon="7.1919">
        <ele>1708</ele>
        <time>2012-05-15T09:52:29Z</time>
      </trkpt>
      <trkpt lat="44.04971" lon="7.19178">
        <ele>1709</ele>
        <time>2012-05-15T09:52:38Z</time>
      </trkpt>
      <trkpt lat="44.04972" lon="7.19164">
        <ele>1709</ele>
        <time>2012-05-15T09:52:50Z</time>
      </trkpt>
      <trkpt lat="44.04977" lon="7.19145">
        <ele>1707</ele>
        <time>2012-05-15T09:53:03Z</time>
      </trkpt>
      <trkpt lat="44.04967" lon="7.19134">
        <ele>1706</ele>
        <time>2012-05-15T09:53:16Z</time>
      </trkpt>
      <trkpt lat="44.04961" lon="7.19117">
        <ele>1708</ele>
        <time>2012-05-15T09:53:26Z</time>
      </trkpt>
      <trkpt lat="44.04951" lon="7.19109">
        <ele>1712</ele>
        <time>2012-05-15T09:53:39Z</time>
      </trkpt>
      <trkpt lat="44.04949" lon="7.19097">
        <ele>1712</ele>
        <time>2012-05-15T09:53:49Z</time>
      </trkpt>
      <trkpt lat="44.0494" lon="7.19091">
        <ele>1714</ele>
        <time>2012-05-15T09:53:59Z</time>
      </trkpt>
      <trkpt lat="44.04938" lon="7.19074">
        <ele>1716</ele>
        <time>2012-05-15T09:54:09Z</time>
      </trkpt>
      <trkpt lat="44.04935" lon="7.1906">
        <ele>1716</ele>
        <time>2012-05-15T09:54:20Z</time>
      </trkpt>
      <trkpt lat="44.04935" lon="7.19041">
        <ele>1718</ele>
        <time>2012-05-15T09:54:32Z</time>
      </trkpt>
      <trkpt lat="44.04935" lon="7.19028">
        <ele>1721</ele>
        <time>2012-05-15T09:54:44Z</time>
      </trkpt>
      <trkpt lat="44.04932" lon="7.19011">
        <ele>1725</ele>
        <time>2012-05-15T09:54:58Z</time>
      </trkpt>
      <trkpt lat="44.04933" lon="7.18992">
        <ele>1727</ele>
        <time>2012-05-15T09:55:08Z</time>
      </trkpt>
      <trkpt lat="44.04931" lon="7.18977">
        <ele>1727</ele>
        <time>2012-05-15T09:55:21Z</time>
      </trkpt>
      <trkpt lat="44.04932" lon="7.18961">
        <ele>1727</ele>
        <time>2012-05-15T09:55:32Z</time>
      </trkpt>
      <trkpt lat="44.04933" lon="7.18941">
        <ele>1726</ele>
        <time>2012-05-15T09:55:46Z</time>
      </trkpt>
      <trkpt lat="44.04933" lon="7.18923">
        <ele>1726</ele>
        <time>2012-05-15T09:55:55Z</time>
      </trkpt>
      <trkpt lat="44.04936" lon="7.18905">
        <ele>1726</ele>
        <time>2012-05-15T09:56:07Z</time>
      </trkpt>
      <trkpt lat="44.04939" lon="7.1889">
        <ele>1728</ele>
        <time>2012-05-15T09:56:19Z</time>
      </trkpt>
      <trkpt lat="44.04939" lon="7.18874">
        <ele>1731</ele>
        <time>2012-05-15T09:56:32Z</time>
      </trkpt>
      <trkpt lat="44.04934" lon="7.18864">
        <ele>1734</ele>
        <time>2012-05-15T09:56:46Z</time>
      </trkpt>
      <trkpt lat="44.04933" lon="7.18863">
        <ele>1735</ele>
        <time>2012-05-15T09:56:55Z</time>
      </trkpt>
      <trkpt lat="44.0493" lon="7.18864">
        <ele>1738</ele>
        <time>2012-05-15T09:57:34Z</time>
      </trkpt>
      <trkpt lat="44.04929" lon="7.18868">
        <ele>1738</ele>
        <time>2012-05-15T09:57:46Z</time>
      </trkpt>
      <trkpt lat="44.04929" lon="7.18869">
        <ele>1738</ele>
        <time>2012-05-15T09:57:55Z</time>
      </trkpt>
      <trkpt lat="44.04927" lon="7.18872">
        <ele>1739</ele>
        <time>2012-05-15T09:58:08Z</time>
      </trkpt>
      <trkpt lat="44.04919" lon="7.18879">
        <ele>1739</ele>
        <time>2012-05-15T09:58:19Z</time>
      </trkpt>
      <trkpt lat="44.04912" lon="7.18883">
        <ele>1739</ele>
        <time>2012-05-15T09:58:34Z</time>
      </trkpt>
      <trkpt lat="44.04907" lon="7.18895">
        <ele>1739</ele>
        <time>2012-05-15T09:58:44Z</time>
      </trkpt>
      <trkpt lat="44.04904" lon="7.18904">
        <ele>1739</ele>
        <time>2012-05-15T09:58:56Z</time>
      </trkpt>
      <trkpt lat="44.04899" lon="7.18915">
        <ele>1742</ele>
        <time>2012-05-15T09:59:08Z</time>
      </trkpt>
      <trkpt lat="44.04894" lon="7.18926">
        <ele>1744</ele>
        <time>2012-05-15T09:59:21Z</time>
      </trkpt>
      <trkpt lat="44.04888" lon="7.18938">
        <ele>1744</ele>
        <time>2012-05-15T09:59:34Z</time>
      </trkpt>
      <trkpt lat="44.04882" lon="7.18952">
        <ele>1745</ele>
        <time>2012-05-15T09:59:47Z</time>
      </trkpt>
      <trkpt lat="44.04882" lon="7.18969">
        <ele>1747</ele>
        <time>2012-05-15T09:59:57Z</time>
      </trkpt>
      <trkpt lat="44.04878" lon="7.18991">
        <ele>1748</ele>
        <time>2012-05-15T10:00:10Z</time>
      </trkpt>
      <trkpt lat="44.04874" lon="7.19002">
        <ele>1750</ele>
        <time>2012-05-15T10:00:21Z</time>
      </trkpt>
      <trkpt lat="44.0487" lon="7.19023">
        <ele>1752</ele>
        <time>2012-05-15T10:00:34Z</time>
      </trkpt>
      <trkpt lat="44.04867" lon="7.19033">
        <ele>1753</ele>
        <time>2012-05-15T10:00:43Z</time>
      </trkpt>
      <trkpt lat="44.04863" lon="7.19042">
        <ele>1757</ele>
        <time>2012-05-15T10:00:53Z</time>
      </trkpt>
      <trkpt lat="44.04863" lon="7.19053">
        <ele>1759</ele>
        <time>2012-05-15T10:01:03Z</time>
      </trkpt>
      <trkpt lat="44.04861" lon="7.19069">
        <ele>1760</ele>
        <time>2012-05-15T10:01:19Z</time>
      </trkpt>
      <trkpt lat="44.04857" lon="7.19083">
        <ele>1760</ele>
        <time>2012-05-15T10:01:32Z</time>
      </trkpt>
      <trkpt lat="44.04854" lon="7.19094">
        <ele>1763</ele>
        <time>2012-05-15T10:01:47Z</time>
      </trkpt>
      <trkpt lat="44.04855" lon="7.1909">
        <ele>1766</ele>
        <time>2012-05-15T10:02:02Z</time>
      </trkpt>
      <trkpt lat="44.04854" lon="7.19087">
        <ele>1771</ele>
        <time>2012-05-15T10:02:13Z</time>
      </trkpt>
      <trkpt lat="44.04854" lon="7.19092">
        <ele>1771</ele>
        <time>2012-05-15T10:02:26Z</time>
      </trkpt>
      <trkpt lat="44.04849" lon="7.19107">
        <ele>1771</ele>
        <time>2012-05-15T10:02:36Z</time>
      </trkpt>
      <trkpt lat="44.04845" lon="7.19116">
        <ele>1772</ele>
        <time>2012-05-15T10:02:49Z</time>
      </trkpt>
      <trkpt lat="44.04844" lon="7.19126">
        <ele>1775</ele>
        <time>2012-05-15T10:02:59Z</time>
      </trkpt>
      <trkpt lat="44.04845" lon="7.19133">
        <ele>1776</ele>
        <time>2012-05-15T10:03:11Z</time>
      </trkpt>
      <trkpt lat="44.04847" lon="7.19145">
        <ele>1776</ele>
        <time>2012-05-15T10:03:21Z</time>
      </trkpt>
      <trkpt lat="44.04845" lon="7.19154">
        <ele>1778</ele>
        <time>2012-05-15T10:03:30Z</time>
      </trkpt>
      <trkpt lat="44.04842" lon="7.19165">
        <ele>1780</ele>
        <time>2012-05-15T10:03:43Z</time>
      </trkpt>
      <trkpt lat="44.04844" lon="7.19181">
        <ele>1781</ele>
        <time>2012-05-15T10:03:54Z</time>
      </trkpt>
      <trkpt lat="44.04844" lon="7.19197">
        <ele>1781</ele>
        <time>2012-05-15T10:04:07Z</time>
      </trkpt>
      <trkpt lat="44.04842" lon="7.19208">
        <ele>1782</ele>
        <time>2012-05-15T10:04:16Z</time>
      </trkpt>
      <trkpt lat="44.04842" lon="7.19219">
        <ele>1784</ele>
        <time>2012-05-15T10:04:28Z</time>
      </trkpt>
      <trkpt lat="44.04842" lon="7.19228">
        <ele>1786</ele>
        <time>2012-05-15T10:04:37Z</time>
      </trkpt>
      <trkpt lat="44.04845" lon="7.19236">
        <ele>1789</ele>
        <time>2012-05-15T10:04:47Z</time>
      </trkpt>
      <trkpt lat="44.04847" lon="7.19247">
        <ele>1791</ele>
        <time>2012-05-15T10:05:00Z</time>
      </trkpt>
      <trkpt lat="44.04845" lon="7.19257">
        <ele>1792</ele>
        <time>2012-05-15T10:05:09Z</time>
      </trkpt>
      <trkpt lat="44.04845" lon="7.1927">
        <ele>1795</ele>
        <time>2012-05-15T10:05:22Z</time>
      </trkpt>
      <trkpt lat="44.04846" lon="7.19288">
        <ele>1796</ele>
        <time>2012-05-15T10:05:36Z</time>
      </trkpt>
      <trkpt lat="44.04845" lon="7.19303">
        <ele>1798</ele>
        <time>2012-05-15T10:05:47Z</time>
      </trkpt>
      <trkpt lat="44.04842" lon="7.19335">
        <ele>1798</ele>
        <time>2012-05-15T10:05:59Z</time>
      </trkpt>
      <trkpt lat="44.04843" lon="7.1937">
        <ele>1798</ele>
        <time>2012-05-15T10:06:11Z</time>
      </trkpt>
      <trkpt lat="44.04845" lon="7.19383">
        <ele>1801</ele>
        <time>2012-05-15T10:06:20Z</time>
      </trkpt>
      <trkpt lat="44.04846" lon="7.19394">
        <ele>1803</ele>
        <time>2012-05-15T10:06:33Z</time>
      </trkpt>
      <trkpt lat="44.04848" lon="7.19407">
        <ele>1804</ele>
        <time>2012-05-15T10:06:46Z</time>
      </trkpt>
      <trkpt lat="44.04849" lon="7.19423">
        <ele>1805</ele>
        <time>2012-05-15T10:06:58Z</time>
      </trkpt>
      <trkpt lat="44.04854" lon="7.19434">
        <ele>1806</ele>
        <time>2012-05-15T10:07:08Z</time>
      </trkpt>
      <trkpt lat="44.04859" lon="7.19449">
        <ele>1807</ele>
        <time>2012-05-15T10:07:22Z</time>
      </trkpt>
      <trkpt lat="44.0486" lon="7.19464">
        <ele>1808</ele>
        <time>2012-05-15T10:07:34Z</time>
      </trkpt>
      <trkpt lat="44.04861" lon="7.19476">
        <ele>1812</ele>
        <time>2012-05-15T10:07:45Z</time>
      </trkpt>
      <trkpt lat="44.04861" lon="7.19487">
        <ele>1814</ele>
        <time>2012-05-15T10:07:57Z</time>
      </trkpt>
      <trkpt lat="44.04861" lon="7.19507">
        <ele>1816</ele>
        <time>2012-05-15T10:08:10Z</time>
      </trkpt>
      <trkpt lat="44.04858" lon="7.19522">
        <ele>1819</ele>
        <time>2012-05-15T10:08:20Z</time>
      </trkpt>
      <trkpt lat="44.04858" lon="7.19537">
        <ele>1820</ele>
        <time>2012-05-15T10:08:31Z</time>
      </trkpt>
      <trkpt lat="44.04858" lon="7.19553">
        <ele>1822</ele>
        <time>2012-05-15T10:08:44Z</time>
      </trkpt>
      <trkpt lat="44.04858" lon="7.19566">
        <ele>1824</ele>
        <time>2012-05-15T10:08:53Z</time>
      </trkpt>
      <trkpt lat="44.04856" lon="7.1958">
        <ele>1826</ele>
        <time>2012-05-15T10:09:04Z</time>
      </trkpt>
      <trkpt lat="44.04854" lon="7.19593">
        <ele>1828</ele>
        <time>2012-05-15T10:09:13Z</time>
      </trkpt>
      <trkpt lat="44.04855" lon="7.1962">
        <ele>1828</ele>
        <time>2012-05-15T10:09:23Z</time>
      </trkpt>
      <trkpt lat="44.04849" lon="7.19647">
        <ele>1828</ele>
        <time>2012-05-15T10:09:34Z</time>
      </trkpt>
      <trkpt lat="44.04843" lon="7.19676">
        <ele>1830</ele>
        <time>2012-05-15T10:09:44Z</time>
      </trkpt>
      <trkpt lat="44.04836" lon="7.1969">
        <ele>1832</ele>
        <time>2012-05-15T10:09:56Z</time>
      </trkpt>
      <trkpt lat="44.04827" lon="7.19711">
        <ele>1835</ele>
        <time>2012-05-15T10:10:11Z</time>
      </trkpt>
      <trkpt lat="44.04822" lon="7.19718">
        <ele>1837</ele>
        <time>2012-05-15T10:10:27Z</time>
      </trkpt>
      <trkpt lat="44.04822" lon="7.19718">
        <ele>1840</ele>
        <time>2012-05-15T10:10:43Z</time>
      </trkpt>
      <trkpt lat="44.04826" lon="7.1972">
        <ele>1841</ele>
        <time>2012-05-15T10:11:08Z</time>
      </trkpt>
      <trkpt lat="44.04831" lon="7.19718">
        <ele>1841</ele>
        <time>2012-05-15T10:11:23Z</time>
      </trkpt>
      <trkpt lat="44.04833" lon="7.19719">
        <ele>1841</ele>
        <time>2012-05-15T10:11:48Z</time>
      </trkpt>
      <trkpt lat="44.04828" lon="7.19717">
        <ele>1841</ele>
        <time>2012-05-15T10:11:58Z</time>
      </trkpt>
      <trkpt lat="44.04822" lon="7.19723">
        <ele>1841</ele>
        <time>2012-05-15T10:12:19Z</time>
      </trkpt>
      <trkpt lat="44.04823" lon="7.19724">
        <ele>1841</ele>
        <time>2012-05-15T10:13:00Z</time>
      </trkpt>
      <trkpt lat="44.04822" lon="7.19724">
        <ele>1841</ele>
        <time>2012-05-15T10:13:42Z</time>
      </trkpt>
      <trkpt lat="44.04823" lon="7.19718">
        <ele>1841</ele>
        <time>2012-05-15T10:13:56Z</time>
      </trkpt>
      <trkpt lat="44.04821" lon="7.19717">
        <ele>1841</ele>
        <time>2012-05-15T10:14:06Z</time>
      </trkpt>
      <trkpt lat="44.04821" lon="7.19721">
        <ele>1843</ele>
        <time>2012-05-15T10:14:20Z</time>
      </trkpt>
      <trkpt lat="44.0482" lon="7.19723">
        <ele>1844</ele>
        <time>2012-05-15T10:14:45Z</time>
      </trkpt>
      <trkpt lat="44.04815" lon="7.19733">
        <ele>1844</ele>
        <time>2012-05-15T10:15:11Z</time>
      </trkpt>
      <trkpt lat="44.04811" lon="7.19745">
        <ele>1844</ele>
        <time>2012-05-15T10:15:24Z</time>
      </trkpt>
      <trkpt lat="44.04806" lon="7.19761">
        <ele>1844</ele>
        <time>2012-05-15T10:15:33Z</time>
      </trkpt>
      <trkpt lat="44.04801" lon="7.19768">
        <ele>1846</ele>
        <time>2012-05-15T10:15:45Z</time>
      </trkpt>
      <trkpt lat="44.04794" lon="7.19774">
        <ele>1847</ele>
        <time>2012-05-15T10:15:54Z</time>
      </trkpt>
      <trkpt lat="44.04787" lon="7.19778">
        <ele>1852</ele>
        <time>2012-05-15T10:16:06Z</time>
      </trkpt>
      <trkpt lat="44.04781" lon="7.19788">
        <ele>1855</ele>
        <time>2012-05-15T10:16:23Z</time>
      </trkpt>
      <trkpt lat="44.04774" lon="7.19796">
        <ele>1857</ele>
        <time>2012-05-15T10:16:34Z</time>
      </trkpt>
      <trkpt lat="44.04767" lon="7.19803">
        <ele>1861</ele>
        <time>2012-05-15T10:16:45Z</time>
      </trkpt>
      <trkpt lat="44.04757" lon="7.19809">
        <ele>1862</ele>
        <time>2012-05-15T10:17:00Z</time>
      </trkpt>
      <trkpt lat="44.04749" lon="7.19816">
        <ele>1864</ele>
        <time>2012-05-15T10:17:12Z</time>
      </trkpt>
      <trkpt lat="44.04744" lon="7.19821">
        <ele>1866</ele>
        <time>2012-05-15T10:17:22Z</time>
      </trkpt>
      <trkpt lat="44.04734" lon="7.19831">
        <ele>1866</ele>
        <time>2012-05-15T10:17:37Z</time>
      </trkpt>
      <trkpt lat="44.04728" lon="7.19838">
        <ele>1868</ele>
        <time>2012-05-15T10:17:47Z</time>
      </trkpt>
      <trkpt lat="44.04724" lon="7.19845">
        <ele>1871</ele>
        <time>2012-05-15T10:17:57Z</time>
      </trkpt>
      <trkpt lat="44.04723" lon="7.19853">
        <ele>1872</ele>
        <time>2012-05-15T10:18:08Z</time>
      </trkpt>
      <trkpt lat="44.04721" lon="7.19863">
        <ele>1874</ele>
        <time>2012-05-15T10:18:17Z</time>
      </trkpt>
      <trkpt lat="44.04713" lon="7.19874">
        <ele>1877</ele>
        <time>2012-05-15T10:18:29Z</time>
      </trkpt>
      <trkpt lat="44.04707" lon="7.19888">
        <ele>1877</ele>
        <time>2012-05-15T10:18:41Z</time>
      </trkpt>
      <trkpt lat="44.047" lon="7.19907">
        <ele>1877</ele>
        <time>2012-05-15T10:18:54Z</time>
      </trkpt>
      <trkpt lat="44.04696" lon="7.19921">
        <ele>1877</ele>
        <time>2012-05-15T10:19:06Z</time>
      </trkpt>
      <trkpt lat="44.04691" lon="7.19938">
        <ele>1878</ele>
        <time>2012-05-15T10:19:19Z</time>
      </trkpt>
      <trkpt lat="44.04684" lon="7.19954">
        <ele>1882</ele>
        <time>2012-05-15T10:19:29Z</time>
      </trkpt>
      <trkpt lat="44.04681" lon="7.19966">
        <ele>1882</ele>
        <time>2012-05-15T10:19:40Z</time>
      </trkpt>
      <trkpt lat="44.04676" lon="7.1998">
        <ele>1883</ele>
        <time>2012-05-15T10:19:49Z</time>
      </trkpt>
      <trkpt lat="44.04672" lon="7.19997">
        <ele>1884</ele>
        <time>2012-05-15T10:20:01Z</time>
      </trkpt>
      <trkpt lat="44.0467" lon="7.2001">
        <ele>1885</ele>
        <time>2012-05-15T10:20:11Z</time>
      </trkpt>
      <trkpt lat="44.04668" lon="7.20025">
        <ele>1885</ele>
        <time>2012-05-15T10:20:22Z</time>
      </trkpt>
      <trkpt lat="44.04666" lon="7.20052">
        <ele>1885</ele>
        <time>2012-05-15T10:20:32Z</time>
      </trkpt>
      <trkpt lat="44.04663" lon="7.20073">
        <ele>1885</ele>
        <time>2012-05-15T10:20:43Z</time>
      </trkpt>
      <trkpt lat="44.04654" lon="7.20114">
        <ele>1885</ele>
        <time>2012-05-15T10:20:56Z</time>
      </trkpt>
      <trkpt lat="44.04642" lon="7.20131">
        <ele>1885</ele>
        <time>2012-05-15T10:21:09Z</time>
      </trkpt>
      <trkpt lat="44.04632" lon="7.2015">
        <ele>1887</ele>
        <time>2012-05-15T10:21:21Z</time>
      </trkpt>
      <trkpt lat="44.04617" lon="7.20168">
        <ele>1888</ele>
        <time>2012-05-15T10:21:34Z</time>
      </trkpt>
      <trkpt lat="44.04607" lon="7.2018">
        <ele>1891</ele>
        <time>2012-05-15T10:21:43Z</time>
      </trkpt>
      <trkpt lat="44.04604" lon="7.20185">
        <ele>1892</ele>
        <time>2012-05-15T10:21:56Z</time>
      </trkpt>
      <trkpt lat="44.04599" lon="7.20194">
        <ele>1894</ele>
        <time>2012-05-15T10:22:11Z</time>
      </trkpt>
      <trkpt lat="44.04594" lon="7.20202">
        <ele>1896</ele>
        <time>2012-05-15T10:22:23Z</time>
      </trkpt>
      <trkpt lat="44.04583" lon="7.2021">
        <ele>1898</ele>
        <time>2012-05-15T10:22:33Z</time>
      </trkpt>
      <trkpt lat="44.04571" lon="7.20218">
        <ele>1898</ele>
        <time>2012-05-15T10:22:45Z</time>
      </trkpt>
      <trkpt lat="44.04532" lon="7.20245">
        <ele>1897</ele>
        <time>2012-05-15T10:22:58Z</time>
      </trkpt>
      <trkpt lat="44.04496" lon="7.20289">
        <ele>1894</ele>
        <time>2012-05-15T10:23:11Z</time>
      </trkpt>
      <trkpt lat="44.04484" lon="7.20325">
        <ele>1893</ele>
        <time>2012-05-15T10:23:21Z</time>
      </trkpt>
      <trkpt lat="44.04475" lon="7.20337">
        <ele>1893</ele>
        <time>2012-05-15T10:23:33Z</time>
      </trkpt>
      <trkpt lat="44.0446" lon="7.20357">
        <ele>1893</ele>
        <time>2012-05-15T10:23:43Z</time>
      </trkpt>
      <trkpt lat="44.04446" lon="7.20368">
        <ele>1893</ele>
        <time>2012-05-15T10:23:56Z</time>
      </trkpt>
      <trkpt lat="44.0443" lon="7.20385">
        <ele>1894</ele>
        <time>2012-05-15T10:24:09Z</time>
      </trkpt>
      <trkpt lat="44.04408" lon="7.20405">
        <ele>1895</ele>
        <time>2012-05-15T10:24:22Z</time>
      </trkpt>
      <trkpt lat="44.04388" lon="7.20417">
        <ele>1895</ele>
        <time>2012-05-15T10:24:34Z</time>
      </trkpt>
      <trkpt lat="44.04367" lon="7.20433">
        <ele>1897</ele>
        <time>2012-05-15T10:24:47Z</time>
      </trkpt>
      <trkpt lat="44.04347" lon="7.20444">
        <ele>1899</ele>
        <time>2012-05-15T10:25:01Z</time>
      </trkpt>
      <trkpt lat="44.04329" lon="7.20452">
        <ele>1901</ele>
        <time>2012-05-15T10:25:14Z</time>
      </trkpt>
      <trkpt lat="44.04312" lon="7.20462">
        <ele>1904</ele>
        <time>2012-05-15T10:25:26Z</time>
      </trkpt>
      <trkpt lat="44.04297" lon="7.20474">
        <ele>1906</ele>
        <time>2012-05-15T10:25:40Z</time>
      </trkpt>
      <trkpt lat="44.0428" lon="7.20483">
        <ele>1908</ele>
        <time>2012-05-15T10:25:53Z</time>
      </trkpt>
      <trkpt lat="44.04264" lon="7.20486">
        <ele>1910</ele>
        <time>2012-05-15T10:26:03Z</time>
      </trkpt>
      <trkpt lat="44.04252" lon="7.20482">
        <ele>1911</ele>
        <time>2012-05-15T10:26:14Z</time>
      </trkpt>
      <trkpt lat="44.04234" lon="7.20477">
        <ele>1914</ele>
        <time>2012-05-15T10:26:26Z</time>
      </trkpt>
      <trkpt lat="44.04216" lon="7.20473">
        <ele>1917</ele>
        <time>2012-05-15T10:26:39Z</time>
      </trkpt>
      <trkpt lat="44.04195" lon="7.20473">
        <ele>1918</ele>
        <time>2012-05-15T10:26:52Z</time>
      </trkpt>
      <trkpt lat="44.04177" lon="7.20479">
        <ele>1918</ele>
        <time>2012-05-15T10:27:05Z</time>
      </trkpt>
      <trkpt lat="44.0416" lon="7.20487">
        <ele>1920</ele>
        <time>2012-05-15T10:27:19Z</time>
      </trkpt>
      <trkpt lat="44.04143" lon="7.20489">
        <ele>1921</ele>
        <time>2012-05-15T10:27:32Z</time>
      </trkpt>
      <trkpt lat="44.04124" lon="7.20482">
        <ele>1923</ele>
        <time>2012-05-15T10:27:45Z</time>
      </trkpt>
      <trkpt lat="44.04102" lon="7.20486">
        <ele>1925</ele>
        <time>2012-05-15T10:27:55Z</time>
      </trkpt>
      <trkpt lat="44.04082" lon="7.20481">
        <ele>1926</ele>
        <time>2012-05-15T10:28:08Z</time>
      </trkpt>
      <trkpt lat="44.04069" lon="7.20467">
        <ele>1927</ele>
        <time>2012-05-15T10:28:21Z</time>
      </trkpt>
      <trkpt lat="44.04057" lon="7.2046">
        <ele>1932</ele>
        <time>2012-05-15T10:28:36Z</time>
      </trkpt>
      <trkpt lat="44.04049" lon="7.20455">
        <ele>1932</ele>
        <time>2012-05-15T10:28:50Z</time>
      </trkpt>
      <trkpt lat="44.04041" lon="7.20454">
        <ele>1934</ele>
        <time>2012-05-15T10:28:59Z</time>
      </trkpt>
      <trkpt lat="44.04032" lon="7.20448">
        <ele>1934</ele>
        <time>2012-05-15T10:29:13Z</time>
      </trkpt>
      <trkpt lat="44.04025" lon="7.20447">
        <ele>1934</ele>
        <time>2012-05-15T10:29:23Z</time>
      </trkpt>
      <trkpt lat="44.0402" lon="7.20444">
        <ele>1934</ele>
        <time>2012-05-15T10:29:34Z</time>
      </trkpt>
      <trkpt lat="44.04013" lon="7.20441">
        <ele>1936</ele>
        <time>2012-05-15T10:29:43Z</time>
      </trkpt>
      <trkpt lat="44.04002" lon="7.20436">
        <ele>1938</ele>
        <time>2012-05-15T10:29:57Z</time>
      </trkpt>
      <trkpt lat="44.03992" lon="7.20431">
        <ele>1941</ele>
        <time>2012-05-15T10:30:10Z</time>
      </trkpt>
      <trkpt lat="44.03986" lon="7.20428">
        <ele>1943</ele>
        <time>2012-05-15T10:30:23Z</time>
      </trkpt>
      <trkpt lat="44.03977" lon="7.20423">
        <ele>1947</ele>
        <time>2012-05-15T10:30:37Z</time>
      </trkpt>
      <trkpt lat="44.03965" lon="7.20416">
        <ele>1950</ele>
        <time>2012-05-15T10:30:51Z</time>
      </trkpt>
      <trkpt lat="44.03953" lon="7.20411">
        <ele>1951</ele>
        <time>2012-05-15T10:31:05Z</time>
      </trkpt>
      <trkpt lat="44.03942" lon="7.20414">
        <ele>1952</ele>
        <time>2012-05-15T10:31:15Z</time>
      </trkpt>
      <trkpt lat="44.03939" lon="7.20415">
        <ele>1955</ele>
        <time>2012-05-15T10:31:29Z</time>
      </trkpt>
      <trkpt lat="44.03941" lon="7.20413">
        <ele>1960</ele>
        <time>2012-05-15T10:32:04Z</time>
      </trkpt>
      <trkpt lat="44.03943" lon="7.20413">
        <ele>1960</ele>
        <time>2012-05-15T10:32:29Z</time>
      </trkpt>
      <trkpt lat="44.03938" lon="7.20417">
        <ele>1960</ele>
        <time>2012-05-15T10:33:02Z</time>
      </trkpt>
      <trkpt lat="44.03938" lon="7.20416">
        <ele>1960</ele>
        <time>2012-05-15T10:33:12Z</time>
      </trkpt>
      <trkpt lat="44.03938" lon="7.20418">
        <ele>1960</ele>
        <time>2012-05-15T10:33:27Z</time>
      </trkpt>
      <trkpt lat="44.03937" lon="7.20421">
        <ele>1960</ele>
        <time>2012-05-15T10:33:54Z</time>
      </trkpt>
      <trkpt lat="44.03931" lon="7.20444">
        <ele>1960</ele>
        <time>2012-05-15T10:34:07Z</time>
      </trkpt>
      <trkpt lat="44.03928" lon="7.20492">
        <ele>1960</ele>
        <time>2012-05-15T10:34:21Z</time>
      </trkpt>
      <trkpt lat="44.03912" lon="7.20537">
        <ele>1960</ele>
        <time>2012-05-15T10:34:30Z</time>
      </trkpt>
      <trkpt lat="44.0388" lon="7.20596">
        <ele>1960</ele>
        <time>2012-05-15T10:34:42Z</time>
      </trkpt>
      <trkpt lat="44.03868" lon="7.20626">
        <ele>1960</ele>
        <time>2012-05-15T10:34:56Z</time>
      </trkpt>
      <trkpt lat="44.0386" lon="7.20645">
        <ele>1961</ele>
        <time>2012-05-15T10:35:10Z</time>
      </trkpt>
      <trkpt lat="44.03854" lon="7.20663">
        <ele>1962</ele>
        <time>2012-05-15T10:35:26Z</time>
      </trkpt>
      <trkpt lat="44.03852" lon="7.20674">
        <ele>1964</ele>
        <time>2012-05-15T10:35:35Z</time>
      </trkpt>
      <trkpt lat="44.03846" lon="7.20687">
        <ele>1966</ele>
        <time>2012-05-15T10:35:49Z</time>
      </trkpt>
      <trkpt lat="44.03838" lon="7.20708">
        <ele>1966</ele>
        <time>2012-05-15T10:36:02Z</time>
      </trkpt>
      <trkpt lat="44.03834" lon="7.2072">
        <ele>1968</ele>
        <time>2012-05-15T10:36:12Z</time>
      </trkpt>
      <trkpt lat="44.03831" lon="7.20733">
        <ele>1970</ele>
        <time>2012-05-15T10:36:24Z</time>
      </trkpt>
      <trkpt lat="44.03827" lon="7.20751">
        <ele>1971</ele>
        <time>2012-05-15T10:36:33Z</time>
      </trkpt>
      <trkpt lat="44.0382" lon="7.20767">
        <ele>1972</ele>
        <time>2012-05-15T10:36:45Z</time>
      </trkpt>
      <trkpt lat="44.03808" lon="7.20793">
        <ele>1973</ele>
        <time>2012-05-15T10:36:55Z</time>
      </trkpt>
      <trkpt lat="44.03798" lon="7.20814">
        <ele>1974</ele>
        <time>2012-05-15T10:37:05Z</time>
      </trkpt>
      <trkpt lat="44.03787" lon="7.2083">
        <ele>1974</ele>
        <time>2012-05-15T10:37:14Z</time>
      </trkpt>
      <trkpt lat="44.03776" lon="7.2085">
        <ele>1974</ele>
        <time>2012-05-15T10:37:23Z</time>
      </trkpt>
      <trkpt lat="44.03766" lon="7.20868">
        <ele>1975</ele>
        <time>2012-05-15T10:37:32Z</time>
      </trkpt>
      <trkpt lat="44.03754" lon="7.20881">
        <ele>1978</ele>
        <time>2012-05-15T10:37:41Z</time>
      </trkpt>
      <trkpt lat="44.03742" lon="7.20891">
        <ele>1981</ele>
        <time>2012-05-15T10:37:50Z</time>
      </trkpt>
      <trkpt lat="44.03725" lon="7.20892">
        <ele>1984</ele>
        <time>2012-05-15T10:38:00Z</time>
      </trkpt>
      <trkpt lat="44.03709" lon="7.20886">
        <ele>1986</ele>
        <time>2012-05-15T10:38:09Z</time>
      </trkpt>
      <trkpt lat="44.03692" lon="7.20891">
        <ele>1987</ele>
        <time>2012-05-15T10:38:18Z</time>
      </trkpt>
      <trkpt lat="44.03659" lon="7.20904">
        <ele>1987</ele>
        <time>2012-05-15T10:38:27Z</time>
      </trkpt>
      <trkpt lat="44.03627" lon="7.20914">
        <ele>1987</ele>
        <time>2012-05-15T10:38:37Z</time>
      </trkpt>
      <trkpt lat="44.03606" lon="7.20937">
        <ele>1987</ele>
        <time>2012-05-15T10:38:46Z</time>
      </trkpt>
      <trkpt lat="44.03605" lon="7.20956">
        <ele>1987</ele>
        <time>2012-05-15T10:38:55Z</time>
      </trkpt>
      <trkpt lat="44.03598" lon="7.20975">
        <ele>1987</ele>
        <time>2012-05-15T10:39:05Z</time>
      </trkpt>
      <trkpt lat="44.03585" lon="7.20988">
        <ele>1987</ele>
        <time>2012-05-15T10:39:14Z</time>
      </trkpt>
      <trkpt lat="44.03572" lon="7.20996">
        <ele>1990</ele>
        <time>2012-05-15T10:39:23Z</time>
      </trkpt>
      <trkpt lat="44.03564" lon="7.20997">
        <ele>1992</ele>
        <time>2012-05-15T10:39:32Z</time>
      </trkpt>
      <trkpt lat="44.0356" lon="7.20996">
        <ele>1995</ele>
        <time>2012-05-15T10:39:45Z</time>
      </trkpt>
      <trkpt lat="44.03559" lon="7.20994">
        <ele>1998</ele>
        <time>2012-05-15T10:40:15Z</time>
      </trkpt>
      <trkpt lat="44.03559" lon="7.20996">
        <ele>1998</ele>
        <time>2012-05-15T10:40:47Z</time>
      </trkpt>
      <trkpt lat="44.0356" lon="7.20997">
        <ele>1998</ele>
        <time>2012-05-15T10:41:01Z</time>
      </trkpt>
      <trkpt lat="44.03556" lon="7.21002">
        <ele>1998</ele>
        <time>2012-05-15T10:41:10Z</time>
      </trkpt>
      <trkpt lat="44.03549" lon="7.21011">
        <ele>1998</ele>
        <time>2012-05-15T10:41:19Z</time>
      </trkpt>
      <trkpt lat="44.03532" lon="7.21024">
        <ele>1998</ele>
        <time>2012-05-15T10:41:28Z</time>
      </trkpt>
      <trkpt lat="44.03518" lon="7.21029">
        <ele>1998</ele>
        <time>2012-05-15T10:41:37Z</time>
      </trkpt>
      <trkpt lat="44.03503" lon="7.21039">
        <ele>1998</ele>
        <time>2012-05-15T10:41:46Z</time>
      </trkpt>
      <trkpt lat="44.03489" lon="7.21047">
        <ele>1998</ele>
        <time>2012-05-15T10:41:55Z</time>
      </trkpt>
      <trkpt lat="44.03476" lon="7.21055">
        <ele>1999</ele>
        <time>2012-05-15T10:42:04Z</time>
      </trkpt>
      <trkpt lat="44.03462" lon="7.21063">
        <ele>2001</ele>
        <time>2012-05-15T10:42:13Z</time>
      </trkpt>
      <trkpt lat="44.03455" lon="7.21065">
        <ele>2003</ele>
        <time>2012-05-15T10:42:22Z</time>
      </trkpt>
      <trkpt lat="44.03449" lon="7.21067">
        <ele>2004</ele>
        <time>2012-05-15T10:42:31Z</time>
      </trkpt>
      <trkpt lat="44.03441" lon="7.21072">
        <ele>2004</ele>
        <time>2012-05-15T10:42:42Z</time>
      </trkpt>
      <trkpt lat="44.03432" lon="7.21079">
        <ele>2004</ele>
        <time>2012-05-15T10:42:52Z</time>
      </trkpt>
      <trkpt lat="44.03423" lon="7.21084">
        <ele>2005</ele>
        <time>2012-05-15T10:43:02Z</time>
      </trkpt>
      <trkpt lat="44.03415" lon="7.21088">
        <ele>2006</ele>
        <time>2012-05-15T10:43:11Z</time>
      </trkpt>
      <trkpt lat="44.03405" lon="7.21092">
        <ele>2008</ele>
        <time>2012-05-15T10:43:20Z</time>
      </trkpt>
      <trkpt lat="44.03395" lon="7.21097">
        <ele>2008</ele>
        <time>2012-05-15T10:43:29Z</time>
      </trkpt>
      <trkpt lat="44.03387" lon="7.21101">
        <ele>2010</ele>
        <time>2012-05-15T10:43:39Z</time>
      </trkpt>
      <trkpt lat="44.0338" lon="7.21108">
        <ele>2012</ele>
        <time>2012-05-15T10:43:50Z</time>
      </trkpt>
      <trkpt lat="44.03371" lon="7.21114">
        <ele>2013</ele>
        <time>2012-05-15T10:43:59Z</time>
      </trkpt>
      <trkpt lat="44.03355" lon="7.21117">
        <ele>2013</ele>
        <time>2012-05-15T10:44:08Z</time>
      </trkpt>
      <trkpt lat="44.0334" lon="7.21115">
        <ele>2015</ele>
        <time>2012-05-15T10:44:18Z</time>
      </trkpt>
      <trkpt lat="44.03326" lon="7.21108">
        <ele>2016</ele>
        <time>2012-05-15T10:44:27Z</time>
      </trkpt>
      <trkpt lat="44.03313" lon="7.21096">
        <ele>2018</ele>
        <time>2012-05-15T10:44:36Z</time>
      </trkpt>
      <trkpt lat="44.03284" lon="7.21099">
        <ele>2018</ele>
        <time>2012-05-15T10:44:45Z</time>
      </trkpt>
      <trkpt lat="44.03254" lon="7.21119">
        <ele>2018</ele>
        <time>2012-05-15T10:44:54Z</time>
      </trkpt>
      <trkpt lat="44.03243" lon="7.21138">
        <ele>2018</ele>
        <time>2012-05-15T10:45:03Z</time>
      </trkpt>
      <trkpt lat="44.03217" lon="7.21184">
        <ele>2016</ele>
        <time>2012-05-15T10:45:12Z</time>
      </trkpt>
      <trkpt lat="44.03204" lon="7.21237">
        <ele>2007</ele>
        <time>2012-05-15T10:45:21Z</time>
      </trkpt>
      <trkpt lat="44.03212" lon="7.21292">
        <ele>1998</ele>
        <time>2012-05-15T10:45:30Z</time>
      </trkpt>
      <trkpt lat="44.03215" lon="7.21333">
        <ele>1990</ele>
        <time>2012-05-15T10:45:39Z</time>
      </trkpt>
      <trkpt lat="44.03217" lon="7.2139">
        <ele>1981</ele>
        <time>2012-05-15T10:45:48Z</time>
      </trkpt>
      <trkpt lat="44.03212" lon="7.21451">
        <ele>1974</ele>
        <time>2012-05-15T10:45:58Z</time>
      </trkpt>
      <trkpt lat="44.03203" lon="7.21505">
        <ele>1969</ele>
        <time>2012-05-15T10:46:08Z</time>
      </trkpt>
      <trkpt lat="44.03186" lon="7.21536">
        <ele>1964</ele>
        <time>2012-05-15T10:46:17Z</time>
      </trkpt>
      <trkpt lat="44.03161" lon="7.21566">
        <ele>1962</ele>
        <time>2012-05-15T10:46:26Z</time>
      </trkpt>
      <trkpt lat="44.03138" lon="7.21586">
        <ele>1962</ele>
        <time>2012-05-15T10:46:35Z</time>
      </trkpt>
      <trkpt lat="44.031" lon="7.21621">
        <ele>1962</ele>
        <time>2012-05-15T10:46:45Z</time>
      </trkpt>
      <trkpt lat="44.03063" lon="7.21643">
        <ele>1957</ele>
        <time>2012-05-15T10:46:55Z</time>
      </trkpt>
      <trkpt lat="44.03029" lon="7.21663">
        <ele>1950</ele>
        <time>2012-05-15T10:47:04Z</time>
      </trkpt>
      <trkpt lat="44.03017" lon="7.21697">
        <ele>1947</ele>
        <time>2012-05-15T10:47:13Z</time>
      </trkpt>
      <trkpt lat="44.03008" lon="7.21708">
        <ele>1947</ele>
        <time>2012-05-15T10:47:26Z</time>
      </trkpt>
      <trkpt lat="44.02998" lon="7.21715">
        <ele>1947</ele>
        <time>2012-05-15T10:47:35Z</time>
      </trkpt>
      <trkpt lat="44.02989" lon="7.21718">
        <ele>1947</ele>
        <time>2012-05-15T10:47:44Z</time>
      </trkpt>
      <trkpt lat="44.02981" lon="7.21712">
        <ele>1949</ele>
        <time>2012-05-15T10:47:54Z</time>
      </trkpt>
      <trkpt lat="44.0298" lon="7.21713">
        <ele>1950</ele>
        <time>2012-05-15T10:48:03Z</time>
      </trkpt>
      <trkpt lat="44.02979" lon="7.21711">
        <ele>1950</ele>
        <time>2012-05-15T10:48:22Z</time>
      </trkpt>
      <trkpt lat="44.02978" lon="7.21709">
        <ele>1950</ele>
        <time>2012-05-15T10:48:40Z</time>
      </trkpt>
      <trkpt lat="44.02979" lon="7.21711">
        <ele>1950</ele>
        <time>2012-05-15T10:48:56Z</time>
      </trkpt>
      <trkpt lat="44.02977" lon="7.21709">
        <ele>1950</ele>
        <time>2012-05-15T10:49:13Z</time>
      </trkpt>
      <trkpt lat="44.02977" lon="7.21712">
        <ele>1950</ele>
        <time>2012-05-15T10:49:30Z</time>
      </trkpt>
      <trkpt lat="44.02975" lon="7.21718">
        <ele>1950</ele>
        <time>2012-05-15T10:49:39Z</time>
      </trkpt>
      <trkpt lat="44.02968" lon="7.21725">
        <ele>1950</ele>
        <time>2012-05-15T10:49:50Z</time>
      </trkpt>
      <trkpt lat="44.0296" lon="7.21732">
        <ele>1950</ele>
        <time>2012-05-15T10:49:59Z</time>
      </trkpt>
      <trkpt lat="44.02952" lon="7.21742">
        <ele>1950</ele>
        <time>2012-05-15T10:50:09Z</time>
      </trkpt>
      <trkpt lat="44.02945" lon="7.21753">
        <ele>1949</ele>
        <time>2012-05-15T10:50:20Z</time>
      </trkpt>
      <trkpt lat="44.02944" lon="7.2175">
        <ele>1948</ele>
        <time>2012-05-15T10:50:38Z</time>
      </trkpt>
      <trkpt lat="44.02942" lon="7.21747">
        <ele>1948</ele>
        <time>2012-05-15T10:51:00Z</time>
      </trkpt>
      <trkpt lat="44.02943" lon="7.21745">
        <ele>1948</ele>
        <time>2012-05-15T10:51:29Z</time>
      </trkpt>
      <trkpt lat="44.02952" lon="7.21737">
        <ele>1948</ele>
        <time>2012-05-15T10:51:38Z</time>
      </trkpt>
      <trkpt lat="44.02957" lon="7.21735">
        <ele>1948</ele>
        <time>2012-05-15T10:51:51Z</time>
      </trkpt>
      <trkpt lat="44.02943" lon="7.21746">
        <ele>1948</ele>
        <time>2012-05-15T10:52:00Z</time>
      </trkpt>
      <trkpt lat="44.02917" lon="7.21751">
        <ele>1948</ele>
        <time>2012-05-15T10:52:10Z</time>
      </trkpt>
      <trkpt lat="44.0291" lon="7.21748">
        <ele>1948</ele>
        <time>2012-05-15T10:52:20Z</time>
      </trkpt>
      <trkpt lat="44.02903" lon="7.21749">
        <ele>1948</ele>
        <time>2012-05-15T10:52:29Z</time>
      </trkpt>
      <trkpt lat="44.02898" lon="7.21753">
        <ele>1948</ele>
        <time>2012-05-15T10:52:38Z</time>
      </trkpt>
      <trkpt lat="44.02896" lon="7.21757">
        <ele>1948</ele>
        <time>2012-05-15T10:52:49Z</time>
      </trkpt>
      <trkpt lat="44.0289" lon="7.21776">
        <ele>1948</ele>
        <time>2012-05-15T10:52:59Z</time>
      </trkpt>
      <trkpt lat="44.0289" lon="7.21792">
        <ele>1947</ele>
        <time>2012-05-15T10:53:08Z</time>
      </trkpt>
      <trkpt lat="44.02891" lon="7.21802">
        <ele>1946</ele>
        <time>2012-05-15T10:53:17Z</time>
      </trkpt>
      <trkpt lat="44.0289" lon="7.21807">
        <ele>1946</ele>
        <time>2012-05-15T10:53:28Z</time>
      </trkpt>
      <trkpt lat="44.02887" lon="7.21808">
        <ele>1946</ele>
        <time>2012-05-15T10:53:43Z</time>
      </trkpt>
      <trkpt lat="44.0289" lon="7.21806">
        <ele>1946</ele>
        <time>2012-05-15T10:53:53Z</time>
      </trkpt>
      <trkpt lat="44.02889" lon="7.21808">
        <ele>1946</ele>
        <time>2012-05-15T10:54:36Z</time>
      </trkpt>
      <trkpt lat="44.02887" lon="7.21811">
        <ele>1946</ele>
        <time>2012-05-15T10:54:45Z</time>
      </trkpt>
      <trkpt lat="44.02887" lon="7.21809">
        <ele>1946</ele>
        <time>2012-05-15T10:55:03Z</time>
      </trkpt>
      <trkpt lat="44.02887" lon="7.21806">
        <ele>1946</ele>
        <time>2012-05-15T10:55:19Z</time>
      </trkpt>
      <trkpt lat="44.02886" lon="7.21809">
        <ele>1946</ele>
        <time>2012-05-15T10:55:29Z</time>
      </trkpt>
      <trkpt lat="44.02887" lon="7.21808">
        <ele>1947</ele>
        <time>2012-05-15T10:56:21Z</time>
      </trkpt>
      <trkpt lat="44.0289" lon="7.21808">
        <ele>1947</ele>
        <time>2012-05-15T10:56:42Z</time>
      </trkpt>
      <trkpt lat="44.02888" lon="7.21809">
        <ele>1947</ele>
        <time>2012-05-15T10:56:51Z</time>
      </trkpt>
      <trkpt lat="44.02887" lon="7.2181">
        <ele>1947</ele>
        <time>2012-05-15T10:57:26Z</time>
      </trkpt>
      <trkpt lat="44.02882" lon="7.21816">
        <ele>1947</ele>
        <time>2012-05-15T10:57:39Z</time>
      </trkpt>
      <trkpt lat="44.02888" lon="7.21808">
        <ele>1947</ele>
        <time>2012-05-15T10:57:49Z</time>
      </trkpt>
      <trkpt lat="44.02889" lon="7.21806">
        <ele>1947</ele>
        <time>2012-05-15T10:58:03Z</time>
      </trkpt>
      <trkpt lat="44.02863" lon="7.21838">
        <ele>1946</ele>
        <time>2012-05-15T10:58:13Z</time>
      </trkpt>
      <trkpt lat="44.02835" lon="7.21851">
        <ele>1943</ele>
        <time>2012-05-15T10:58:22Z</time>
      </trkpt>
      <trkpt lat="44.02818" lon="7.21867">
        <ele>1943</ele>
        <time>2012-05-15T10:58:31Z</time>
      </trkpt>
      <trkpt lat="44.02819" lon="7.21865">
        <ele>1943</ele>
        <time>2012-05-15T10:58:40Z</time>
      </trkpt>
      <trkpt lat="44.02828" lon="7.21855">
        <ele>1943</ele>
        <time>2012-05-15T10:58:50Z</time>
      </trkpt>
      <trkpt lat="44.02828" lon="7.21855">
        <ele>1943</ele>
        <time>2012-05-15T10:59:42Z</time>
      </trkpt>
      <trkpt lat="44.02823" lon="7.21861">
        <ele>1943</ele>
        <time>2012-05-15T10:59:51Z</time>
      </trkpt>
      <trkpt lat="44.02821" lon="7.21865">
        <ele>1942</ele>
        <time>2012-05-15T11:00:06Z</time>
      </trkpt>
      <trkpt lat="44.0282" lon="7.21866">
        <ele>1941</ele>
        <time>2012-05-15T11:00:25Z</time>
      </trkpt>
      <trkpt lat="44.0282" lon="7.21864">
        <ele>1941</ele>
        <time>2012-05-15T11:00:49Z</time>
      </trkpt>
      <trkpt lat="44.0282" lon="7.21863">
        <ele>1941</ele>
        <time>2012-05-15T11:01:23Z</time>
      </trkpt>
      <trkpt lat="44.02821" lon="7.21864">
        <ele>1941</ele>
        <time>2012-05-15T11:01:32Z</time>
      </trkpt>
      <trkpt lat="44.02823" lon="7.21867">
        <ele>1940</ele>
        <time>2012-05-15T11:01:47Z</time>
      </trkpt>
      <trkpt lat="44.02823" lon="7.21868">
        <ele>1936</ele>
        <time>2012-05-15T11:01:58Z</time>
      </trkpt>
      <trkpt lat="44.02822" lon="7.21867">
        <ele>1936</ele>
        <time>2012-05-15T11:02:27Z</time>
      </trkpt>
      <trkpt lat="44.02821" lon="7.21867">
        <ele>1937</ele>
        <time>2012-05-15T11:02:40Z</time>
      </trkpt>
      <trkpt lat="44.0282" lon="7.21865">
        <ele>1938</ele>
        <time>2012-05-15T11:03:28Z</time>
      </trkpt>
      <trkpt lat="44.02821" lon="7.21865">
        <ele>1938</ele>
        <time>2012-05-15T11:03:44Z</time>
      </trkpt>
      <trkpt lat="44.02822" lon="7.21868">
        <ele>1940</ele>
        <time>2012-05-15T11:04:20Z</time>
      </trkpt>
      <trkpt lat="44.02821" lon="7.21866">
        <ele>1940</ele>
        <time>2012-05-15T11:04:29Z</time>
      </trkpt>
      <trkpt lat="44.0282" lon="7.21865">
        <ele>1940</ele>
        <time>2012-05-15T11:04:55Z</time>
      </trkpt>
      <trkpt lat="44.02821" lon="7.21865">
        <ele>1940</ele>
        <time>2012-05-15T11:05:17Z</time>
      </trkpt>
      <trkpt lat="44.02819" lon="7.21864">
        <ele>1940</ele>
        <time>2012-05-15T11:06:54Z</time>
      </trkpt>
      <trkpt lat="44.02819" lon="7.21867">
        <ele>1940</ele>
        <time>2012-05-15T11:07:12Z</time>
      </trkpt>
      <trkpt lat="44.02822" lon="7.2187">
        <ele>1940</ele>
        <time>2012-05-15T11:07:21Z</time>
      </trkpt>
      <trkpt lat="44.02822" lon="7.21868">
        <ele>1938</ele>
        <time>2012-05-15T11:07:30Z</time>
      </trkpt>
      <trkpt lat="44.02822" lon="7.21866">
        <ele>1938</ele>
        <time>2012-05-15T11:07:47Z</time>
      </trkpt>
      <trkpt lat="44.02821" lon="7.21867">
        <ele>1938</ele>
        <time>2012-05-15T11:07:58Z</time>
      </trkpt>
      <trkpt lat="44.02822" lon="7.21864">
        <ele>1938</ele>
        <time>2012-05-15T11:08:29Z</time>
      </trkpt>
      <trkpt lat="44.02822" lon="7.21866">
        <ele>1938</ele>
        <time>2012-05-15T11:08:41Z</time>
      </trkpt>
      <trkpt lat="44.02822" lon="7.21867">
        <ele>1938</ele>
        <time>2012-05-15T11:09:33Z</time>
      </trkpt>
      <trkpt lat="44.02821" lon="7.21866">
        <ele>1938</ele>
        <time>2012-05-15T11:10:09Z</time>
      </trkpt>
      <trkpt lat="44.0282" lon="7.21866">
        <ele>1938</ele>
        <time>2012-05-15T11:10:21Z</time>
      </trkpt>
      <trkpt lat="44.02818" lon="7.21867">
        <ele>1938</ele>
        <time>2012-05-15T11:10:58Z</time>
      </trkpt>
      <trkpt lat="44.02814" lon="7.21875">
        <ele>1938</ele>
        <time>2012-05-15T11:11:07Z</time>
      </trkpt>
      <trkpt lat="44.02802" lon="7.21912">
        <ele>1938</ele>
        <time>2012-05-15T11:11:16Z</time>
      </trkpt>
      <trkpt lat="44.02779" lon="7.21959">
        <ele>1937</ele>
        <time>2012-05-15T11:11:25Z</time>
      </trkpt>
      <trkpt lat="44.02736" lon="7.22017">
        <ele>1931</ele>
        <time>2012-05-15T11:11:34Z</time>
      </trkpt>
      <trkpt lat="44.02695" lon="7.22077">
        <ele>1929</ele>
        <time>2012-05-15T11:11:43Z</time>
      </trkpt>
      <trkpt lat="44.02682" lon="7.22159">
        <ele>1925</ele>
        <time>2012-05-15T11:11:52Z</time>
      </trkpt>
      <trkpt lat="44.02687" lon="7.22231">
        <ele>1918</ele>
        <time>2012-05-15T11:12:01Z</time>
      </trkpt>
      <trkpt lat="44.02668" lon="7.22284">
        <ele>1915</ele>
        <time>2012-05-15T11:12:10Z</time>
      </trkpt>
      <trkpt lat="44.02644" lon="7.2232">
        <ele>1914</ele>
        <time>2012-05-15T11:12:19Z</time>
      </trkpt>
      <trkpt lat="44.02639" lon="7.22321">
        <ele>1914</ele>
        <time>2012-05-15T11:12:30Z</time>
      </trkpt>
      <trkpt lat="44.02638" lon="7.22323">
        <ele>1914</ele>
        <time>2012-05-15T11:12:46Z</time>
      </trkpt>
      <trkpt lat="44.02632" lon="7.22328">
        <ele>1914</ele>
        <time>2012-05-15T11:12:55Z</time>
      </trkpt>
      <trkpt lat="44.02618" lon="7.22338">
        <ele>1916</ele>
        <time>2012-05-15T11:13:04Z</time>
      </trkpt>
      <trkpt lat="44.02607" lon="7.22345">
        <ele>1919</ele>
        <time>2012-05-15T11:13:13Z</time>
      </trkpt>
      <trkpt lat="44.02595" lon="7.22354">
        <ele>1920</ele>
        <time>2012-05-15T11:13:22Z</time>
      </trkpt>
      <trkpt lat="44.02581" lon="7.2236">
        <ele>1922</ele>
        <time>2012-05-15T11:13:31Z</time>
      </trkpt>
      <trkpt lat="44.02573" lon="7.22368">
        <ele>1923</ele>
        <time>2012-05-15T11:13:40Z</time>
      </trkpt>
      <trkpt lat="44.02564" lon="7.22374">
        <ele>1923</ele>
        <time>2012-05-15T11:13:50Z</time>
      </trkpt>
      <trkpt lat="44.02556" lon="7.22378">
        <ele>1926</ele>
        <time>2012-05-15T11:13:59Z</time>
      </trkpt>
      <trkpt lat="44.02547" lon="7.22384">
        <ele>1927</ele>
        <time>2012-05-15T11:14:08Z</time>
      </trkpt>
      <trkpt lat="44.02537" lon="7.22391">
        <ele>1928</ele>
        <time>2012-05-15T11:14:18Z</time>
      </trkpt>
      <trkpt lat="44.02529" lon="7.224">
        <ele>1929</ele>
        <time>2012-05-15T11:14:28Z</time>
      </trkpt>
      <trkpt lat="44.02521" lon="7.22408">
        <ele>1929</ele>
        <time>2012-05-15T11:14:38Z</time>
      </trkpt>
      <trkpt lat="44.02516" lon="7.22417">
        <ele>1929</ele>
        <time>2012-05-15T11:14:48Z</time>
      </trkpt>
      <trkpt lat="44.02511" lon="7.22423">
        <ele>1929</ele>
        <time>2012-05-15T11:14:57Z</time>
      </trkpt>
      <trkpt lat="44.02505" lon="7.22434">
        <ele>1930</ele>
        <time>2012-05-15T11:15:06Z</time>
      </trkpt>
      <trkpt lat="44.02503" lon="7.22448">
        <ele>1932</ele>
        <time>2012-05-15T11:15:15Z</time>
      </trkpt>
      <trkpt lat="44.02502" lon="7.22466">
        <ele>1933</ele>
        <time>2012-05-15T11:15:24Z</time>
      </trkpt>
      <trkpt lat="44.02503" lon="7.22486">
        <ele>1934</ele>
        <time>2012-05-15T11:15:33Z</time>
      </trkpt>
      <trkpt lat="44.02503" lon="7.22505">
        <ele>1934</ele>
        <time>2012-05-15T11:15:42Z</time>
      </trkpt>
      <trkpt lat="44.02503" lon="7.22518">
        <ele>1935</ele>
        <time>2012-05-15T11:15:51Z</time>
      </trkpt>
      <trkpt lat="44.02501" lon="7.22538">
        <ele>1935</ele>
        <time>2012-05-15T11:16:00Z</time>
      </trkpt>
      <trkpt lat="44.02499" lon="7.22558">
        <ele>1936</ele>
        <time>2012-05-15T11:16:09Z</time>
      </trkpt>
      <trkpt lat="44.02495" lon="7.22576">
        <ele>1939</ele>
        <time>2012-05-15T11:16:18Z</time>
      </trkpt>
      <trkpt lat="44.0249" lon="7.22593">
        <ele>1941</ele>
        <time>2012-05-15T11:16:27Z</time>
      </trkpt>
      <trkpt lat="44.02484" lon="7.22608">
        <ele>1945</ele>
        <time>2012-05-15T11:16:36Z</time>
      </trkpt>
      <trkpt lat="44.02479" lon="7.22622">
        <ele>1947</ele>
        <time>2012-05-15T11:16:45Z</time>
      </trkpt>
      <trkpt lat="44.02474" lon="7.22638">
        <ele>1949</ele>
        <time>2012-05-15T11:16:54Z</time>
      </trkpt>
      <trkpt lat="44.02471" lon="7.22659">
        <ele>1950</ele>
        <time>2012-05-15T11:17:03Z</time>
      </trkpt>
      <trkpt lat="44.02466" lon="7.22684">
        <ele>1951</ele>
        <time>2012-05-15T11:17:12Z</time>
      </trkpt>
      <trkpt lat="44.02459" lon="7.22708">
        <ele>1952</ele>
        <time>2012-05-15T11:17:21Z</time>
      </trkpt>
      <trkpt lat="44.02436" lon="7.22749">
        <ele>1952</ele>
        <time>2012-05-15T11:17:30Z</time>
      </trkpt>
      <trkpt lat="44.02405" lon="7.22788">
        <ele>1952</ele>
        <time>2012-05-15T11:17:39Z</time>
      </trkpt>
      <trkpt lat="44.02392" lon="7.22817">
        <ele>1952</ele>
        <time>2012-05-15T11:17:48Z</time>
      </trkpt>
      <trkpt lat="44.0239" lon="7.22843">
        <ele>1952</ele>
        <time>2012-05-15T11:17:57Z</time>
      </trkpt>
      <trkpt lat="44.02385" lon="7.22867">
        <ele>1953</ele>
        <time>2012-05-15T11:18:06Z</time>
      </trkpt>
      <trkpt lat="44.02374" lon="7.22886">
        <ele>1955</ele>
        <time>2012-05-15T11:18:15Z</time>
      </trkpt>
      <trkpt lat="44.02361" lon="7.22902">
        <ele>1956</ele>
        <time>2012-05-15T11:18:24Z</time>
      </trkpt>
      <trkpt lat="44.02345" lon="7.2292">
        <ele>1958</ele>
        <time>2012-05-15T11:18:33Z</time>
      </trkpt>
      <trkpt lat="44.02317" lon="7.22949">
        <ele>1958</ele>
        <time>2012-05-15T11:18:42Z</time>
      </trkpt>
      <trkpt lat="44.02293" lon="7.23006">
        <ele>1958</ele>
        <time>2012-05-15T11:18:51Z</time>
      </trkpt>
      <trkpt lat="44.02258" lon="7.23055">
        <ele>1958</ele>
        <time>2012-05-15T11:19:00Z</time>
      </trkpt>
      <trkpt lat="44.02247" lon="7.23064">
        <ele>1956</ele>
        <time>2012-05-15T11:19:10Z</time>
      </trkpt>
      <trkpt lat="44.02224" lon="7.23076">
        <ele>1953</ele>
        <time>2012-05-15T11:19:19Z</time>
      </trkpt>
      <trkpt lat="44.02174" lon="7.23098">
        <ele>1949</ele>
        <time>2012-05-15T11:19:28Z</time>
      </trkpt>
      <trkpt lat="44.02145" lon="7.23112">
        <ele>1948</ele>
        <time>2012-05-15T11:19:37Z</time>
      </trkpt>
      <trkpt lat="44.02104" lon="7.23122">
        <ele>1947</ele>
        <time>2012-05-15T11:19:46Z</time>
      </trkpt>
      <trkpt lat="44.0207" lon="7.23139">
        <ele>1943</ele>
        <time>2012-05-15T11:19:55Z</time>
      </trkpt>
      <trkpt lat="44.02029" lon="7.23166">
        <ele>1939</ele>
        <time>2012-05-15T11:20:04Z</time>
      </trkpt>
      <trkpt lat="44.02022" lon="7.23173">
        <ele>1939</ele>
        <time>2012-05-15T11:20:16Z</time>
      </trkpt>
      <trkpt lat="44.02021" lon="7.23173">
        <ele>1939</ele>
        <time>2012-05-15T11:20:32Z</time>
      </trkpt>
      <trkpt lat="44.02022" lon="7.23172">
        <ele>1939</ele>
        <time>2012-05-15T11:20:46Z</time>
      </trkpt>
      <trkpt lat="44.02023" lon="7.23171">
        <ele>1947</ele>
        <time>2012-05-15T11:21:34Z</time>
      </trkpt>
      <trkpt lat="44.02022" lon="7.23172">
        <ele>1940</ele>
        <time>2012-05-15T11:21:55Z</time>
      </trkpt>
      <trkpt lat="44.02016" lon="7.23174">
        <ele>1938</ele>
        <time>2012-05-15T11:22:04Z</time>
      </trkpt>
      <trkpt lat="44.01998" lon="7.23181">
        <ele>1938</ele>
        <time>2012-05-15T11:22:13Z</time>
      </trkpt>
      <trkpt lat="44.0197" lon="7.23183">
        <ele>1938</ele>
        <time>2012-05-15T11:22:22Z</time>
      </trkpt>
      <trkpt lat="44.01944" lon="7.23187">
        <ele>1938</ele>
        <time>2012-05-15T11:22:31Z</time>
      </trkpt>
      <trkpt lat="44.01923" lon="7.23183">
        <ele>1938</ele>
        <time>2012-05-15T11:22:40Z</time>
      </trkpt>
      <trkpt lat="44.01908" lon="7.23184">
        <ele>1938</ele>
        <time>2012-05-15T11:22:49Z</time>
      </trkpt>
      <trkpt lat="44.01896" lon="7.23183">
        <ele>1940</ele>
        <time>2012-05-15T11:22:59Z</time>
      </trkpt>
      <trkpt lat="44.01884" lon="7.23177">
        <ele>1943</ele>
        <time>2012-05-15T11:23:09Z</time>
      </trkpt>
      <trkpt lat="44.01873" lon="7.23172">
        <ele>1946</ele>
        <time>2012-05-15T11:23:18Z</time>
      </trkpt>
      <trkpt lat="44.01867" lon="7.23172">
        <ele>1947</ele>
        <time>2012-05-15T11:23:30Z</time>
      </trkpt>
      <trkpt lat="44.01852" lon="7.23179">
        <ele>1948</ele>
        <time>2012-05-15T11:23:39Z</time>
      </trkpt>
      <trkpt lat="44.01833" lon="7.23185">
        <ele>1948</ele>
        <time>2012-05-15T11:23:48Z</time>
      </trkpt>
      <trkpt lat="44.01815" lon="7.23181">
        <ele>1948</ele>
        <time>2012-05-15T11:23:57Z</time>
      </trkpt>
      <trkpt lat="44.01798" lon="7.2318">
        <ele>1948</ele>
        <time>2012-05-15T11:24:06Z</time>
      </trkpt>
      <trkpt lat="44.01786" lon="7.23173">
        <ele>1948</ele>
        <time>2012-05-15T11:24:15Z</time>
      </trkpt>
      <trkpt lat="44.01774" lon="7.23169">
        <ele>1950</ele>
        <time>2012-05-15T11:24:24Z</time>
      </trkpt>
      <trkpt lat="44.0176" lon="7.23168">
        <ele>1951</ele>
        <time>2012-05-15T11:24:33Z</time>
      </trkpt>
      <trkpt lat="44.01741" lon="7.23171">
        <ele>1953</ele>
        <time>2012-05-15T11:24:42Z</time>
      </trkpt>
      <trkpt lat="44.01712" lon="7.2317">
        <ele>1953</ele>
        <time>2012-05-15T11:24:51Z</time>
      </trkpt>
      <trkpt lat="44.01672" lon="7.23181">
        <ele>1953</ele>
        <time>2012-05-15T11:25:01Z</time>
      </trkpt>
      <trkpt lat="44.01668" lon="7.2318">
        <ele>1953</ele>
        <time>2012-05-15T11:25:12Z</time>
      </trkpt>
      <trkpt lat="44.01671" lon="7.23179">
        <ele>1948</ele>
        <time>2012-05-15T11:25:27Z</time>
      </trkpt>
      <trkpt lat="44.01669" lon="7.23178">
        <ele>1939</ele>
        <time>2012-05-15T11:25:43Z</time>
      </trkpt>
      <trkpt lat="44.01659" lon="7.23164">
        <ele>1937</ele>
        <time>2012-05-15T11:25:52Z</time>
      </trkpt>
      <trkpt lat="44.01634" lon="7.23133">
        <ele>1939</ele>
        <time>2012-05-15T11:26:03Z</time>
      </trkpt>
      <trkpt lat="44.01615" lon="7.23112">
        <ele>1942</ele>
        <time>2012-05-15T11:26:18Z</time>
      </trkpt>
      <trkpt lat="44.01617" lon="7.231">
        <ele>1937</ele>
        <time>2012-05-15T11:26:28Z</time>
      </trkpt>
      <trkpt lat="44.01609" lon="7.23077">
        <ele>1932</ele>
        <time>2012-05-15T11:26:40Z</time>
      </trkpt>
      <trkpt lat="44.01582" lon="7.23037">
        <ele>1925</ele>
        <time>2012-05-15T11:26:54Z</time>
      </trkpt>
      <trkpt lat="44.01583" lon="7.23025">
        <ele>1923</ele>
        <time>2012-05-15T11:27:08Z</time>
      </trkpt>
      <trkpt lat="44.0158" lon="7.22979">
        <ele>1919</ele>
        <time>2012-05-15T11:27:18Z</time>
      </trkpt>
      <trkpt lat="44.01558" lon="7.2296">
        <ele>1919</ele>
        <time>2012-05-15T11:27:27Z</time>
      </trkpt>
      <trkpt lat="44.01527" lon="7.22926">
        <ele>1919</ele>
        <time>2012-05-15T11:27:38Z</time>
      </trkpt>
      <trkpt lat="44.01501" lon="7.22902">
        <ele>1918</ele>
        <time>2012-05-15T11:27:48Z</time>
      </trkpt>
      <trkpt lat="44.015" lon="7.22894">
        <ele>1915</ele>
        <time>2012-05-15T11:28:02Z</time>
      </trkpt>
      <trkpt lat="44.01504" lon="7.22878">
        <ele>1910</ele>
        <time>2012-05-15T11:28:16Z</time>
      </trkpt>
      <trkpt lat="44.01503" lon="7.22823">
        <ele>1902</ele>
        <time>2012-05-15T11:28:29Z</time>
      </trkpt>
      <trkpt lat="44.01496" lon="7.2278">
        <ele>1895</ele>
        <time>2012-05-15T11:28:42Z</time>
      </trkpt>
      <trkpt lat="44.01481" lon="7.22748">
        <ele>1888</ele>
        <time>2012-05-15T11:28:55Z</time>
      </trkpt>
      <trkpt lat="44.0148" lon="7.22749">
        <ele>1883</ele>
        <time>2012-05-15T11:29:04Z</time>
      </trkpt>
      <trkpt lat="44.01485" lon="7.22751">
        <ele>1876</ele>
        <time>2012-05-15T11:29:15Z</time>
      </trkpt>
      <trkpt lat="44.01487" lon="7.22749">
        <ele>1872</ele>
        <time>2012-05-15T11:29:31Z</time>
      </trkpt>
      <trkpt lat="44.01488" lon="7.22745">
        <ele>1874</ele>
        <time>2012-05-15T11:29:44Z</time>
      </trkpt>
      <trkpt lat="44.01489" lon="7.22744">
        <ele>1881</ele>
        <time>2012-05-15T11:30:00Z</time>
      </trkpt>
      <trkpt lat="44.01493" lon="7.22748">
        <ele>1880</ele>
        <time>2012-05-15T11:30:15Z</time>
      </trkpt>
      <trkpt lat="44.01516" lon="7.22767">
        <ele>1875</ele>
        <time>2012-05-15T11:30:24Z</time>
      </trkpt>
      <trkpt lat="44.01541" lon="7.22799">
        <ele>1865</ele>
        <time>2012-05-15T11:30:36Z</time>
      </trkpt>
      <trkpt lat="44.01561" lon="7.2283">
        <ele>1851</ele>
        <time>2012-05-15T11:30:49Z</time>
      </trkpt>
      <trkpt lat="44.01563" lon="7.22848">
        <ele>1844</ele>
        <time>2012-05-15T11:30:58Z</time>
      </trkpt>
      <trkpt lat="44.01567" lon="7.22847">
        <ele>1844</ele>
        <time>2012-05-15T11:31:09Z</time>
      </trkpt>
      <trkpt lat="44.01586" lon="7.22838">
        <ele>1844</ele>
        <time>2012-05-15T11:31:22Z</time>
      </trkpt>
      <trkpt lat="44.01614" lon="7.2284">
        <ele>1836</ele>
        <time>2012-05-15T11:31:34Z</time>
      </trkpt>
      <trkpt lat="44.01617" lon="7.22837">
        <ele>1835</ele>
        <time>2012-05-15T11:31:44Z</time>
      </trkpt>
      <trkpt lat="44.01618" lon="7.22835">
        <ele>1835</ele>
        <time>2012-05-15T11:31:58Z</time>
      </trkpt>
      <trkpt lat="44.01635" lon="7.22838">
        <ele>1833</ele>
        <time>2012-05-15T11:32:15Z</time>
      </trkpt>
      <trkpt lat="44.01616" lon="7.22821">
        <ele>1828</ele>
        <time>2012-05-15T11:32:25Z</time>
      </trkpt>
      <trkpt lat="44.01588" lon="7.22791">
        <ele>1823</ele>
        <time>2012-05-15T11:32:37Z</time>
      </trkpt>
      <trkpt lat="44.01595" lon="7.22752">
        <ele>1817</ele>
        <time>2012-05-15T11:32:46Z</time>
      </trkpt>
      <trkpt lat="44.01589" lon="7.22716">
        <ele>1813</ele>
        <time>2012-05-15T11:32:56Z</time>
      </trkpt>
      <trkpt lat="44.01581" lon="7.22656">
        <ele>1807</ele>
        <time>2012-05-15T11:33:08Z</time>
      </trkpt>
      <trkpt lat="44.01503" lon="7.22604">
        <ele>1798</ele>
        <time>2012-05-15T11:33:22Z</time>
      </trkpt>
      <trkpt lat="44.01463" lon="7.22602">
        <ele>1786</ele>
        <time>2012-05-15T11:33:34Z</time>
      </trkpt>
      <trkpt lat="44.01389" lon="7.22585">
        <ele>1774</ele>
        <time>2012-05-15T11:33:47Z</time>
      </trkpt>
      <trkpt lat="44.01358" lon="7.22598">
        <ele>1760</ele>
        <time>2012-05-15T11:34:03Z</time>
      </trkpt>
      <trkpt lat="44.01355" lon="7.22594">
        <ele>1763</ele>
        <time>2012-05-15T11:34:19Z</time>
      </trkpt>
      <trkpt lat="44.01354" lon="7.22593">
        <ele>1771</ele>
        <time>2012-05-15T11:34:34Z</time>
      </trkpt>
      <trkpt lat="44.01357" lon="7.22597">
        <ele>1781</ele>
        <time>2012-05-15T11:34:52Z</time>
      </trkpt>
      <trkpt lat="44.01345" lon="7.22601">
        <ele>1782</ele>
        <time>2012-05-15T11:35:02Z</time>
      </trkpt>
      <trkpt lat="44.0132" lon="7.22598">
        <ele>1776</ele>
        <time>2012-05-15T11:35:15Z</time>
      </trkpt>
      <trkpt lat="44.01319" lon="7.226">
        <ele>1771</ele>
        <time>2012-05-15T11:35:24Z</time>
      </trkpt>
      <trkpt lat="44.01319" lon="7.22595">
        <ele>1765</ele>
        <time>2012-05-15T11:35:33Z</time>
      </trkpt>
      <trkpt lat="44.01307" lon="7.22579">
        <ele>1759</ele>
        <time>2012-05-15T11:35:43Z</time>
      </trkpt>
      <trkpt lat="44.01297" lon="7.22538">
        <ele>1754</ele>
        <time>2012-05-15T11:35:55Z</time>
      </trkpt>
      <trkpt lat="44.01263" lon="7.22506">
        <ele>1748</ele>
        <time>2012-05-15T11:36:05Z</time>
      </trkpt>
      <trkpt lat="44.01223" lon="7.22508">
        <ele>1745</ele>
        <time>2012-05-15T11:36:17Z</time>
      </trkpt>
      <trkpt lat="44.01196" lon="7.2246">
        <ele>1739</ele>
        <time>2012-05-15T11:36:26Z</time>
      </trkpt>
      <trkpt lat="44.01163" lon="7.22424">
        <ele>1735</ele>
        <time>2012-05-15T11:36:35Z</time>
      </trkpt>
      <trkpt lat="44.01148" lon="7.22405">
        <ele>1731</ele>
        <time>2012-05-15T11:36:49Z</time>
      </trkpt>
      <trkpt lat="44.01156" lon="7.22349">
        <ele>1730</ele>
        <time>2012-05-15T11:37:00Z</time>
      </trkpt>
      <trkpt lat="44.01119" lon="7.22292">
        <ele>1724</ele>
        <time>2012-05-15T11:37:10Z</time>
      </trkpt>
      <trkpt lat="44.01112" lon="7.22239">
        <ele>1721</ele>
        <time>2012-05-15T11:37:22Z</time>
      </trkpt>
      <trkpt lat="44.01071" lon="7.22157">
        <ele>1718</ele>
        <time>2012-05-15T11:37:32Z</time>
      </trkpt>
      <trkpt lat="44.01054" lon="7.22118">
        <ele>1714</ele>
        <time>2012-05-15T11:37:45Z</time>
      </trkpt>
      <trkpt lat="44.01016" lon="7.22151">
        <ele>1707</ele>
        <time>2012-05-15T11:37:55Z</time>
      </trkpt>
      <trkpt lat="44.0101" lon="7.22154">
        <ele>1704</ele>
        <time>2012-05-15T11:38:08Z</time>
      </trkpt>
      <trkpt lat="44.01011" lon="7.22158">
        <ele>1701</ele>
        <time>2012-05-15T11:38:32Z</time>
      </trkpt>
      <trkpt lat="44.0101" lon="7.22158">
        <ele>1699</ele>
        <time>2012-05-15T11:39:00Z</time>
      </trkpt>
      <trkpt lat="44.01009" lon="7.22158">
        <ele>1699</ele>
        <time>2012-05-15T11:39:13Z</time>
      </trkpt>
      <trkpt lat="44.00998" lon="7.22178">
        <ele>1699</ele>
        <time>2012-05-15T11:39:23Z</time>
      </trkpt>
      <trkpt lat="44.00987" lon="7.22192">
        <ele>1699</ele>
        <time>2012-05-15T11:39:35Z</time>
      </trkpt>
      <trkpt lat="44.00964" lon="7.2221">
        <ele>1699</ele>
        <time>2012-05-15T11:39:48Z</time>
      </trkpt>
      <trkpt lat="44.0094" lon="7.22215">
        <ele>1701</ele>
        <time>2012-05-15T11:39:57Z</time>
      </trkpt>
      <trkpt lat="44.0092" lon="7.22229">
        <ele>1704</ele>
        <time>2012-05-15T11:40:09Z</time>
      </trkpt>
      <trkpt lat="44.00892" lon="7.22239">
        <ele>1705</ele>
        <time>2012-05-15T11:40:22Z</time>
      </trkpt>
      <trkpt lat="44.00867" lon="7.2226">
        <ele>1706</ele>
        <time>2012-05-15T11:40:35Z</time>
      </trkpt>
      <trkpt lat="44.00836" lon="7.22264">
        <ele>1708</ele>
        <time>2012-05-15T11:40:45Z</time>
      </trkpt>
      <trkpt lat="44.00811" lon="7.22271">
        <ele>1708</ele>
        <time>2012-05-15T11:40:56Z</time>
      </trkpt>
      <trkpt lat="44.00782" lon="7.22283">
        <ele>1710</ele>
        <time>2012-05-15T11:41:06Z</time>
      </trkpt>
      <trkpt lat="44.00759" lon="7.22299">
        <ele>1712</ele>
        <time>2012-05-15T11:41:17Z</time>
      </trkpt>
      <trkpt lat="44.00736" lon="7.223">
        <ele>1713</ele>
        <time>2012-05-15T11:41:26Z</time>
      </trkpt>
      <trkpt lat="44.00717" lon="7.22279">
        <ele>1713</ele>
        <time>2012-05-15T11:41:38Z</time>
      </trkpt>
      <trkpt lat="44.00689" lon="7.2226">
        <ele>1713</ele>
        <time>2012-05-15T11:41:47Z</time>
      </trkpt>
      <trkpt lat="44.00668" lon="7.22267">
        <ele>1714</ele>
        <time>2012-05-15T11:41:59Z</time>
      </trkpt>
      <trkpt lat="44.0066" lon="7.2227">
        <ele>1717</ele>
        <time>2012-05-15T11:42:09Z</time>
      </trkpt>
      <trkpt lat="44.00656" lon="7.22271">
        <ele>1722</ele>
        <time>2012-05-15T11:42:24Z</time>
      </trkpt>
      <trkpt lat="44.0065" lon="7.22269">
        <ele>1724</ele>
        <time>2012-05-15T11:42:39Z</time>
      </trkpt>
      <trkpt lat="44.00647" lon="7.22263">
        <ele>1728</ele>
        <time>2012-05-15T11:42:49Z</time>
      </trkpt>
      <trkpt lat="44.00649" lon="7.22269">
        <ele>1728</ele>
        <time>2012-05-15T11:42:59Z</time>
      </trkpt>
      <trkpt lat="44.00648" lon="7.22278">
        <ele>1728</ele>
        <time>2012-05-15T11:43:14Z</time>
      </trkpt>
      <trkpt lat="44.00646" lon="7.22273">
        <ele>1728</ele>
        <time>2012-05-15T11:43:26Z</time>
      </trkpt>
      <trkpt lat="44.00644" lon="7.22267">
        <ele>1726</ele>
        <time>2012-05-15T11:43:43Z</time>
      </trkpt>
      <trkpt lat="44.00644" lon="7.22265">
        <ele>1726</ele>
        <time>2012-05-15T11:43:58Z</time>
      </trkpt>
      <trkpt lat="44.00645" lon="7.22265">
        <ele>1726</ele>
        <time>2012-05-15T11:44:10Z</time>
      </trkpt>
      <trkpt lat="44.00647" lon="7.22266">
        <ele>1726</ele>
        <time>2012-05-15T11:44:48Z</time>
      </trkpt>
      <trkpt lat="44.00645" lon="7.22266">
        <ele>1726</ele>
        <time>2012-05-15T11:45:20Z</time>
      </trkpt>
      <trkpt lat="44.00644" lon="7.22267">
        <ele>1726</ele>
        <time>2012-05-15T11:45:44Z</time>
      </trkpt>
      <trkpt lat="44.00645" lon="7.22265">
        <ele>1726</ele>
        <time>2012-05-15T11:46:40Z</time>
      </trkpt>
      <trkpt lat="44.00646" lon="7.22265">
        <ele>1726</ele>
        <time>2012-05-15T11:46:59Z</time>
      </trkpt>
      <trkpt lat="44.00649" lon="7.22267">
        <ele>1726</ele>
        <time>2012-05-15T11:47:13Z</time>
      </trkpt>
      <trkpt lat="44.00654" lon="7.22282">
        <ele>1726</ele>
        <time>2012-05-15T11:47:27Z</time>
      </trkpt>
      <trkpt lat="44.00653" lon="7.22278">
        <ele>1726</ele>
        <time>2012-05-15T11:47:37Z</time>
      </trkpt>
      <trkpt lat="44.00652" lon="7.22275">
        <ele>1726</ele>
        <time>2012-05-15T11:47:58Z</time>
      </trkpt>
      <trkpt lat="44.00648" lon="7.22269">
        <ele>1726</ele>
        <time>2012-05-15T11:48:08Z</time>
      </trkpt>
      <trkpt lat="44.0065" lon="7.22278">
        <ele>1726</ele>
        <time>2012-05-15T11:48:21Z</time>
      </trkpt>
      <trkpt lat="44.00654" lon="7.22282">
        <ele>1726</ele>
        <time>2012-05-15T11:48:30Z</time>
      </trkpt>
      <trkpt lat="44.0065" lon="7.22278">
        <ele>1726</ele>
        <time>2012-05-15T11:48:47Z</time>
      </trkpt>
      <trkpt lat="44.0065" lon="7.22276">
        <ele>1727</ele>
        <time>2012-05-15T11:49:03Z</time>
      </trkpt>
      <trkpt lat="44.00648" lon="7.22267">
        <ele>1725</ele>
        <time>2012-05-15T11:49:13Z</time>
      </trkpt>
      <trkpt lat="44.00657" lon="7.2227">
        <ele>1721</ele>
        <time>2012-05-15T11:49:26Z</time>
      </trkpt>
      <trkpt lat="44.00649" lon="7.22262">
        <ele>1718</ele>
        <time>2012-05-15T11:50:12Z</time>
      </trkpt>
      <trkpt lat="44.00633" lon="7.22255">
        <ele>1718</ele>
        <time>2012-05-15T11:50:24Z</time>
      </trkpt>
      <trkpt lat="44.00594" lon="7.22234">
        <ele>1718</ele>
        <time>2012-05-15T11:50:38Z</time>
      </trkpt>
      <trkpt lat="44.00573" lon="7.22228">
        <ele>1719</ele>
        <time>2012-05-15T11:50:47Z</time>
      </trkpt>
      <trkpt lat="44.00559" lon="7.22206">
        <ele>1723</ele>
        <time>2012-05-15T11:51:00Z</time>
      </trkpt>
      <trkpt lat="44.00549" lon="7.22175">
        <ele>1724</ele>
        <time>2012-05-15T11:51:10Z</time>
      </trkpt>
      <trkpt lat="44.00535" lon="7.22158">
        <ele>1724</ele>
        <time>2012-05-15T11:51:22Z</time>
      </trkpt>
      <trkpt lat="44.0051" lon="7.22146">
        <ele>1724</ele>
        <time>2012-05-15T11:51:31Z</time>
      </trkpt>
      <trkpt lat="44.00494" lon="7.22131">
        <ele>1724</ele>
        <time>2012-05-15T11:51:42Z</time>
      </trkpt>
      <trkpt lat="44.00479" lon="7.22095">
        <ele>1724</ele>
        <time>2012-05-15T11:51:51Z</time>
      </trkpt>
      <trkpt lat="44.00452" lon="7.22072">
        <ele>1726</ele>
        <time>2012-05-15T11:52:04Z</time>
      </trkpt>
      <trkpt lat="44.00427" lon="7.22059">
        <ele>1727</ele>
        <time>2012-05-15T11:52:17Z</time>
      </trkpt>
      <trkpt lat="44.00404" lon="7.22014">
        <ele>1728</ele>
        <time>2012-05-15T11:52:31Z</time>
      </trkpt>
      <trkpt lat="44.00388" lon="7.21999">
        <ele>1729</ele>
        <time>2012-05-15T11:52:40Z</time>
      </trkpt>
      <trkpt lat="44.00369" lon="7.21996">
        <ele>1729</ele>
        <time>2012-05-15T11:52:51Z</time>
      </trkpt>
      <trkpt lat="44.00347" lon="7.22004">
        <ele>1731</ele>
        <time>2012-05-15T11:53:04Z</time>
      </trkpt>
      <trkpt lat="44.00335" lon="7.22005">
        <ele>1731</ele>
        <time>2012-05-15T11:53:14Z</time>
      </trkpt>
      <trkpt lat="44.00335" lon="7.22005">
        <ele>1731</ele>
        <time>2012-05-15T11:53:29Z</time>
      </trkpt>
      <trkpt lat="44.00337" lon="7.22005">
        <ele>1731</ele>
        <time>2012-05-15T11:54:20Z</time>
      </trkpt>
      <trkpt lat="44.00338" lon="7.22004">
        <ele>1731</ele>
        <time>2012-05-15T11:54:35Z</time>
      </trkpt>
      <trkpt lat="44.00337" lon="7.22003">
        <ele>1731</ele>
        <time>2012-05-15T11:55:03Z</time>
      </trkpt>
      <trkpt lat="44.00338" lon="7.22005">
        <ele>1731</ele>
        <time>2012-05-15T11:56:16Z</time>
      </trkpt>
      <trkpt lat="44.00337" lon="7.22008">
        <ele>1731</ele>
        <time>2012-05-15T11:56:30Z</time>
      </trkpt>
      <trkpt lat="44.00333" lon="7.22006">
        <ele>1731</ele>
        <time>2012-05-15T11:56:40Z</time>
      </trkpt>
      <trkpt lat="44.00337" lon="7.22003">
        <ele>1731</ele>
        <time>2012-05-15T11:56:57Z</time>
      </trkpt>
      <trkpt lat="44.00337" lon="7.22002">
        <ele>1731</ele>
        <time>2012-05-15T11:57:12Z</time>
      </trkpt>
      <trkpt lat="44.00338" lon="7.22003">
        <ele>1731</ele>
        <time>2012-05-15T11:57:27Z</time>
      </trkpt>
      <trkpt lat="44.00338" lon="7.22002">
        <ele>1731</ele>
        <time>2012-05-15T11:57:46Z</time>
      </trkpt>
      <trkpt lat="44.00338" lon="7.21999">
        <ele>1732</ele>
        <time>2012-05-15T11:58:02Z</time>
      </trkpt>
      <trkpt lat="44.00337" lon="7.22">
        <ele>1732</ele>
        <time>2012-05-15T11:58:17Z</time>
      </trkpt>
      <trkpt lat="44.00337" lon="7.22002">
        <ele>1732</ele>
        <time>2012-05-15T11:58:26Z</time>
      </trkpt>
      <trkpt lat="44.00338" lon="7.22002">
        <ele>1732</ele>
        <time>2012-05-15T11:59:21Z</time>
      </trkpt>
      <trkpt lat="44.00338" lon="7.22001">
        <ele>1732</ele>
        <time>2012-05-15T11:59:45Z</time>
      </trkpt>
      <trkpt lat="44.00338" lon="7.21999">
        <ele>1732</ele>
        <time>2012-05-15T12:00:26Z</time>
      </trkpt>
      <trkpt lat="44.0034" lon="7.21998">
        <ele>1734</ele>
        <time>2012-05-15T12:00:51Z</time>
      </trkpt>
      <trkpt lat="44.00341" lon="7.22002">
        <ele>1735</ele>
        <time>2012-05-15T12:01:07Z</time>
      </trkpt>
      <trkpt lat="44.00343" lon="7.22005">
        <ele>1736</ele>
        <time>2012-05-15T12:01:17Z</time>
      </trkpt>
      <trkpt lat="44.00341" lon="7.22005">
        <ele>1736</ele>
        <time>2012-05-15T12:01:31Z</time>
      </trkpt>
      <trkpt lat="44.00345" lon="7.22004">
        <ele>1736</ele>
        <time>2012-05-15T12:01:40Z</time>
      </trkpt>
      <trkpt lat="44.0035" lon="7.21993">
        <ele>1736</ele>
        <time>2012-05-15T12:01:50Z</time>
      </trkpt>
      <trkpt lat="44.0035" lon="7.21991">
        <ele>1736</ele>
        <time>2012-05-15T12:02:05Z</time>
      </trkpt>
      <trkpt lat="44.00342" lon="7.22">
        <ele>1735</ele>
        <time>2012-05-15T12:02:18Z</time>
      </trkpt>
      <trkpt lat="44.00336" lon="7.22007">
        <ele>1733</ele>
        <time>2012-05-15T12:02:28Z</time>
      </trkpt>
      <trkpt lat="44.00335" lon="7.22006">
        <ele>1732</ele>
        <time>2012-05-15T12:03:01Z</time>
      </trkpt>
      <trkpt lat="44.00336" lon="7.22002">
        <ele>1732</ele>
        <time>2012-05-15T12:03:17Z</time>
      </trkpt>
      <trkpt lat="44.00337" lon="7.22001">
        <ele>1736</ele>
        <time>2012-05-15T12:04:07Z</time>
      </trkpt>
      <trkpt lat="44.00337" lon="7.21999">
        <ele>1736</ele>
        <time>2012-05-15T12:04:44Z</time>
      </trkpt>
      <trkpt lat="44.0034" lon="7.22001">
        <ele>1738</ele>
        <time>2012-05-15T12:04:53Z</time>
      </trkpt>
      <trkpt lat="44.00339" lon="7.22">
        <ele>1739</ele>
        <time>2012-05-15T12:05:26Z</time>
      </trkpt>
      <trkpt lat="44.00338" lon="7.22002">
        <ele>1739</ele>
        <time>2012-05-15T12:06:35Z</time>
      </trkpt>
      <trkpt lat="44.00337" lon="7.22002">
        <ele>1739</ele>
        <time>2012-05-15T12:07:25Z</time>
      </trkpt>
      <trkpt lat="44.00338" lon="7.22002">
        <ele>1738</ele>
        <time>2012-05-15T12:07:48Z</time>
      </trkpt>
      <trkpt lat="44.00343" lon="7.22">
        <ele>1740</ele>
        <time>2012-05-15T12:08:11Z</time>
      </trkpt>
      <trkpt lat="44.00341" lon="7.22004">
        <ele>1740</ele>
        <time>2012-05-15T12:08:26Z</time>
      </trkpt>
      <trkpt lat="44.00346" lon="7.22008">
        <ele>1739</ele>
        <time>2012-05-15T12:08:35Z</time>
      </trkpt>
      <trkpt lat="44.00351" lon="7.22007">
        <ele>1740</ele>
        <time>2012-05-15T12:08:44Z</time>
      </trkpt>
      <trkpt lat="44.00343" lon="7.22016">
        <ele>1740</ele>
        <time>2012-05-15T12:08:56Z</time>
      </trkpt>
      <trkpt lat="44.00343" lon="7.22009">
        <ele>1744</ele>
        <time>2012-05-15T12:09:18Z</time>
      </trkpt>
      <trkpt lat="44.00337" lon="7.22004">
        <ele>1742</ele>
        <time>2012-05-15T12:09:28Z</time>
      </trkpt>
      <trkpt lat="44.00338" lon="7.22005">
        <ele>1742</ele>
        <time>2012-05-15T12:09:39Z</time>
      </trkpt>
      <trkpt lat="44.00335" lon="7.22004">
        <ele>1742</ele>
        <time>2012-05-15T12:09:53Z</time>
      </trkpt>
      <trkpt lat="44.00336" lon="7.22004">
        <ele>1741</ele>
        <time>2012-05-15T12:10:16Z</time>
      </trkpt>
      <trkpt lat="44.00338" lon="7.22005">
        <ele>1739</ele>
        <time>2012-05-15T12:10:31Z</time>
      </trkpt>
      <trkpt lat="44.00337" lon="7.22005">
        <ele>1738</ele>
        <time>2012-05-15T12:10:40Z</time>
      </trkpt>
      <trkpt lat="44.00338" lon="7.22007">
        <ele>1736</ele>
        <time>2012-05-15T12:10:55Z</time>
      </trkpt>
      <trkpt lat="44.00336" lon="7.22007">
        <ele>1736</ele>
        <time>2012-05-15T12:11:20Z</time>
      </trkpt>
      <trkpt lat="44.00335" lon="7.22009">
        <ele>1736</ele>
        <time>2012-05-15T12:11:34Z</time>
      </trkpt>
      <trkpt lat="44.00335" lon="7.22006">
        <ele>1736</ele>
        <time>2012-05-15T12:11:59Z</time>
      </trkpt>
      <trkpt lat="44.00333" lon="7.21998">
        <ele>1736</ele>
        <time>2012-05-15T12:12:21Z</time>
      </trkpt>
      <trkpt lat="44.00319" lon="7.22001">
        <ele>1736</ele>
        <time>2012-05-15T12:12:35Z</time>
      </trkpt>
      <trkpt lat="44.00279" lon="7.22026">
        <ele>1732</ele>
        <time>2012-05-15T12:12:44Z</time>
      </trkpt>
      <trkpt lat="44.00253" lon="7.22042">
        <ele>1727</ele>
        <time>2012-05-15T12:12:57Z</time>
      </trkpt>
      <trkpt lat="44.00233" lon="7.2207">
        <ele>1721</ele>
        <time>2012-05-15T12:13:06Z</time>
      </trkpt>
      <trkpt lat="44.00225" lon="7.22071">
        <ele>1719</ele>
        <time>2012-05-15T12:13:16Z</time>
      </trkpt>
      <trkpt lat="44.00225" lon="7.22065">
        <ele>1724</ele>
        <time>2012-05-15T12:13:25Z</time>
      </trkpt>
      <trkpt lat="44.00224" lon="7.22068">
        <ele>1731</ele>
        <time>2012-05-15T12:13:40Z</time>
      </trkpt>
      <trkpt lat="44.00227" lon="7.22071">
        <ele>1730</ele>
        <time>2012-05-15T12:13:51Z</time>
      </trkpt>
      <trkpt lat="44.00224" lon="7.22079">
        <ele>1726</ele>
        <time>2012-05-15T12:14:00Z</time>
      </trkpt>
      <trkpt lat="44.00223" lon="7.22091">
        <ele>1719</ele>
        <time>2012-05-15T12:14:14Z</time>
      </trkpt>
      <trkpt lat="44.0022" lon="7.22097">
        <ele>1700</ele>
        <time>2012-05-15T12:14:24Z</time>
      </trkpt>
      <trkpt lat="44.00224" lon="7.22097">
        <ele>1690</ele>
        <time>2012-05-15T12:14:38Z</time>
      </trkpt>
      <trkpt lat="44.00226" lon="7.22093">
        <ele>1683</ele>
        <time>2012-05-15T12:14:47Z</time>
      </trkpt>
      <trkpt lat="44.00225" lon="7.22082">
        <ele>1689</ele>
        <time>2012-05-15T12:15:02Z</time>
      </trkpt>
      <trkpt lat="44.00226" lon="7.22078">
        <ele>1703</ele>
        <time>2012-05-15T12:15:17Z</time>
      </trkpt>
      <trkpt lat="44.00229" lon="7.22072">
        <ele>1715</ele>
        <time>2012-05-15T12:15:33Z</time>
      </trkpt>
      <trkpt lat="44.00232" lon="7.22073">
        <ele>1724</ele>
        <time>2012-05-15T12:15:49Z</time>
      </trkpt>
      <trkpt lat="44.00238" lon="7.22071">
        <ele>1724</ele>
        <time>2012-05-15T12:16:05Z</time>
      </trkpt>
      <trkpt lat="44.00234" lon="7.22067">
        <ele>1722</ele>
        <time>2012-05-15T12:16:19Z</time>
      </trkpt>
      <trkpt lat="44.00229" lon="7.22065">
        <ele>1725</ele>
        <time>2012-05-15T12:16:29Z</time>
      </trkpt>
      <trkpt lat="44.00231" lon="7.22061">
        <ele>1731</ele>
        <time>2012-05-15T12:16:44Z</time>
      </trkpt>
      <trkpt lat="44.00233" lon="7.22064">
        <ele>1732</ele>
        <time>2012-05-15T12:17:00Z</time>
      </trkpt>
      <trkpt lat="44.00233" lon="7.22067">
        <ele>1732</ele>
        <time>2012-05-15T12:17:15Z</time>
      </trkpt>
      <trkpt lat="44.00235" lon="7.22066">
        <ele>1732</ele>
        <time>2012-05-15T12:17:31Z</time>
      </trkpt>
      <trkpt lat="44.00235" lon="7.22063">
        <ele>1736</ele>
        <time>2012-05-15T12:17:41Z</time>
      </trkpt>
      <trkpt lat="44.00235" lon="7.22064">
        <ele>1737</ele>
        <time>2012-05-15T12:17:54Z</time>
      </trkpt>
      <trkpt lat="44.00236" lon="7.22066">
        <ele>1734</ele>
        <time>2012-05-15T12:18:10Z</time>
      </trkpt>
      <trkpt lat="44.00238" lon="7.22071">
        <ele>1733</ele>
        <time>2012-05-15T12:18:19Z</time>
      </trkpt>
      <trkpt lat="44.00231" lon="7.22072">
        <ele>1735</ele>
        <time>2012-05-15T12:18:30Z</time>
      </trkpt>
      <trkpt lat="44.00228" lon="7.22067">
        <ele>1739</ele>
        <time>2012-05-15T12:18:45Z</time>
      </trkpt>
      <trkpt lat="44.0023" lon="7.22071">
        <ele>1737</ele>
        <time>2012-05-15T12:18:54Z</time>
      </trkpt>
      <trkpt lat="44.00236" lon="7.22069">
        <ele>1732</ele>
        <time>2012-05-15T12:19:09Z</time>
      </trkpt>
      <trkpt lat="44.00231" lon="7.22065">
        <ele>1732</ele>
        <time>2012-05-15T12:19:26Z</time>
      </trkpt>
      <trkpt lat="44.0023" lon="7.22066">
        <ele>1732</ele>
        <time>2012-05-15T12:19:42Z</time>
      </trkpt>
      <trkpt lat="44.0023" lon="7.22065">
        <ele>1732</ele>
        <time>2012-05-15T12:19:53Z</time>
      </trkpt>
      <trkpt lat="44.00232" lon="7.22067">
        <ele>1732</ele>
        <time>2012-05-15T12:20:03Z</time>
      </trkpt>
      <trkpt lat="44.00237" lon="7.22069">
        <ele>1732</ele>
        <time>2012-05-15T12:20:16Z</time>
      </trkpt>
      <trkpt lat="44.00234" lon="7.22063">
        <ele>1732</ele>
        <time>2012-05-15T12:20:25Z</time>
      </trkpt>
      <trkpt lat="44.00235" lon="7.2206">
        <ele>1732</ele>
        <time>2012-05-15T12:20:35Z</time>
      </trkpt>
      <trkpt lat="44.00237" lon="7.22063">
        <ele>1734</ele>
        <time>2012-05-15T12:20:59Z</time>
      </trkpt>
      <trkpt lat="44.00229" lon="7.22059">
        <ele>1736</ele>
        <time>2012-05-15T12:21:18Z</time>
      </trkpt>
      <trkpt lat="44.00227" lon="7.22068">
        <ele>1738</ele>
        <time>2012-05-15T12:21:33Z</time>
      </trkpt>
      <trkpt lat="44.0023" lon="7.22073">
        <ele>1734</ele>
        <time>2012-05-15T12:21:49Z</time>
      </trkpt>
      <trkpt lat="44.00233" lon="7.22076">
        <ele>1730</ele>
        <time>2012-05-15T12:21:58Z</time>
      </trkpt>
      <trkpt lat="44.00234" lon="7.22066">
        <ele>1728</ele>
        <time>2012-05-15T12:22:13Z</time>
      </trkpt>
      <trkpt lat="44.00232" lon="7.22065">
        <ele>1732</ele>
        <time>2012-05-15T12:22:25Z</time>
      </trkpt>
      <trkpt lat="44.0023" lon="7.22068">
        <ele>1732</ele>
        <time>2012-05-15T12:22:40Z</time>
      </trkpt>
      <trkpt lat="44.00223" lon="7.22083">
        <ele>1732</ele>
        <time>2012-05-15T12:22:49Z</time>
      </trkpt>
      <trkpt lat="44.00203" lon="7.22129">
        <ele>1728</ele>
        <time>2012-05-15T12:22:59Z</time>
      </trkpt>
      <trkpt lat="44.00199" lon="7.22174">
        <ele>1720</ele>
        <time>2012-05-15T12:23:11Z</time>
      </trkpt>
      <trkpt lat="44.00188" lon="7.22243">
        <ele>1707</ele>
        <time>2012-05-15T12:23:20Z</time>
      </trkpt>
      <trkpt lat="44.00169" lon="7.2227">
        <ele>1705</ele>
        <time>2012-05-15T12:23:33Z</time>
      </trkpt>
      <trkpt lat="44.00169" lon="7.22294">
        <ele>1705</ele>
        <time>2012-05-15T12:23:44Z</time>
      </trkpt>
      <trkpt lat="44.00163" lon="7.22321">
        <ele>1705</ele>
        <time>2012-05-15T12:23:58Z</time>
      </trkpt>
      <trkpt lat="44.00156" lon="7.22345">
        <ele>1707</ele>
        <time>2012-05-15T12:24:07Z</time>
      </trkpt>
      <trkpt lat="44.00158" lon="7.22366">
        <ele>1707</ele>
        <time>2012-05-15T12:24:19Z</time>
      </trkpt>
      <trkpt lat="44.00158" lon="7.22386">
        <ele>1710</ele>
        <time>2012-05-15T12:24:29Z</time>
      </trkpt>
      <trkpt lat="44.0016" lon="7.22406">
        <ele>1716</ele>
        <time>2012-05-15T12:24:45Z</time>
      </trkpt>
      <trkpt lat="44.00159" lon="7.22422">
        <ele>1722</ele>
        <time>2012-05-15T12:24:58Z</time>
      </trkpt>
      <trkpt lat="44.00153" lon="7.22434">
        <ele>1727</ele>
        <time>2012-05-15T12:25:09Z</time>
      </trkpt>
      <trkpt lat="44.00146" lon="7.22447">
        <ele>1730</ele>
        <time>2012-05-15T12:25:22Z</time>
      </trkpt>
      <trkpt lat="44.00145" lon="7.22463">
        <ele>1730</ele>
        <time>2012-05-15T12:25:31Z</time>
      </trkpt>
      <trkpt lat="44.00146" lon="7.22476">
        <ele>1735</ele>
        <time>2012-05-15T12:25:41Z</time>
      </trkpt>
      <trkpt lat="44.0014" lon="7.22483">
        <ele>1736</ele>
        <time>2012-05-15T12:25:51Z</time>
      </trkpt>
      <trkpt lat="44.00134" lon="7.225">
        <ele>1736</ele>
        <time>2012-05-15T12:26:04Z</time>
      </trkpt>
      <trkpt lat="44.00136" lon="7.22518">
        <ele>1736</ele>
        <time>2012-05-15T12:26:13Z</time>
      </trkpt>
      <trkpt lat="44.00138" lon="7.22538">
        <ele>1736</ele>
        <time>2012-05-15T12:26:23Z</time>
      </trkpt>
      <trkpt lat="44.00138" lon="7.22568">
        <ele>1736</ele>
        <time>2012-05-15T12:26:35Z</time>
      </trkpt>
      <trkpt lat="44.00121" lon="7.2264">
        <ele>1736</ele>
        <time>2012-05-15T12:26:48Z</time>
      </trkpt>
      <trkpt lat="44.00087" lon="7.22714">
        <ele>1736</ele>
        <time>2012-05-15T12:27:02Z</time>
      </trkpt>
      <trkpt lat="44.00071" lon="7.22751">
        <ele>1738</ele>
        <time>2012-05-15T12:27:12Z</time>
      </trkpt>
      <trkpt lat="44.00048" lon="7.22782">
        <ele>1738</ele>
        <time>2012-05-15T12:27:25Z</time>
      </trkpt>
      <trkpt lat="44.00053" lon="7.2284">
        <ele>1738</ele>
        <time>2012-05-15T12:27:35Z</time>
      </trkpt>
      <trkpt lat="44.00069" lon="7.22883">
        <ele>1737</ele>
        <time>2012-05-15T12:27:47Z</time>
      </trkpt>
      <trkpt lat="44.0006" lon="7.22943">
        <ele>1737</ele>
        <time>2012-05-15T12:27:56Z</time>
      </trkpt>
      <trkpt lat="44.00009" lon="7.2299">
        <ele>1737</ele>
        <time>2012-05-15T12:28:09Z</time>
      </trkpt>
      <trkpt lat="43.99949" lon="7.2306">
        <ele>1740</ele>
        <time>2012-05-15T12:28:23Z</time>
      </trkpt>
      <trkpt lat="43.99867" lon="7.23148">
        <ele>1738</ele>
        <time>2012-05-15T12:28:36Z</time>
      </trkpt>
      <trkpt lat="43.99863" lon="7.23285">
        <ele>1722</ele>
        <time>2012-05-15T12:28:48Z</time>
      </trkpt>
      <trkpt lat="43.99886" lon="7.23375">
        <ele>1712</ele>
        <time>2012-05-15T12:28:59Z</time>
      </trkpt>
      <trkpt lat="43.99893" lon="7.23409">
        <ele>1705</ele>
        <time>2012-05-15T12:29:14Z</time>
      </trkpt>
      <trkpt lat="43.9989" lon="7.23402">
        <ele>1705</ele>
        <time>2012-05-15T12:29:29Z</time>
      </trkpt>
      <trkpt lat="43.99892" lon="7.234">
        <ele>1705</ele>
        <time>2012-05-15T12:29:42Z</time>
      </trkpt>
      <trkpt lat="43.9989" lon="7.23398">
        <ele>1706</ele>
        <time>2012-05-15T12:29:55Z</time>
      </trkpt>
      <trkpt lat="43.99891" lon="7.23401">
        <ele>1706</ele>
        <time>2012-05-15T12:30:11Z</time>
      </trkpt>
      <trkpt lat="43.99886" lon="7.23403">
        <ele>1709</ele>
        <time>2012-05-15T12:30:25Z</time>
      </trkpt>
      <trkpt lat="43.99888" lon="7.23399">
        <ele>1711</ele>
        <time>2012-05-15T12:30:39Z</time>
      </trkpt>
      <trkpt lat="43.99888" lon="7.23401">
        <ele>1711</ele>
        <time>2012-05-15T12:30:53Z</time>
      </trkpt>
      <trkpt lat="43.99889" lon="7.23406">
        <ele>1711</ele>
        <time>2012-05-15T12:31:07Z</time>
      </trkpt>
      <trkpt lat="43.99889" lon="7.23402">
        <ele>1708</ele>
        <time>2012-05-15T12:31:25Z</time>
      </trkpt>
      <trkpt lat="43.99885" lon="7.23401">
        <ele>1709</ele>
        <time>2012-05-15T12:31:41Z</time>
      </trkpt>
      <trkpt lat="43.99882" lon="7.234">
        <ele>1710</ele>
        <time>2012-05-15T12:31:50Z</time>
      </trkpt>
      <trkpt lat="43.99883" lon="7.23402">
        <ele>1710</ele>
        <time>2012-05-15T12:32:02Z</time>
      </trkpt>
      <trkpt lat="43.99886" lon="7.23401">
        <ele>1710</ele>
        <time>2012-05-15T12:32:12Z</time>
      </trkpt>
      <trkpt lat="43.9988" lon="7.234">
        <ele>1711</ele>
        <time>2012-05-15T12:32:25Z</time>
      </trkpt>
      <trkpt lat="43.99886" lon="7.23397">
        <ele>1711</ele>
        <time>2012-05-15T12:32:34Z</time>
      </trkpt>
      <trkpt lat="43.99886" lon="7.23393">
        <ele>1711</ele>
        <time>2012-05-15T12:32:47Z</time>
      </trkpt>
      <trkpt lat="43.99887" lon="7.23398">
        <ele>1712</ele>
        <time>2012-05-15T12:33:05Z</time>
      </trkpt>
      <trkpt lat="43.99889" lon="7.23399">
        <ele>1712</ele>
        <time>2012-05-15T12:33:17Z</time>
      </trkpt>
      <trkpt lat="43.99887" lon="7.23403">
        <ele>1721</ele>
        <time>2012-05-15T12:33:40Z</time>
      </trkpt>
      <trkpt lat="43.99887" lon="7.23401">
        <ele>1720</ele>
        <time>2012-05-15T12:33:54Z</time>
      </trkpt>
      <trkpt lat="43.99887" lon="7.23399">
        <ele>1715</ele>
        <time>2012-05-15T12:34:26Z</time>
      </trkpt>
      <trkpt lat="43.99893" lon="7.23401">
        <ele>1713</ele>
        <time>2012-05-15T12:34:39Z</time>
      </trkpt>
      <trkpt lat="43.99893" lon="7.23401">
        <ele>1707</ele>
        <time>2012-05-15T12:34:48Z</time>
      </trkpt>
      <trkpt lat="43.99887" lon="7.23399">
        <ele>1704</ele>
        <time>2012-05-15T12:35:04Z</time>
      </trkpt>
      <trkpt lat="43.99888" lon="7.234">
        <ele>1707</ele>
        <time>2012-05-15T12:35:19Z</time>
      </trkpt>
      <trkpt lat="43.99889" lon="7.23401">
        <ele>1707</ele>
        <time>2012-05-15T12:35:33Z</time>
      </trkpt>
      <trkpt lat="43.99892" lon="7.23405">
        <ele>1707</ele>
        <time>2012-05-15T12:35:47Z</time>
      </trkpt>
      <trkpt lat="43.99892" lon="7.23404">
        <ele>1707</ele>
        <time>2012-05-15T12:36:02Z</time>
      </trkpt>
      <trkpt lat="43.99885" lon="7.23397">
        <ele>1707</ele>
        <time>2012-05-15T12:36:16Z</time>
      </trkpt>
      <trkpt lat="43.99883" lon="7.23394">
        <ele>1710</ele>
        <time>2012-05-15T12:36:30Z</time>
      </trkpt>
      <trkpt lat="43.99884" lon="7.234">
        <ele>1711</ele>
        <time>2012-05-15T12:36:55Z</time>
      </trkpt>
      <trkpt lat="43.99884" lon="7.23398">
        <ele>1710</ele>
        <time>2012-05-15T12:37:10Z</time>
      </trkpt>
      <trkpt lat="43.99881" lon="7.23399">
        <ele>1710</ele>
        <time>2012-05-15T12:37:24Z</time>
      </trkpt>
      <trkpt lat="43.99874" lon="7.23399">
        <ele>1714</ele>
        <time>2012-05-15T12:37:38Z</time>
      </trkpt>
      <trkpt lat="43.99874" lon="7.23395">
        <ele>1722</ele>
        <time>2012-05-15T12:37:53Z</time>
      </trkpt>
      <trkpt lat="43.99878" lon="7.23397">
        <ele>1722</ele>
        <time>2012-05-15T12:38:02Z</time>
      </trkpt>
      <trkpt lat="43.99888" lon="7.23399">
        <ele>1722</ele>
        <time>2012-05-15T12:38:14Z</time>
      </trkpt>
      <trkpt lat="43.99888" lon="7.23397">
        <ele>1715</ele>
        <time>2012-05-15T12:38:30Z</time>
      </trkpt>
      <trkpt lat="43.99884" lon="7.23397">
        <ele>1712</ele>
        <time>2012-05-15T12:38:42Z</time>
      </trkpt>
      <trkpt lat="43.99883" lon="7.23398">
        <ele>1712</ele>
        <time>2012-05-15T12:38:58Z</time>
      </trkpt>
      <trkpt lat="43.99883" lon="7.23394">
        <ele>1711</ele>
        <time>2012-05-15T12:39:11Z</time>
      </trkpt>
      <trkpt lat="43.99877" lon="7.23394">
        <ele>1711</ele>
        <time>2012-05-15T12:39:22Z</time>
      </trkpt>
      <trkpt lat="43.99872" lon="7.23387">
        <ele>1714</ele>
        <time>2012-05-15T12:39:33Z</time>
      </trkpt>
      <trkpt lat="43.99878" lon="7.23389">
        <ele>1721</ele>
        <time>2012-05-15T12:39:44Z</time>
      </trkpt>
      <trkpt lat="43.9988" lon="7.23393">
        <ele>1720</ele>
        <time>2012-05-15T12:39:55Z</time>
      </trkpt>
      <trkpt lat="43.99885" lon="7.234">
        <ele>1714</ele>
        <time>2012-05-15T12:40:05Z</time>
      </trkpt>
      <trkpt lat="43.99889" lon="7.23399">
        <ele>1714</ele>
        <time>2012-05-15T12:40:15Z</time>
      </trkpt>
      <trkpt lat="43.99896" lon="7.23402">
        <ele>1714</ele>
        <time>2012-05-15T12:40:27Z</time>
      </trkpt>
      <trkpt lat="43.9989" lon="7.23464">
        <ele>1712</ele>
        <time>2012-05-15T12:40:36Z</time>
      </trkpt>
      <trkpt lat="43.99868" lon="7.23562">
        <ele>1708</ele>
        <time>2012-05-15T12:40:47Z</time>
      </trkpt>
      <trkpt lat="43.99861" lon="7.23611">
        <ele>1701</ele>
        <time>2012-05-15T12:40:56Z</time>
      </trkpt>
      <trkpt lat="43.99862" lon="7.23607">
        <ele>1694</ele>
        <time>2012-05-15T12:41:14Z</time>
      </trkpt>
      <trkpt lat="43.9986" lon="7.23603">
        <ele>1693</ele>
        <time>2012-05-15T12:41:29Z</time>
      </trkpt>
      <trkpt lat="43.99857" lon="7.23604">
        <ele>1696</ele>
        <time>2012-05-15T12:41:41Z</time>
      </trkpt>
      <trkpt lat="43.99856" lon="7.23604">
        <ele>1701</ele>
        <time>2012-05-15T12:41:58Z</time>
      </trkpt>
      <trkpt lat="43.99858" lon="7.23607">
        <ele>1701</ele>
        <time>2012-05-15T12:42:13Z</time>
      </trkpt>
      <trkpt lat="43.99862" lon="7.2361">
        <ele>1695</ele>
        <time>2012-05-15T12:42:26Z</time>
      </trkpt>
      <trkpt lat="43.99865" lon="7.23609">
        <ele>1692</ele>
        <time>2012-05-15T12:42:35Z</time>
      </trkpt>
      <trkpt lat="43.99865" lon="7.23608">
        <ele>1692</ele>
        <time>2012-05-15T12:42:50Z</time>
      </trkpt>
      <trkpt lat="43.99869" lon="7.23612">
        <ele>1690</ele>
        <time>2012-05-15T12:43:14Z</time>
      </trkpt>
      <trkpt lat="43.99873" lon="7.23617">
        <ele>1690</ele>
        <time>2012-05-15T12:43:23Z</time>
      </trkpt>
      <trkpt lat="43.99872" lon="7.23612">
        <ele>1690</ele>
        <time>2012-05-15T12:43:34Z</time>
      </trkpt>
      <trkpt lat="43.99871" lon="7.23611">
        <ele>1690</ele>
        <time>2012-05-15T12:43:48Z</time>
      </trkpt>
      <trkpt lat="43.99869" lon="7.23611">
        <ele>1689</ele>
        <time>2012-05-15T12:43:59Z</time>
      </trkpt>
      <trkpt lat="43.99866" lon="7.23612">
        <ele>1689</ele>
        <time>2012-05-15T12:44:09Z</time>
      </trkpt>
      <trkpt lat="43.99862" lon="7.23609">
        <ele>1690</ele>
        <time>2012-05-15T12:44:40Z</time>
      </trkpt>
      <trkpt lat="43.99864" lon="7.23611">
        <ele>1690</ele>
        <time>2012-05-15T12:45:02Z</time>
      </trkpt>
      <trkpt lat="43.99868" lon="7.2361">
        <ele>1689</ele>
        <time>2012-05-15T12:45:16Z</time>
      </trkpt>
      <trkpt lat="43.99866" lon="7.23608">
        <ele>1688</ele>
        <time>2012-05-15T12:45:28Z</time>
      </trkpt>
      <trkpt lat="43.99862" lon="7.23604">
        <ele>1688</ele>
        <time>2012-05-15T12:45:41Z</time>
      </trkpt>
      <trkpt lat="43.99859" lon="7.23606">
        <ele>1688</ele>
        <time>2012-05-15T12:45:57Z</time>
      </trkpt>
      <trkpt lat="43.99854" lon="7.23598">
        <ele>1688</ele>
        <time>2012-05-15T12:46:07Z</time>
      </trkpt>
      <trkpt lat="43.99847" lon="7.23585">
        <ele>1687</ele>
        <time>2012-05-15T12:46:17Z</time>
      </trkpt>
      <trkpt lat="43.99848" lon="7.23556">
        <ele>1684</ele>
        <time>2012-05-15T12:46:27Z</time>
      </trkpt>
      <trkpt lat="43.99825" lon="7.23556">
        <ele>1679</ele>
        <time>2012-05-15T12:46:37Z</time>
      </trkpt>
      <trkpt lat="43.99801" lon="7.23571">
        <ele>1674</ele>
        <time>2012-05-15T12:46:48Z</time>
      </trkpt>
      <trkpt lat="43.99798" lon="7.23556">
        <ele>1667</ele>
        <time>2012-05-15T12:46:58Z</time>
      </trkpt>
      <trkpt lat="43.99797" lon="7.23539">
        <ele>1664</ele>
        <time>2012-05-15T12:47:07Z</time>
      </trkpt>
      <trkpt lat="43.99775" lon="7.23546">
        <ele>1664</ele>
        <time>2012-05-15T12:47:19Z</time>
      </trkpt>
      <trkpt lat="43.99757" lon="7.23535">
        <ele>1657</ele>
        <time>2012-05-15T12:47:32Z</time>
      </trkpt>
      <trkpt lat="43.99757" lon="7.23517">
        <ele>1651</ele>
        <time>2012-05-15T12:47:41Z</time>
      </trkpt>
      <trkpt lat="43.99745" lon="7.23509">
        <ele>1644</ele>
        <time>2012-05-15T12:47:54Z</time>
      </trkpt>
      <trkpt lat="43.99732" lon="7.23498">
        <ele>1640</ele>
        <time>2012-05-15T12:48:03Z</time>
      </trkpt>
      <trkpt lat="43.99715" lon="7.23487">
        <ele>1638</ele>
        <time>2012-05-15T12:48:15Z</time>
      </trkpt>
      <trkpt lat="43.99686" lon="7.23484">
        <ele>1633</ele>
        <time>2012-05-15T12:48:27Z</time>
      </trkpt>
      <trkpt lat="43.99686" lon="7.23487">
        <ele>1629</ele>
        <time>2012-05-15T12:48:41Z</time>
      </trkpt>
      <trkpt lat="43.99689" lon="7.2349">
        <ele>1629</ele>
        <time>2012-05-15T12:48:56Z</time>
      </trkpt>
      <trkpt lat="43.99688" lon="7.23486">
        <ele>1629</ele>
        <time>2012-05-15T12:49:12Z</time>
      </trkpt>
      <trkpt lat="43.9969" lon="7.23485">
        <ele>1629</ele>
        <time>2012-05-15T12:49:25Z</time>
      </trkpt>
      <trkpt lat="43.9969" lon="7.23486">
        <ele>1628</ele>
        <time>2012-05-15T12:49:48Z</time>
      </trkpt>
      <trkpt lat="43.99689" lon="7.23485">
        <ele>1628</ele>
        <time>2012-05-15T12:50:00Z</time>
      </trkpt>
      <trkpt lat="43.99685" lon="7.23487">
        <ele>1627</ele>
        <time>2012-05-15T12:50:14Z</time>
      </trkpt>
      <trkpt lat="43.99681" lon="7.23486">
        <ele>1631</ele>
        <time>2012-05-15T12:50:31Z</time>
      </trkpt>
      <trkpt lat="43.99683" lon="7.23484">
        <ele>1631</ele>
        <time>2012-05-15T12:50:59Z</time>
      </trkpt>
      <trkpt lat="43.99683" lon="7.23482">
        <ele>1633</ele>
        <time>2012-05-15T12:51:09Z</time>
      </trkpt>
      <trkpt lat="43.99688" lon="7.23486">
        <ele>1636</ele>
        <time>2012-05-15T12:51:22Z</time>
      </trkpt>
      <trkpt lat="43.99685" lon="7.23479">
        <ele>1636</ele>
        <time>2012-05-15T12:51:31Z</time>
      </trkpt>
      <trkpt lat="43.99686" lon="7.2348">
        <ele>1639</ele>
        <time>2012-05-15T12:51:46Z</time>
      </trkpt>
      <trkpt lat="43.99691" lon="7.23481">
        <ele>1639</ele>
        <time>2012-05-15T12:52:07Z</time>
      </trkpt>
      <trkpt lat="43.99694" lon="7.23484">
        <ele>1639</ele>
        <time>2012-05-15T12:52:21Z</time>
      </trkpt>
      <trkpt lat="43.99692" lon="7.23486">
        <ele>1636</ele>
        <time>2012-05-15T12:52:44Z</time>
      </trkpt>
      <trkpt lat="43.99693" lon="7.23487">
        <ele>1636</ele>
        <time>2012-05-15T12:53:05Z</time>
      </trkpt>
      <trkpt lat="43.99692" lon="7.23489">
        <ele>1631</ele>
        <time>2012-05-15T12:53:21Z</time>
      </trkpt>
      <trkpt lat="43.99691" lon="7.23488">
        <ele>1631</ele>
        <time>2012-05-15T12:53:30Z</time>
      </trkpt>
      <trkpt lat="43.99689" lon="7.23487">
        <ele>1630</ele>
        <time>2012-05-15T12:53:42Z</time>
      </trkpt>
      <trkpt lat="43.99688" lon="7.23486">
        <ele>1630</ele>
        <time>2012-05-15T12:53:58Z</time>
      </trkpt>
      <trkpt lat="43.99687" lon="7.23487">
        <ele>1632</ele>
        <time>2012-05-15T12:54:07Z</time>
      </trkpt>
      <trkpt lat="43.99692" lon="7.23486">
        <ele>1636</ele>
        <time>2012-05-15T12:54:19Z</time>
      </trkpt>
      <trkpt lat="43.99695" lon="7.23488">
        <ele>1632</ele>
        <time>2012-05-15T12:54:32Z</time>
      </trkpt>
      <trkpt lat="43.99695" lon="7.23489">
        <ele>1626</ele>
        <time>2012-05-15T12:54:48Z</time>
      </trkpt>
      <trkpt lat="43.99694" lon="7.2349">
        <ele>1626</ele>
        <time>2012-05-15T12:55:01Z</time>
      </trkpt>
      <trkpt lat="43.99691" lon="7.23493">
        <ele>1623</ele>
        <time>2012-05-15T12:55:11Z</time>
      </trkpt>
      <trkpt lat="43.99691" lon="7.23494">
        <ele>1621</ele>
        <time>2012-05-15T12:55:24Z</time>
      </trkpt>
      <trkpt lat="43.99692" lon="7.23495">
        <ele>1619</ele>
        <time>2012-05-15T12:55:46Z</time>
      </trkpt>
      <trkpt lat="43.99696" lon="7.23492">
        <ele>1625</ele>
        <time>2012-05-15T12:56:21Z</time>
      </trkpt>
      <trkpt lat="43.99693" lon="7.23497">
        <ele>1625</ele>
        <time>2012-05-15T12:56:31Z</time>
      </trkpt>
      <trkpt lat="43.99691" lon="7.23497">
        <ele>1625</ele>
        <time>2012-05-15T12:56:50Z</time>
      </trkpt>
      <trkpt lat="43.99691" lon="7.23492">
        <ele>1628</ele>
        <time>2012-05-15T12:57:00Z</time>
      </trkpt>
      <trkpt lat="43.99693" lon="7.23491">
        <ele>1636</ele>
        <time>2012-05-15T12:57:35Z</time>
      </trkpt>
      <trkpt lat="43.99694" lon="7.23491">
        <ele>1636</ele>
        <time>2012-05-15T12:57:51Z</time>
      </trkpt>
      <trkpt lat="43.99693" lon="7.23491">
        <ele>1632</ele>
        <time>2012-05-15T12:58:12Z</time>
      </trkpt>
      <trkpt lat="43.99693" lon="7.23493">
        <ele>1631</ele>
        <time>2012-05-15T12:58:27Z</time>
      </trkpt>
      <trkpt lat="43.99694" lon="7.23494">
        <ele>1631</ele>
        <time>2012-05-15T12:58:42Z</time>
      </trkpt>
      <trkpt lat="43.99693" lon="7.23498">
        <ele>1631</ele>
        <time>2012-05-15T12:58:57Z</time>
      </trkpt>
      <trkpt lat="43.99694" lon="7.23499">
        <ele>1631</ele>
        <time>2012-05-15T12:59:11Z</time>
      </trkpt>
      <trkpt lat="43.99691" lon="7.235">
        <ele>1635</ele>
        <time>2012-05-15T12:59:32Z</time>
      </trkpt>
      <trkpt lat="43.99691" lon="7.23498">
        <ele>1635</ele>
        <time>2012-05-15T12:59:41Z</time>
      </trkpt>
      <trkpt lat="43.99691" lon="7.23493">
        <ele>1635</ele>
        <time>2012-05-15T12:59:53Z</time>
      </trkpt>
      <trkpt lat="43.9969" lon="7.23487">
        <ele>1633</ele>
        <time>2012-05-15T13:00:44Z</time>
      </trkpt>
      <trkpt lat="43.99692" lon="7.23489">
        <ele>1631</ele>
        <time>2012-05-15T13:01:02Z</time>
      </trkpt>
      <trkpt lat="43.99695" lon="7.23487">
        <ele>1630</ele>
        <time>2012-05-15T13:01:15Z</time>
      </trkpt>
      <trkpt lat="43.99692" lon="7.23485">
        <ele>1629</ele>
        <time>2012-05-15T13:01:25Z</time>
      </trkpt>
      <trkpt lat="43.99692" lon="7.23488">
        <ele>1629</ele>
        <time>2012-05-15T13:01:36Z</time>
      </trkpt>
      <trkpt lat="43.99689" lon="7.23492">
        <ele>1629</ele>
        <time>2012-05-15T13:01:48Z</time>
      </trkpt>
      <trkpt lat="43.99689" lon="7.23495">
        <ele>1627</ele>
        <time>2012-05-15T13:02:02Z</time>
      </trkpt>
      <trkpt lat="43.99687" lon="7.23497">
        <ele>1623</ele>
        <time>2012-05-15T13:02:16Z</time>
      </trkpt>
      <trkpt lat="43.99686" lon="7.23496">
        <ele>1623</ele>
        <time>2012-05-15T13:02:27Z</time>
      </trkpt>
      <trkpt lat="43.99688" lon="7.23497">
        <ele>1623</ele>
        <time>2012-05-15T13:02:38Z</time>
      </trkpt>
      <trkpt lat="43.99686" lon="7.23499">
        <ele>1623</ele>
        <time>2012-05-15T13:02:48Z</time>
      </trkpt>
      <trkpt lat="43.99688" lon="7.23496">
        <ele>1623</ele>
        <time>2012-05-15T13:03:02Z</time>
      </trkpt>
      <trkpt lat="43.99694" lon="7.23492">
        <ele>1623</ele>
        <time>2012-05-15T13:03:11Z</time>
      </trkpt>
      <trkpt lat="43.99695" lon="7.23489">
        <ele>1627</ele>
        <time>2012-05-15T13:03:36Z</time>
      </trkpt>
      <trkpt lat="43.99697" lon="7.23487">
        <ele>1627</ele>
        <time>2012-05-15T13:03:57Z</time>
      </trkpt>
      <trkpt lat="43.99694" lon="7.23487">
        <ele>1626</ele>
        <time>2012-05-15T13:04:13Z</time>
      </trkpt>
      <trkpt lat="43.99696" lon="7.2349">
        <ele>1623</ele>
        <time>2012-05-15T13:04:28Z</time>
      </trkpt>
      <trkpt lat="43.99695" lon="7.23488">
        <ele>1623</ele>
        <time>2012-05-15T13:04:44Z</time>
      </trkpt>
      <trkpt lat="43.99696" lon="7.23489">
        <ele>1624</ele>
        <time>2012-05-15T13:05:25Z</time>
      </trkpt>
      <trkpt lat="43.99694" lon="7.23488">
        <ele>1624</ele>
        <time>2012-05-15T13:05:44Z</time>
      </trkpt>
      <trkpt lat="43.9969" lon="7.23484">
        <ele>1624</ele>
        <time>2012-05-15T13:06:00Z</time>
      </trkpt>
      <trkpt lat="43.99693" lon="7.23487">
        <ele>1624</ele>
        <time>2012-05-15T13:06:30Z</time>
      </trkpt>
      <trkpt lat="43.99693" lon="7.23487">
        <ele>1624</ele>
        <time>2012-05-15T13:07:28Z</time>
      </trkpt>
      <trkpt lat="43.99695" lon="7.2349">
        <ele>1624</ele>
        <time>2012-05-15T13:07:42Z</time>
      </trkpt>
      <trkpt lat="43.99694" lon="7.23488">
        <ele>1624</ele>
        <time>2012-05-15T13:07:57Z</time>
      </trkpt>
      <trkpt lat="43.99693" lon="7.23489">
        <ele>1624</ele>
        <time>2012-05-15T13:08:10Z</time>
      </trkpt>
      <trkpt lat="43.99694" lon="7.23491">
        <ele>1624</ele>
        <time>2012-05-15T13:08:20Z</time>
      </trkpt>
      <trkpt lat="43.99694" lon="7.23491">
        <ele>1621</ele>
        <time>2012-05-15T13:08:33Z</time>
      </trkpt>
      <trkpt lat="43.99693" lon="7.2349">
        <ele>1621</ele>
        <time>2012-05-15T13:08:47Z</time>
      </trkpt>
      <trkpt lat="43.99693" lon="7.2349">
        <ele>1618</ele>
        <time>2012-05-15T13:09:10Z</time>
      </trkpt>
      <trkpt lat="43.99693" lon="7.23489">
        <ele>1618</ele>
        <time>2012-05-15T13:09:20Z</time>
      </trkpt>
      <trkpt lat="43.9969" lon="7.23486">
        <ele>1618</ele>
        <time>2012-05-15T13:09:34Z</time>
      </trkpt>
      <trkpt lat="43.99689" lon="7.23485">
        <ele>1618</ele>
        <time>2012-05-15T13:09:58Z</time>
      </trkpt>
      <trkpt lat="43.99691" lon="7.23485">
        <ele>1618</ele>
        <time>2012-05-15T13:10:12Z</time>
      </trkpt>
      <trkpt lat="43.99692" lon="7.23486">
        <ele>1616</ele>
        <time>2012-05-15T13:10:28Z</time>
      </trkpt>
      <trkpt lat="43.99689" lon="7.23482">
        <ele>1616</ele>
        <time>2012-05-15T13:10:41Z</time>
      </trkpt>
      <trkpt lat="43.99689" lon="7.23485">
        <ele>1620</ele>
        <time>2012-05-15T13:10:56Z</time>
      </trkpt>
      <trkpt lat="43.99695" lon="7.23487">
        <ele>1621</ele>
        <time>2012-05-15T13:11:12Z</time>
      </trkpt>
      <trkpt lat="43.99693" lon="7.23488">
        <ele>1621</ele>
        <time>2012-05-15T13:11:24Z</time>
      </trkpt>
      <trkpt lat="43.99691" lon="7.2349">
        <ele>1626</ele>
        <time>2012-05-15T13:11:35Z</time>
      </trkpt>
      <trkpt lat="43.99691" lon="7.23491">
        <ele>1629</ele>
        <time>2012-05-15T13:11:55Z</time>
      </trkpt>
      <trkpt lat="43.99691" lon="7.2349">
        <ele>1629</ele>
        <time>2012-05-15T13:12:09Z</time>
      </trkpt>
      <trkpt lat="43.99694" lon="7.23488">
        <ele>1629</ele>
        <time>2012-05-15T13:12:24Z</time>
      </trkpt>
      <trkpt lat="43.99696" lon="7.23482">
        <ele>1627</ele>
        <time>2012-05-15T13:12:38Z</time>
      </trkpt>
      <trkpt lat="43.99693" lon="7.23484">
        <ele>1626</ele>
        <time>2012-05-15T13:12:52Z</time>
      </trkpt>
      <trkpt lat="43.99693" lon="7.23484">
        <ele>1625</ele>
        <time>2012-05-15T13:13:08Z</time>
      </trkpt>
      <trkpt lat="43.99693" lon="7.23485">
        <ele>1618</ele>
        <time>2012-05-15T13:13:29Z</time>
      </trkpt>
      <trkpt lat="43.99694" lon="7.23488">
        <ele>1618</ele>
        <time>2012-05-15T13:13:43Z</time>
      </trkpt>
      <trkpt lat="43.99696" lon="7.2349">
        <ele>1618</ele>
        <time>2012-05-15T13:14:00Z</time>
      </trkpt>
      <trkpt lat="43.99694" lon="7.23491">
        <ele>1618</ele>
        <time>2012-05-15T13:14:23Z</time>
      </trkpt>
      <trkpt lat="43.99692" lon="7.2349">
        <ele>1618</ele>
        <time>2012-05-15T13:14:36Z</time>
      </trkpt>
      <trkpt lat="43.99686" lon="7.23481">
        <ele>1618</ele>
        <time>2012-05-15T13:14:49Z</time>
      </trkpt>
      <trkpt lat="43.99675" lon="7.2347">
        <ele>1616</ele>
        <time>2012-05-15T13:15:03Z</time>
      </trkpt>
      <trkpt lat="43.99655" lon="7.23461">
        <ele>1614</ele>
        <time>2012-05-15T13:15:16Z</time>
      </trkpt>
      <trkpt lat="43.99638" lon="7.23455">
        <ele>1612</ele>
        <time>2012-05-15T13:15:26Z</time>
      </trkpt>
      <trkpt lat="43.99634" lon="7.23431">
        <ele>1611</ele>
        <time>2012-05-15T13:15:40Z</time>
      </trkpt>
      <trkpt lat="43.99625" lon="7.2342">
        <ele>1610</ele>
        <time>2012-05-15T13:15:49Z</time>
      </trkpt>
      <trkpt lat="43.99589" lon="7.2342">
        <ele>1604</ele>
        <time>2012-05-15T13:15:59Z</time>
      </trkpt>
      <trkpt lat="43.99562" lon="7.23427">
        <ele>1590</ele>
        <time>2012-05-15T13:16:12Z</time>
      </trkpt>
      <trkpt lat="43.99565" lon="7.23425">
        <ele>1584</ele>
        <time>2012-05-15T13:16:22Z</time>
      </trkpt>
      <trkpt lat="43.99566" lon="7.23425">
        <ele>1583</ele>
        <time>2012-05-15T13:16:35Z</time>
      </trkpt>
      <trkpt lat="43.99562" lon="7.23427">
        <ele>1583</ele>
        <time>2012-05-15T13:16:44Z</time>
      </trkpt>
      <trkpt lat="43.99559" lon="7.23433">
        <ele>1583</ele>
        <time>2012-05-15T13:16:56Z</time>
      </trkpt>
      <trkpt lat="43.99557" lon="7.23389">
        <ele>1581</ele>
        <time>2012-05-15T13:17:05Z</time>
      </trkpt>
      <trkpt lat="43.99517" lon="7.23363">
        <ele>1581</ele>
        <time>2012-05-15T13:17:16Z</time>
      </trkpt>
      <trkpt lat="43.99479" lon="7.23339">
        <ele>1573</ele>
        <time>2012-05-15T13:17:29Z</time>
      </trkpt>
      <trkpt lat="43.99437" lon="7.23321">
        <ele>1569</ele>
        <time>2012-05-15T13:17:40Z</time>
      </trkpt>
      <trkpt lat="43.99428" lon="7.23309">
        <ele>1563</ele>
        <time>2012-05-15T13:17:49Z</time>
      </trkpt>
      <trkpt lat="43.99408" lon="7.2329">
        <ele>1555</ele>
        <time>2012-05-15T13:18:03Z</time>
      </trkpt>
      <trkpt lat="43.9938" lon="7.2327">
        <ele>1546</ele>
        <time>2012-05-15T13:18:12Z</time>
      </trkpt>
      <trkpt lat="43.99361" lon="7.23252">
        <ele>1537</ele>
        <time>2012-05-15T13:18:23Z</time>
      </trkpt>
      <trkpt lat="43.99329" lon="7.23216">
        <ele>1524</ele>
        <time>2012-05-15T13:18:37Z</time>
      </trkpt>
      <trkpt lat="43.99324" lon="7.23214">
        <ele>1523</ele>
        <time>2012-05-15T13:18:47Z</time>
      </trkpt>
      <trkpt lat="43.99294" lon="7.23195">
        <ele>1523</ele>
        <time>2012-05-15T13:18:59Z</time>
      </trkpt>
      <trkpt lat="43.99274" lon="7.23189">
        <ele>1523</ele>
        <time>2012-05-15T13:19:11Z</time>
      </trkpt>
      <trkpt lat="43.99251" lon="7.23187">
        <ele>1520</ele>
        <time>2012-05-15T13:19:23Z</time>
      </trkpt>
      <trkpt lat="43.99208" lon="7.23169">
        <ele>1511</ele>
        <time>2012-05-15T13:19:32Z</time>
      </trkpt>
      <trkpt lat="43.99196" lon="7.23155">
        <ele>1507</ele>
        <time>2012-05-15T13:19:42Z</time>
      </trkpt>
      <trkpt lat="43.99192" lon="7.23159">
        <ele>1501</ele>
        <time>2012-05-15T13:19:52Z</time>
      </trkpt>
      <trkpt lat="43.99185" lon="7.23165">
        <ele>1496</ele>
        <time>2012-05-15T13:20:06Z</time>
      </trkpt>
      <trkpt lat="43.99158" lon="7.2317">
        <ele>1491</ele>
        <time>2012-05-15T13:20:18Z</time>
      </trkpt>
      <trkpt lat="43.99108" lon="7.23184">
        <ele>1491</ele>
        <time>2012-05-15T13:20:32Z</time>
      </trkpt>
      <trkpt lat="43.99052" lon="7.2319">
        <ele>1488</ele>
        <time>2012-05-15T13:20:41Z</time>
      </trkpt>
      <trkpt lat="43.99037" lon="7.2317">
        <ele>1482</ele>
        <time>2012-05-15T13:20:54Z</time>
      </trkpt>
      <trkpt lat="43.99034" lon="7.23175">
        <ele>1475</ele>
        <time>2012-05-15T13:21:04Z</time>
      </trkpt>
      <trkpt lat="43.99038" lon="7.23173">
        <ele>1468</ele>
        <time>2012-05-15T13:21:33Z</time>
      </trkpt>
      <trkpt lat="43.99038" lon="7.2317">
        <ele>1466</ele>
        <time>2012-05-15T13:21:46Z</time>
      </trkpt>
      <trkpt lat="43.99038" lon="7.23164">
        <ele>1466</ele>
        <time>2012-05-15T13:21:56Z</time>
      </trkpt>
      <trkpt lat="43.99043" lon="7.23157">
        <ele>1466</ele>
        <time>2012-05-15T13:22:10Z</time>
      </trkpt>
      <trkpt lat="43.99047" lon="7.23158">
        <ele>1462</ele>
        <time>2012-05-15T13:22:27Z</time>
      </trkpt>
      <trkpt lat="43.99047" lon="7.23158">
        <ele>1461</ele>
        <time>2012-05-15T13:22:39Z</time>
      </trkpt>
      <trkpt lat="43.99047" lon="7.2316">
        <ele>1461</ele>
        <time>2012-05-15T13:22:49Z</time>
      </trkpt>
      <trkpt lat="43.99048" lon="7.23161">
        <ele>1465</ele>
        <time>2012-05-15T13:23:07Z</time>
      </trkpt>
      <trkpt lat="43.99047" lon="7.23158">
        <ele>1465</ele>
        <time>2012-05-15T13:23:21Z</time>
      </trkpt>
      <trkpt lat="43.9904" lon="7.23172">
        <ele>1466</ele>
        <time>2012-05-15T13:23:32Z</time>
      </trkpt>
      <trkpt lat="43.99038" lon="7.23172">
        <ele>1467</ele>
        <time>2012-05-15T13:23:44Z</time>
      </trkpt>
      <trkpt lat="43.99041" lon="7.23163">
        <ele>1467</ele>
        <time>2012-05-15T13:23:53Z</time>
      </trkpt>
      <trkpt lat="43.99028" lon="7.23164">
        <ele>1465</ele>
        <time>2012-05-15T13:24:05Z</time>
      </trkpt>
      <trkpt lat="43.99021" lon="7.23151">
        <ele>1459</ele>
        <time>2012-05-15T13:24:18Z</time>
      </trkpt>
      <trkpt lat="43.99005" lon="7.23141">
        <ele>1451</ele>
        <time>2012-05-15T13:24:28Z</time>
      </trkpt>
      <trkpt lat="43.98976" lon="7.23139">
        <ele>1445</ele>
        <time>2012-05-15T13:24:38Z</time>
      </trkpt>
      <trkpt lat="43.98955" lon="7.23144">
        <ele>1437</ele>
        <time>2012-05-15T13:24:52Z</time>
      </trkpt>
      <trkpt lat="43.98949" lon="7.23148">
        <ele>1433</ele>
        <time>2012-05-15T13:25:02Z</time>
      </trkpt>
      <trkpt lat="43.98939" lon="7.23153">
        <ele>1433</ele>
        <time>2012-05-15T13:25:11Z</time>
      </trkpt>
      <trkpt lat="43.98904" lon="7.23167">
        <ele>1433</ele>
        <time>2012-05-15T13:25:24Z</time>
      </trkpt>
      <trkpt lat="43.98876" lon="7.23164">
        <ele>1427</ele>
        <time>2012-05-15T13:25:33Z</time>
      </trkpt>
      <trkpt lat="43.98852" lon="7.2317">
        <ele>1420</ele>
        <time>2012-05-15T13:25:44Z</time>
      </trkpt>
      <trkpt lat="43.98843" lon="7.23159">
        <ele>1414</ele>
        <time>2012-05-15T13:25:54Z</time>
      </trkpt>
      <trkpt lat="43.98828" lon="7.23168">
        <ele>1409</ele>
        <time>2012-05-15T13:26:03Z</time>
      </trkpt>
      <trkpt lat="43.98816" lon="7.23166">
        <ele>1404</ele>
        <time>2012-05-15T13:26:16Z</time>
      </trkpt>
      <trkpt lat="43.98796" lon="7.23158">
        <ele>1396</ele>
        <time>2012-05-15T13:26:31Z</time>
      </trkpt>
      <trkpt lat="43.98793" lon="7.23157">
        <ele>1395</ele>
        <time>2012-05-15T13:26:43Z</time>
      </trkpt>
      <trkpt lat="43.98795" lon="7.23152">
        <ele>1395</ele>
        <time>2012-05-15T13:26:55Z</time>
      </trkpt>
      <trkpt lat="43.98795" lon="7.23146">
        <ele>1395</ele>
        <time>2012-05-15T13:27:07Z</time>
      </trkpt>
      <trkpt lat="43.98792" lon="7.23142">
        <ele>1393</ele>
        <time>2012-05-15T13:27:18Z</time>
      </trkpt>
      <trkpt lat="43.98795" lon="7.23135">
        <ele>1389</ele>
        <time>2012-05-15T13:27:30Z</time>
      </trkpt>
      <trkpt lat="43.98783" lon="7.23141">
        <ele>1385</ele>
        <time>2012-05-15T13:27:39Z</time>
      </trkpt>
      <trkpt lat="43.98764" lon="7.23154">
        <ele>1381</ele>
        <time>2012-05-15T13:27:52Z</time>
      </trkpt>
      <trkpt lat="43.98727" lon="7.23178">
        <ele>1378</ele>
        <time>2012-05-15T13:28:01Z</time>
      </trkpt>
      <trkpt lat="43.98703" lon="7.23194">
        <ele>1375</ele>
        <time>2012-05-15T13:28:12Z</time>
      </trkpt>
      <trkpt lat="43.98675" lon="7.23207">
        <ele>1367</ele>
        <time>2012-05-15T13:28:25Z</time>
      </trkpt>
      <trkpt lat="43.98625" lon="7.23224">
        <ele>1358</ele>
        <time>2012-05-15T13:28:36Z</time>
      </trkpt>
      <trkpt lat="43.98594" lon="7.23239">
        <ele>1352</ele>
        <time>2012-05-15T13:28:47Z</time>
      </trkpt>
      <trkpt lat="43.9858" lon="7.23249">
        <ele>1352</ele>
        <time>2012-05-15T13:28:56Z</time>
      </trkpt>
      <trkpt lat="43.9857" lon="7.23263">
        <ele>1352</ele>
        <time>2012-05-15T13:29:11Z</time>
      </trkpt>
      <trkpt lat="43.98571" lon="7.23257">
        <ele>1352</ele>
        <time>2012-05-15T13:29:24Z</time>
      </trkpt>
      <trkpt lat="43.98571" lon="7.23257">
        <ele>1352</ele>
        <time>2012-05-15T13:29:39Z</time>
      </trkpt>
      <trkpt lat="43.98575" lon="7.23259">
        <ele>1353</ele>
        <time>2012-05-15T13:29:54Z</time>
      </trkpt>
      <trkpt lat="43.98574" lon="7.2326">
        <ele>1353</ele>
        <time>2012-05-15T13:30:03Z</time>
      </trkpt>
      <trkpt lat="43.98571" lon="7.23259">
        <ele>1353</ele>
        <time>2012-05-15T13:30:16Z</time>
      </trkpt>
      <trkpt lat="43.98575" lon="7.23257">
        <ele>1353</ele>
        <time>2012-05-15T13:30:31Z</time>
      </trkpt>
      <trkpt lat="43.98574" lon="7.23256">
        <ele>1355</ele>
        <time>2012-05-15T13:31:04Z</time>
      </trkpt>
      <trkpt lat="43.98576" lon="7.23254">
        <ele>1355</ele>
        <time>2012-05-15T13:31:20Z</time>
      </trkpt>
      <trkpt lat="43.98575" lon="7.23256">
        <ele>1355</ele>
        <time>2012-05-15T13:31:31Z</time>
      </trkpt>
      <trkpt lat="43.98573" lon="7.23256">
        <ele>1357</ele>
        <time>2012-05-15T13:31:44Z</time>
      </trkpt>
      <trkpt lat="43.98571" lon="7.23258">
        <ele>1359</ele>
        <time>2012-05-15T13:31:53Z</time>
      </trkpt>
      <trkpt lat="43.98573" lon="7.2326">
        <ele>1359</ele>
        <time>2012-05-15T13:32:04Z</time>
      </trkpt>
      <trkpt lat="43.98573" lon="7.23263">
        <ele>1359</ele>
        <time>2012-05-15T13:32:13Z</time>
      </trkpt>
      <trkpt lat="43.98573" lon="7.23265">
        <ele>1359</ele>
        <time>2012-05-15T13:32:23Z</time>
      </trkpt>
      <trkpt lat="43.98572" lon="7.23265">
        <ele>1357</ele>
        <time>2012-05-15T13:32:32Z</time>
      </trkpt>
      <trkpt lat="43.98568" lon="7.23269">
        <ele>1355</ele>
        <time>2012-05-15T13:32:46Z</time>
      </trkpt>
      <trkpt lat="43.98547" lon="7.23297">
        <ele>1355</ele>
        <time>2012-05-15T13:32:55Z</time>
      </trkpt>
      <trkpt lat="43.9853" lon="7.2333">
        <ele>1359</ele>
        <time>2012-05-15T13:33:04Z</time>
      </trkpt>
      <trkpt lat="43.9851" lon="7.23349">
        <ele>1363</ele>
        <time>2012-05-15T13:33:13Z</time>
      </trkpt>
      <trkpt lat="43.98492" lon="7.23362">
        <ele>1365</ele>
        <time>2012-05-15T13:33:22Z</time>
      </trkpt>
      <trkpt lat="43.98479" lon="7.23375">
        <ele>1365</ele>
        <time>2012-05-15T13:33:31Z</time>
      </trkpt>
      <trkpt lat="43.98468" lon="7.23386">
        <ele>1365</ele>
        <time>2012-05-15T13:33:40Z</time>
      </trkpt>
      <trkpt lat="43.98459" lon="7.23396">
        <ele>1365</ele>
        <time>2012-05-15T13:33:49Z</time>
      </trkpt>
      <trkpt lat="43.98455" lon="7.23405">
        <ele>1367</ele>
        <time>2012-05-15T13:33:58Z</time>
      </trkpt>
      <trkpt lat="43.98453" lon="7.23413">
        <ele>1373</ele>
        <time>2012-05-15T13:34:08Z</time>
      </trkpt>
      <trkpt lat="43.98447" lon="7.23417">
        <ele>1377</ele>
        <time>2012-05-15T13:34:17Z</time>
      </trkpt>
      <trkpt lat="43.98445" lon="7.23427">
        <ele>1378</ele>
        <time>2012-05-15T13:34:26Z</time>
      </trkpt>
      <trkpt lat="43.98439" lon="7.2344">
        <ele>1378</ele>
        <time>2012-05-15T13:34:35Z</time>
      </trkpt>
      <trkpt lat="43.98434" lon="7.23452">
        <ele>1378</ele>
        <time>2012-05-15T13:34:44Z</time>
      </trkpt>
      <trkpt lat="43.98424" lon="7.23464">
        <ele>1378</ele>
        <time>2012-05-15T13:34:53Z</time>
      </trkpt>
      <trkpt lat="43.98412" lon="7.23474">
        <ele>1378</ele>
        <time>2012-05-15T13:35:02Z</time>
      </trkpt>
      <trkpt lat="43.98397" lon="7.23486">
        <ele>1378</ele>
        <time>2012-05-15T13:35:11Z</time>
      </trkpt>
      <trkpt lat="43.98375" lon="7.23498">
        <ele>1381</ele>
        <time>2012-05-15T13:35:20Z</time>
      </trkpt>
      <trkpt lat="43.98354" lon="7.2351">
        <ele>1381</ele>
        <time>2012-05-15T13:35:29Z</time>
      </trkpt>
      <trkpt lat="43.98336" lon="7.23525">
        <ele>1379</ele>
        <time>2012-05-15T13:35:38Z</time>
      </trkpt>
      <trkpt lat="43.98315" lon="7.23537">
        <ele>1377</ele>
        <time>2012-05-15T13:35:47Z</time>
      </trkpt>
      <trkpt lat="43.98296" lon="7.23549">
        <ele>1372</ele>
        <time>2012-05-15T13:35:57Z</time>
      </trkpt>
      <trkpt lat="43.98268" lon="7.2356">
        <ele>1371</ele>
        <time>2012-05-15T13:36:06Z</time>
      </trkpt>
      <trkpt lat="43.98244" lon="7.23579">
        <ele>1370</ele>
        <time>2012-05-15T13:36:15Z</time>
      </trkpt>
      <trkpt lat="43.98224" lon="7.2359">
        <ele>1370</ele>
        <time>2012-05-15T13:36:24Z</time>
      </trkpt>
      <trkpt lat="43.98204" lon="7.23606">
        <ele>1375</ele>
        <time>2012-05-15T13:36:34Z</time>
      </trkpt>
      <trkpt lat="43.9819" lon="7.23603">
        <ele>1376</ele>
        <time>2012-05-15T13:36:43Z</time>
      </trkpt>
      <trkpt lat="43.98172" lon="7.23592">
        <ele>1376</ele>
        <time>2012-05-15T13:36:53Z</time>
      </trkpt>
      <trkpt lat="43.98152" lon="7.23569">
        <ele>1378</ele>
        <time>2012-05-15T13:37:02Z</time>
      </trkpt>
      <trkpt lat="43.98127" lon="7.23561">
        <ele>1381</ele>
        <time>2012-05-15T13:37:11Z</time>
      </trkpt>
      <trkpt lat="43.98106" lon="7.23549">
        <ele>1381</ele>
        <time>2012-05-15T13:37:21Z</time>
      </trkpt>
      <trkpt lat="43.98085" lon="7.23535">
        <ele>1381</ele>
        <time>2012-05-15T13:37:31Z</time>
      </trkpt>
      <trkpt lat="43.98064" lon="7.23509">
        <ele>1381</ele>
        <time>2012-05-15T13:37:40Z</time>
      </trkpt>
      <trkpt lat="43.9805" lon="7.23492">
        <ele>1381</ele>
        <time>2012-05-15T13:37:49Z</time>
      </trkpt>
      <trkpt lat="43.98032" lon="7.23481">
        <ele>1382</ele>
        <time>2012-05-15T13:37:58Z</time>
      </trkpt>
      <trkpt lat="43.98015" lon="7.23469">
        <ele>1384</ele>
        <time>2012-05-15T13:38:07Z</time>
      </trkpt>
      <trkpt lat="43.97998" lon="7.23454">
        <ele>1388</ele>
        <time>2012-05-15T13:38:17Z</time>
      </trkpt>
      <trkpt lat="43.9798" lon="7.23442">
        <ele>1388</ele>
        <time>2012-05-15T13:38:26Z</time>
      </trkpt>
      <trkpt lat="43.97963" lon="7.23427">
        <ele>1389</ele>
        <time>2012-05-15T13:38:36Z</time>
      </trkpt>
      <trkpt lat="43.97941" lon="7.23422">
        <ele>1390</ele>
        <time>2012-05-15T13:38:45Z</time>
      </trkpt>
      <trkpt lat="43.97917" lon="7.23422">
        <ele>1390</ele>
        <time>2012-05-15T13:38:55Z</time>
      </trkpt>
      <trkpt lat="43.97896" lon="7.23424">
        <ele>1390</ele>
        <time>2012-05-15T13:39:04Z</time>
      </trkpt>
      <trkpt lat="43.97879" lon="7.23435">
        <ele>1394</ele>
        <time>2012-05-15T13:39:13Z</time>
      </trkpt>
      <trkpt lat="43.97865" lon="7.23451">
        <ele>1402</ele>
        <time>2012-05-15T13:39:22Z</time>
      </trkpt>
      <trkpt lat="43.97852" lon="7.23457">
        <ele>1403</ele>
        <time>2012-05-15T13:39:31Z</time>
      </trkpt>
      <trkpt lat="43.97834" lon="7.2347">
        <ele>1403</ele>
        <time>2012-05-15T13:39:41Z</time>
      </trkpt>
      <trkpt lat="43.97809" lon="7.23492">
        <ele>1407</ele>
        <time>2012-05-15T13:39:50Z</time>
      </trkpt>
      <trkpt lat="43.97773" lon="7.23505">
        <ele>1407</ele>
        <time>2012-05-15T13:39:59Z</time>
      </trkpt>
      <trkpt lat="43.97739" lon="7.23529">
        <ele>1403</ele>
        <time>2012-05-15T13:40:09Z</time>
      </trkpt>
      <trkpt lat="43.97729" lon="7.23549">
        <ele>1403</ele>
        <time>2012-05-15T13:40:19Z</time>
      </trkpt>
      <trkpt lat="43.97722" lon="7.23565">
        <ele>1403</ele>
        <time>2012-05-15T13:40:29Z</time>
      </trkpt>
      <trkpt lat="43.97717" lon="7.23584">
        <ele>1403</ele>
        <time>2012-05-15T13:40:39Z</time>
      </trkpt>
      <trkpt lat="43.97711" lon="7.23601">
        <ele>1403</ele>
        <time>2012-05-15T13:40:49Z</time>
      </trkpt>
      <trkpt lat="43.97704" lon="7.23616">
        <ele>1403</ele>
        <time>2012-05-15T13:40:59Z</time>
      </trkpt>
      <trkpt lat="43.97697" lon="7.2363">
        <ele>1403</ele>
        <time>2012-05-15T13:41:08Z</time>
      </trkpt>
      <trkpt lat="43.97689" lon="7.23642">
        <ele>1408</ele>
        <time>2012-05-15T13:41:17Z</time>
      </trkpt>
      <trkpt lat="43.97681" lon="7.23655">
        <ele>1411</ele>
        <time>2012-05-15T13:41:26Z</time>
      </trkpt>
      <trkpt lat="43.97672" lon="7.23665">
        <ele>1411</ele>
        <time>2012-05-15T13:41:35Z</time>
      </trkpt>
      <trkpt lat="43.97664" lon="7.23675">
        <ele>1414</ele>
        <time>2012-05-15T13:41:45Z</time>
      </trkpt>
      <trkpt lat="43.97653" lon="7.23679">
        <ele>1414</ele>
        <time>2012-05-15T13:41:55Z</time>
      </trkpt>
      <trkpt lat="43.97643" lon="7.23679">
        <ele>1417</ele>
        <time>2012-05-15T13:42:04Z</time>
      </trkpt>
      <trkpt lat="43.97627" lon="7.2367">
        <ele>1420</ele>
        <time>2012-05-15T13:42:13Z</time>
      </trkpt>
      <trkpt lat="43.97605" lon="7.23659">
        <ele>1422</ele>
        <time>2012-05-15T13:42:23Z</time>
      </trkpt>
      <trkpt lat="43.97573" lon="7.2367">
        <ele>1425</ele>
        <time>2012-05-15T13:42:33Z</time>
      </trkpt>
      <trkpt lat="43.97547" lon="7.23674">
        <ele>1425</ele>
        <time>2012-05-15T13:42:42Z</time>
      </trkpt>
      <trkpt lat="43.97514" lon="7.23681">
        <ele>1422</ele>
        <time>2012-05-15T13:42:51Z</time>
      </trkpt>
      <trkpt lat="43.97485" lon="7.23688">
        <ele>1420</ele>
        <time>2012-05-15T13:43:00Z</time>
      </trkpt>
      <trkpt lat="43.97452" lon="7.237">
        <ele>1417</ele>
        <time>2012-05-15T13:43:10Z</time>
      </trkpt>
      <trkpt lat="43.97425" lon="7.23709">
        <ele>1416</ele>
        <time>2012-05-15T13:43:19Z</time>
      </trkpt>
      <trkpt lat="43.97399" lon="7.23722">
        <ele>1416</ele>
        <time>2012-05-15T13:43:28Z</time>
      </trkpt>
      <trkpt lat="43.9737" lon="7.23728">
        <ele>1417</ele>
        <time>2012-05-15T13:43:37Z</time>
      </trkpt>
      <trkpt lat="43.97351" lon="7.23728">
        <ele>1417</ele>
        <time>2012-05-15T13:43:46Z</time>
      </trkpt>
      <trkpt lat="43.97336" lon="7.2374">
        <ele>1417</ele>
        <time>2012-05-15T13:43:55Z</time>
      </trkpt>
      <trkpt lat="43.97322" lon="7.23743">
        <ele>1416</ele>
        <time>2012-05-15T13:44:05Z</time>
      </trkpt>
      <trkpt lat="43.97308" lon="7.23753">
        <ele>1415</ele>
        <time>2012-05-15T13:44:15Z</time>
      </trkpt>
      <trkpt lat="43.97298" lon="7.23769">
        <ele>1415</ele>
        <time>2012-05-15T13:44:26Z</time>
      </trkpt>
      <trkpt lat="43.97296" lon="7.23786">
        <ele>1415</ele>
        <time>2012-05-15T13:44:35Z</time>
      </trkpt>
      <trkpt lat="43.97273" lon="7.23852">
        <ele>1413</ele>
        <time>2012-05-15T13:44:44Z</time>
      </trkpt>
      <trkpt lat="43.9725" lon="7.23866">
        <ele>1410</ele>
        <time>2012-05-15T13:44:54Z</time>
      </trkpt>
      <trkpt lat="43.97231" lon="7.23881">
        <ele>1406</ele>
        <time>2012-05-15T13:45:03Z</time>
      </trkpt>
      <trkpt lat="43.97205" lon="7.23905">
        <ele>1405</ele>
        <time>2012-05-15T13:45:12Z</time>
      </trkpt>
      <trkpt lat="43.97173" lon="7.23929">
        <ele>1404</ele>
        <time>2012-05-15T13:45:21Z</time>
      </trkpt>
      <trkpt lat="43.9715" lon="7.23938">
        <ele>1404</ele>
        <time>2012-05-15T13:45:30Z</time>
      </trkpt>
      <trkpt lat="43.97132" lon="7.23942">
        <ele>1404</ele>
        <time>2012-05-15T13:45:39Z</time>
      </trkpt>
      <trkpt lat="43.97116" lon="7.23942">
        <ele>1405</ele>
        <time>2012-05-15T13:45:50Z</time>
      </trkpt>
      <trkpt lat="43.97106" lon="7.23938">
        <ele>1405</ele>
        <time>2012-05-15T13:45:59Z</time>
      </trkpt>
      <trkpt lat="43.97097" lon="7.2393">
        <ele>1405</ele>
        <time>2012-05-15T13:46:09Z</time>
      </trkpt>
      <trkpt lat="43.97093" lon="7.23917">
        <ele>1405</ele>
        <time>2012-05-15T13:46:18Z</time>
      </trkpt>
      <trkpt lat="43.97088" lon="7.23907">
        <ele>1405</ele>
        <time>2012-05-15T13:46:27Z</time>
      </trkpt>
      <trkpt lat="43.97082" lon="7.23893">
        <ele>1405</ele>
        <time>2012-05-15T13:46:37Z</time>
      </trkpt>
      <trkpt lat="43.97075" lon="7.23886">
        <ele>1404</ele>
        <time>2012-05-15T13:46:47Z</time>
      </trkpt>
      <trkpt lat="43.97074" lon="7.23883">
        <ele>1403</ele>
        <time>2012-05-15T13:47:37Z</time>
      </trkpt>
      <trkpt lat="43.9707" lon="7.23875">
        <ele>1403</ele>
        <time>2012-05-15T13:47:46Z</time>
      </trkpt>
      <trkpt lat="43.97063" lon="7.23862">
        <ele>1403</ele>
        <time>2012-05-15T13:47:56Z</time>
      </trkpt>
      <trkpt lat="43.97059" lon="7.23851">
        <ele>1403</ele>
        <time>2012-05-15T13:48:05Z</time>
      </trkpt>
      <trkpt lat="43.97053" lon="7.2384">
        <ele>1403</ele>
        <time>2012-05-15T13:48:14Z</time>
      </trkpt>
      <trkpt lat="43.9705" lon="7.23836">
        <ele>1403</ele>
        <time>2012-05-15T13:48:27Z</time>
      </trkpt>
      <trkpt lat="43.97052" lon="7.23839">
        <ele>1403</ele>
        <time>2012-05-15T13:48:47Z</time>
      </trkpt>
      <trkpt lat="43.97053" lon="7.23837">
        <ele>1404</ele>
        <time>2012-05-15T13:49:04Z</time>
      </trkpt>
      <trkpt lat="43.97051" lon="7.23839">
        <ele>1404</ele>
        <time>2012-05-15T13:49:23Z</time>
      </trkpt>
      <trkpt lat="43.97039" lon="7.23844">
        <ele>1404</ele>
        <time>2012-05-15T13:49:33Z</time>
      </trkpt>
      <trkpt lat="43.97035" lon="7.2384">
        <ele>1404</ele>
        <time>2012-05-15T13:49:42Z</time>
      </trkpt>
      <trkpt lat="43.97036" lon="7.23841">
        <ele>1404</ele>
        <time>2012-05-15T13:50:08Z</time>
      </trkpt>
      <trkpt lat="43.97038" lon="7.23842">
        <ele>1404</ele>
        <time>2012-05-15T13:50:18Z</time>
      </trkpt>
      <trkpt lat="43.97046" lon="7.23841">
        <ele>1404</ele>
        <time>2012-05-15T13:50:27Z</time>
      </trkpt>
      <trkpt lat="43.97047" lon="7.2384">
        <ele>1404</ele>
        <time>2012-05-15T13:50:37Z</time>
      </trkpt>
      <trkpt lat="43.97026" lon="7.23835">
        <ele>1401</ele>
        <time>2012-05-15T13:50:46Z</time>
      </trkpt>
      <trkpt lat="43.97002" lon="7.23819">
        <ele>1400</ele>
        <time>2012-05-15T13:50:55Z</time>
      </trkpt>
      <trkpt lat="43.96991" lon="7.23804">
        <ele>1400</ele>
        <time>2012-05-15T13:51:04Z</time>
      </trkpt>
      <trkpt lat="43.96989" lon="7.23801">
        <ele>1400</ele>
        <time>2012-05-15T13:51:13Z</time>
      </trkpt>
      <trkpt lat="43.96982" lon="7.23791">
        <ele>1400</ele>
        <time>2012-05-15T13:51:23Z</time>
      </trkpt>
      <trkpt lat="43.96975" lon="7.23782">
        <ele>1400</ele>
        <time>2012-05-15T13:51:33Z</time>
      </trkpt>
      <trkpt lat="43.96969" lon="7.2378">
        <ele>1400</ele>
        <time>2012-05-15T13:51:42Z</time>
      </trkpt>
      <trkpt lat="43.96953" lon="7.23771">
        <ele>1400</ele>
        <time>2012-05-15T13:51:51Z</time>
      </trkpt>
      <trkpt lat="43.96938" lon="7.23758">
        <ele>1400</ele>
        <time>2012-05-15T13:52:00Z</time>
      </trkpt>
      <trkpt lat="43.96912" lon="7.23757">
        <ele>1400</ele>
        <time>2012-05-15T13:52:09Z</time>
      </trkpt>
      <trkpt lat="43.96888" lon="7.23755">
        <ele>1401</ele>
        <time>2012-05-15T13:52:18Z</time>
      </trkpt>
      <trkpt lat="43.96872" lon="7.23753">
        <ele>1405</ele>
        <time>2012-05-15T13:52:27Z</time>
      </trkpt>
      <trkpt lat="43.9686" lon="7.23752">
        <ele>1408</ele>
        <time>2012-05-15T13:52:36Z</time>
      </trkpt>
      <trkpt lat="43.96849" lon="7.23753">
        <ele>1412</ele>
        <time>2012-05-15T13:52:45Z</time>
      </trkpt>
      <trkpt lat="43.96835" lon="7.23753">
        <ele>1414</ele>
        <time>2012-05-15T13:52:54Z</time>
      </trkpt>
      <trkpt lat="43.96823" lon="7.23754">
        <ele>1419</ele>
        <time>2012-05-15T13:53:03Z</time>
      </trkpt>
      <trkpt lat="43.96809" lon="7.23755">
        <ele>1420</ele>
        <time>2012-05-15T13:53:12Z</time>
      </trkpt>
      <trkpt lat="43.96793" lon="7.23757">
        <ele>1420</ele>
        <time>2012-05-15T13:53:21Z</time>
      </trkpt>
      <trkpt lat="43.96774" lon="7.2376">
        <ele>1420</ele>
        <time>2012-05-15T13:53:30Z</time>
      </trkpt>
      <trkpt lat="43.96748" lon="7.23765">
        <ele>1418</ele>
        <time>2012-05-15T13:53:39Z</time>
      </trkpt>
      <trkpt lat="43.96721" lon="7.2377">
        <ele>1417</ele>
        <time>2012-05-15T13:53:48Z</time>
      </trkpt>
      <trkpt lat="43.96689" lon="7.23765">
        <ele>1413</ele>
        <time>2012-05-15T13:53:57Z</time>
      </trkpt>
      <trkpt lat="43.96666" lon="7.23774">
        <ele>1412</ele>
        <time>2012-05-15T13:54:06Z</time>
      </trkpt>
      <trkpt lat="43.96656" lon="7.23777">
        <ele>1412</ele>
        <time>2012-05-15T13:54:15Z</time>
      </trkpt>
      <trkpt lat="43.96641" lon="7.23781">
        <ele>1411</ele>
        <time>2012-05-15T13:54:24Z</time>
      </trkpt>
      <trkpt lat="43.96625" lon="7.2378">
        <ele>1411</ele>
        <time>2012-05-15T13:54:33Z</time>
      </trkpt>
      <trkpt lat="43.96612" lon="7.23781">
        <ele>1411</ele>
        <time>2012-05-15T13:54:42Z</time>
      </trkpt>
      <trkpt lat="43.96598" lon="7.23783">
        <ele>1411</ele>
        <time>2012-05-15T13:54:51Z</time>
      </trkpt>
      <trkpt lat="43.96584" lon="7.23785">
        <ele>1413</ele>
        <time>2012-05-15T13:55:00Z</time>
      </trkpt>
      <trkpt lat="43.96571" lon="7.23787">
        <ele>1413</ele>
        <time>2012-05-15T13:55:09Z</time>
      </trkpt>
      <trkpt lat="43.96559" lon="7.2379">
        <ele>1413</ele>
        <time>2012-05-15T13:55:18Z</time>
      </trkpt>
      <trkpt lat="43.96547" lon="7.23795">
        <ele>1417</ele>
        <time>2012-05-15T13:55:27Z</time>
      </trkpt>
      <trkpt lat="43.9653" lon="7.23801">
        <ele>1418</ele>
        <time>2012-05-15T13:55:36Z</time>
      </trkpt>
      <trkpt lat="43.96513" lon="7.2381">
        <ele>1419</ele>
        <time>2012-05-15T13:55:45Z</time>
      </trkpt>
      <trkpt lat="43.96499" lon="7.23821">
        <ele>1420</ele>
        <time>2012-05-15T13:55:54Z</time>
      </trkpt>
      <trkpt lat="43.96482" lon="7.23836">
        <ele>1421</ele>
        <time>2012-05-15T13:56:03Z</time>
      </trkpt>
      <trkpt lat="43.96452" lon="7.23863">
        <ele>1421</ele>
        <time>2012-05-15T13:56:12Z</time>
      </trkpt>
      <trkpt lat="43.96425" lon="7.23883">
        <ele>1421</ele>
        <time>2012-05-15T13:56:21Z</time>
      </trkpt>
      <trkpt lat="43.96393" lon="7.23901">
        <ele>1419</ele>
        <time>2012-05-15T13:56:30Z</time>
      </trkpt>
      <trkpt lat="43.96344" lon="7.23926">
        <ele>1418</ele>
        <time>2012-05-15T13:56:39Z</time>
      </trkpt>
      <trkpt lat="43.96291" lon="7.23956">
        <ele>1415</ele>
        <time>2012-05-15T13:56:48Z</time>
      </trkpt>
      <trkpt lat="43.96245" lon="7.23994">
        <ele>1408</ele>
        <time>2012-05-15T13:56:57Z</time>
      </trkpt>
      <trkpt lat="43.96204" lon="7.24027">
        <ele>1405</ele>
        <time>2012-05-15T13:57:06Z</time>
      </trkpt>
      <trkpt lat="43.96175" lon="7.2406">
        <ele>1401</ele>
        <time>2012-05-15T13:57:15Z</time>
      </trkpt>
      <trkpt lat="43.96158" lon="7.2407">
        <ele>1400</ele>
        <time>2012-05-15T13:57:24Z</time>
      </trkpt>
      <trkpt lat="43.96153" lon="7.24075">
        <ele>1400</ele>
        <time>2012-05-15T13:57:36Z</time>
      </trkpt>
      <trkpt lat="43.96155" lon="7.24077">
        <ele>1403</ele>
        <time>2012-05-15T13:57:57Z</time>
      </trkpt>
      <trkpt lat="43.96152" lon="7.24074">
        <ele>1405</ele>
        <time>2012-05-15T13:58:14Z</time>
      </trkpt>
      <trkpt lat="43.96132" lon="7.24085">
        <ele>1404</ele>
        <time>2012-05-15T13:58:23Z</time>
      </trkpt>
      <trkpt lat="43.96103" lon="7.24106">
        <ele>1401</ele>
        <time>2012-05-15T13:58:32Z</time>
      </trkpt>
      <trkpt lat="43.96081" lon="7.24133">
        <ele>1400</ele>
        <time>2012-05-15T13:58:41Z</time>
      </trkpt>
      <trkpt lat="43.96056" lon="7.24171">
        <ele>1396</ele>
        <time>2012-05-15T13:58:50Z</time>
      </trkpt>
      <trkpt lat="43.96032" lon="7.24211">
        <ele>1396</ele>
        <time>2012-05-15T13:58:59Z</time>
      </trkpt>
      <trkpt lat="43.95999" lon="7.24243">
        <ele>1396</ele>
        <time>2012-05-15T13:59:08Z</time>
      </trkpt>
      <trkpt lat="43.95972" lon="7.24275">
        <ele>1398</ele>
        <time>2012-05-15T13:59:17Z</time>
      </trkpt>
      <trkpt lat="43.95944" lon="7.24288">
        <ele>1398</ele>
        <time>2012-05-15T13:59:26Z</time>
      </trkpt>
      <trkpt lat="43.95919" lon="7.24301">
        <ele>1398</ele>
        <time>2012-05-15T13:59:35Z</time>
      </trkpt>
      <trkpt lat="43.95901" lon="7.24302">
        <ele>1398</ele>
        <time>2012-05-15T13:59:44Z</time>
      </trkpt>
      <trkpt lat="43.95886" lon="7.24308">
        <ele>1398</ele>
        <time>2012-05-15T13:59:53Z</time>
      </trkpt>
      <trkpt lat="43.9587" lon="7.24312">
        <ele>1399</ele>
        <time>2012-05-15T14:00:02Z</time>
      </trkpt>
      <trkpt lat="43.95855" lon="7.24316">
        <ele>1400</ele>
        <time>2012-05-15T14:00:11Z</time>
      </trkpt>
      <trkpt lat="43.9584" lon="7.24321">
        <ele>1401</ele>
        <time>2012-05-15T14:00:20Z</time>
      </trkpt>
      <trkpt lat="43.95825" lon="7.24318">
        <ele>1401</ele>
        <time>2012-05-15T14:00:29Z</time>
      </trkpt>
      <trkpt lat="43.95808" lon="7.24319">
        <ele>1402</ele>
        <time>2012-05-15T14:00:38Z</time>
      </trkpt>
      <trkpt lat="43.95792" lon="7.24317">
        <ele>1405</ele>
        <time>2012-05-15T14:00:47Z</time>
      </trkpt>
      <trkpt lat="43.95773" lon="7.24311">
        <ele>1405</ele>
        <time>2012-05-15T14:00:56Z</time>
      </trkpt>
      <trkpt lat="43.95753" lon="7.24299">
        <ele>1405</ele>
        <time>2012-05-15T14:01:05Z</time>
      </trkpt>
      <trkpt lat="43.95737" lon="7.24292">
        <ele>1405</ele>
        <time>2012-05-15T14:01:14Z</time>
      </trkpt>
      <trkpt lat="43.95714" lon="7.24289">
        <ele>1408</ele>
        <time>2012-05-15T14:01:23Z</time>
      </trkpt>
      <trkpt lat="43.95697" lon="7.24281">
        <ele>1411</ele>
        <time>2012-05-15T14:01:32Z</time>
      </trkpt>
      <trkpt lat="43.95679" lon="7.24272">
        <ele>1413</ele>
        <time>2012-05-15T14:01:41Z</time>
      </trkpt>
      <trkpt lat="43.95661" lon="7.24261">
        <ele>1413</ele>
        <time>2012-05-15T14:01:50Z</time>
      </trkpt>
      <trkpt lat="43.95645" lon="7.24251">
        <ele>1415</ele>
        <time>2012-05-15T14:01:59Z</time>
      </trkpt>
      <trkpt lat="43.95633" lon="7.2424">
        <ele>1419</ele>
        <time>2012-05-15T14:02:08Z</time>
      </trkpt>
      <trkpt lat="43.9562" lon="7.24232">
        <ele>1423</ele>
        <time>2012-05-15T14:02:17Z</time>
      </trkpt>
      <trkpt lat="43.95607" lon="7.24223">
        <ele>1425</ele>
        <time>2012-05-15T14:02:30Z</time>
      </trkpt>
      <trkpt lat="43.95608" lon="7.2422">
        <ele>1426</ele>
        <time>2012-05-15T14:02:40Z</time>
      </trkpt>
      <trkpt lat="43.95608" lon="7.24223">
        <ele>1429</ele>
        <time>2012-05-15T14:02:49Z</time>
      </trkpt>
      <trkpt lat="43.95609" lon="7.2423">
        <ele>1440</ele>
        <time>2012-05-15T14:03:05Z</time>
      </trkpt>
      <trkpt lat="43.95609" lon="7.24229">
        <ele>1442</ele>
        <time>2012-05-15T14:03:15Z</time>
      </trkpt>
      <trkpt lat="43.95609" lon="7.24224">
        <ele>1438</ele>
        <time>2012-05-15T14:03:26Z</time>
      </trkpt>
      <trkpt lat="43.95609" lon="7.24221">
        <ele>1435</ele>
        <time>2012-05-15T14:03:38Z</time>
      </trkpt>
      <trkpt lat="43.95611" lon="7.2422">
        <ele>1433</ele>
        <time>2012-05-15T14:03:49Z</time>
      </trkpt>
      <trkpt lat="43.95611" lon="7.24224">
        <ele>1433</ele>
        <time>2012-05-15T14:04:00Z</time>
      </trkpt>
      <trkpt lat="43.9561" lon="7.24222">
        <ele>1433</ele>
        <time>2012-05-15T14:04:13Z</time>
      </trkpt>
      <trkpt lat="43.95612" lon="7.24225">
        <ele>1433</ele>
        <time>2012-05-15T14:04:23Z</time>
      </trkpt>
      <trkpt lat="43.95613" lon="7.2423">
        <ele>1439</ele>
        <time>2012-05-15T14:04:34Z</time>
      </trkpt>
      <trkpt lat="43.95611" lon="7.24232">
        <ele>1446</ele>
        <time>2012-05-15T14:04:51Z</time>
      </trkpt>
      <trkpt lat="43.95609" lon="7.24231">
        <ele>1441</ele>
        <time>2012-05-15T14:05:00Z</time>
      </trkpt>
      <trkpt lat="43.95609" lon="7.24226">
        <ele>1436</ele>
        <time>2012-05-15T14:05:15Z</time>
      </trkpt>
      <trkpt lat="43.95606" lon="7.24222">
        <ele>1436</ele>
        <time>2012-05-15T14:05:26Z</time>
      </trkpt>
      <trkpt lat="43.95601" lon="7.24219">
        <ele>1443</ele>
        <time>2012-05-15T14:05:36Z</time>
      </trkpt>
      <trkpt lat="43.95592" lon="7.24213">
        <ele>1444</ele>
        <time>2012-05-15T14:05:45Z</time>
      </trkpt>
      <trkpt lat="43.95582" lon="7.24206">
        <ele>1441</ele>
        <time>2012-05-15T14:05:54Z</time>
      </trkpt>
      <trkpt lat="43.95573" lon="7.24203">
        <ele>1439</ele>
        <time>2012-05-15T14:06:03Z</time>
      </trkpt>
      <trkpt lat="43.95563" lon="7.24198">
        <ele>1438</ele>
        <time>2012-05-15T14:06:12Z</time>
      </trkpt>
      <trkpt lat="43.95553" lon="7.24194">
        <ele>1437</ele>
        <time>2012-05-15T14:06:21Z</time>
      </trkpt>
      <trkpt lat="43.95541" lon="7.24189">
        <ele>1437</ele>
        <time>2012-05-15T14:06:30Z</time>
      </trkpt>
      <trkpt lat="43.9553" lon="7.24188">
        <ele>1437</ele>
        <time>2012-05-15T14:06:39Z</time>
      </trkpt>
      <trkpt lat="43.95521" lon="7.24185">
        <ele>1437</ele>
        <time>2012-05-15T14:06:49Z</time>
      </trkpt>
      <trkpt lat="43.95514" lon="7.24188">
        <ele>1442</ele>
        <time>2012-05-15T14:06:58Z</time>
      </trkpt>
      <trkpt lat="43.95505" lon="7.24186">
        <ele>1444</ele>
        <time>2012-05-15T14:07:07Z</time>
      </trkpt>
      <trkpt lat="43.95497" lon="7.24187">
        <ele>1444</ele>
        <time>2012-05-15T14:07:16Z</time>
      </trkpt>
      <trkpt lat="43.9549" lon="7.24194">
        <ele>1444</ele>
        <time>2012-05-15T14:07:26Z</time>
      </trkpt>
      <trkpt lat="43.95483" lon="7.24191">
        <ele>1444</ele>
        <time>2012-05-15T14:07:35Z</time>
      </trkpt>
      <trkpt lat="43.95477" lon="7.2419">
        <ele>1444</ele>
        <time>2012-05-15T14:07:45Z</time>
      </trkpt>
      <trkpt lat="43.95473" lon="7.24195">
        <ele>1446</ele>
        <time>2012-05-15T14:07:54Z</time>
      </trkpt>
      <trkpt lat="43.95468" lon="7.24194">
        <ele>1446</ele>
        <time>2012-05-15T14:08:03Z</time>
      </trkpt>
      <trkpt lat="43.95464" lon="7.24187">
        <ele>1450</ele>
        <time>2012-05-15T14:08:15Z</time>
      </trkpt>
      <trkpt lat="43.95459" lon="7.24189">
        <ele>1452</ele>
        <time>2012-05-15T14:08:24Z</time>
      </trkpt>
      <trkpt lat="43.95456" lon="7.24194">
        <ele>1453</ele>
        <time>2012-05-15T14:08:34Z</time>
      </trkpt>
      <trkpt lat="43.95451" lon="7.24194">
        <ele>1456</ele>
        <time>2012-05-15T14:08:43Z</time>
      </trkpt>
      <trkpt lat="43.95449" lon="7.24197">
        <ele>1460</ele>
        <time>2012-05-15T14:08:55Z</time>
      </trkpt>
      <trkpt lat="43.95445" lon="7.24208">
        <ele>1461</ele>
        <time>2012-05-15T14:09:05Z</time>
      </trkpt>
      <trkpt lat="43.95441" lon="7.24214">
        <ele>1461</ele>
        <time>2012-05-15T14:09:14Z</time>
      </trkpt>
      <trkpt lat="43.95439" lon="7.24216">
        <ele>1462</ele>
        <time>2012-05-15T14:09:23Z</time>
      </trkpt>
      <trkpt lat="43.95435" lon="7.24217">
        <ele>1464</ele>
        <time>2012-05-15T14:09:32Z</time>
      </trkpt>
      <trkpt lat="43.95432" lon="7.24223">
        <ele>1467</ele>
        <time>2012-05-15T14:09:41Z</time>
      </trkpt>
      <trkpt lat="43.95426" lon="7.24228">
        <ele>1470</ele>
        <time>2012-05-15T14:09:52Z</time>
      </trkpt>
      <trkpt lat="43.95423" lon="7.24235">
        <ele>1471</ele>
        <time>2012-05-15T14:10:03Z</time>
      </trkpt>
      <trkpt lat="43.9542" lon="7.24238">
        <ele>1475</ele>
        <time>2012-05-15T14:10:15Z</time>
      </trkpt>
      <trkpt lat="43.9542" lon="7.24243">
        <ele>1478</ele>
        <time>2012-05-15T14:10:26Z</time>
      </trkpt>
      <trkpt lat="43.95414" lon="7.24242">
        <ele>1485</ele>
        <time>2012-05-15T14:10:35Z</time>
      </trkpt>
      <trkpt lat="43.95409" lon="7.24248">
        <ele>1485</ele>
        <time>2012-05-15T14:10:44Z</time>
      </trkpt>
      <trkpt lat="43.95403" lon="7.24255">
        <ele>1485</ele>
        <time>2012-05-15T14:10:54Z</time>
      </trkpt>
      <trkpt lat="43.95401" lon="7.24262">
        <ele>1485</ele>
        <time>2012-05-15T14:11:04Z</time>
      </trkpt>
      <trkpt lat="43.95404" lon="7.24267">
        <ele>1485</ele>
        <time>2012-05-15T14:11:43Z</time>
      </trkpt>
      <trkpt lat="43.95406" lon="7.24266">
        <ele>1485</ele>
        <time>2012-05-15T14:12:03Z</time>
      </trkpt>
      <trkpt lat="43.95405" lon="7.24267">
        <ele>1485</ele>
        <time>2012-05-15T14:12:12Z</time>
      </trkpt>
      <trkpt lat="43.95402" lon="7.24264">
        <ele>1485</ele>
        <time>2012-05-15T14:12:21Z</time>
      </trkpt>
      <trkpt lat="43.954" lon="7.24267">
        <ele>1484</ele>
        <time>2012-05-15T14:12:41Z</time>
      </trkpt>
      <trkpt lat="43.95398" lon="7.24266">
        <ele>1484</ele>
        <time>2012-05-15T14:13:01Z</time>
      </trkpt>
      <trkpt lat="43.95378" lon="7.24266">
        <ele>1484</ele>
        <time>2012-05-15T14:13:10Z</time>
      </trkpt>
      <trkpt lat="43.95346" lon="7.24269">
        <ele>1484</ele>
        <time>2012-05-15T14:13:19Z</time>
      </trkpt>
      <trkpt lat="43.95335" lon="7.2427">
        <ele>1483</ele>
        <time>2012-05-15T14:13:28Z</time>
      </trkpt>
      <trkpt lat="43.9533" lon="7.24269">
        <ele>1483</ele>
        <time>2012-05-15T14:13:38Z</time>
      </trkpt>
      <trkpt lat="43.95323" lon="7.2427">
        <ele>1483</ele>
        <time>2012-05-15T14:13:47Z</time>
      </trkpt>
      <trkpt lat="43.95316" lon="7.2427">
        <ele>1483</ele>
        <time>2012-05-15T14:13:57Z</time>
      </trkpt>
      <trkpt lat="43.95308" lon="7.24271">
        <ele>1485</ele>
        <time>2012-05-15T14:14:06Z</time>
      </trkpt>
      <trkpt lat="43.95297" lon="7.24273">
        <ele>1487</ele>
        <time>2012-05-15T14:14:15Z</time>
      </trkpt>
      <trkpt lat="43.9529" lon="7.24273">
        <ele>1487</ele>
        <time>2012-05-15T14:14:25Z</time>
      </trkpt>
      <trkpt lat="43.95283" lon="7.24272">
        <ele>1489</ele>
        <time>2012-05-15T14:14:34Z</time>
      </trkpt>
      <trkpt lat="43.95276" lon="7.24271">
        <ele>1498</ele>
        <time>2012-05-15T14:14:43Z</time>
      </trkpt>
      <trkpt lat="43.95268" lon="7.24273">
        <ele>1498</ele>
        <time>2012-05-15T14:14:52Z</time>
      </trkpt>
      <trkpt lat="43.95256" lon="7.24281">
        <ele>1497</ele>
        <time>2012-05-15T14:15:01Z</time>
      </trkpt>
      <trkpt lat="43.95246" lon="7.24289">
        <ele>1492</ele>
        <time>2012-05-15T14:15:10Z</time>
      </trkpt>
      <trkpt lat="43.95239" lon="7.24295">
        <ele>1492</ele>
        <time>2012-05-15T14:15:20Z</time>
      </trkpt>
      <trkpt lat="43.95229" lon="7.24297">
        <ele>1491</ele>
        <time>2012-05-15T14:15:29Z</time>
      </trkpt>
      <trkpt lat="43.9522" lon="7.24299">
        <ele>1490</ele>
        <time>2012-05-15T14:15:38Z</time>
      </trkpt>
      <trkpt lat="43.95216" lon="7.24298">
        <ele>1490</ele>
        <time>2012-05-15T14:15:47Z</time>
      </trkpt>
      <trkpt lat="43.95208" lon="7.243">
        <ele>1490</ele>
        <time>2012-05-15T14:15:56Z</time>
      </trkpt>
      <trkpt lat="43.95201" lon="7.24294">
        <ele>1490</ele>
        <time>2012-05-15T14:16:06Z</time>
      </trkpt>
      <trkpt lat="43.95195" lon="7.24291">
        <ele>1491</ele>
        <time>2012-05-15T14:16:16Z</time>
      </trkpt>
      <trkpt lat="43.95189" lon="7.24292">
        <ele>1492</ele>
        <time>2012-05-15T14:16:26Z</time>
      </trkpt>
      <trkpt lat="43.95193" lon="7.24296">
        <ele>1494</ele>
        <time>2012-05-15T14:16:35Z</time>
      </trkpt>
      <trkpt lat="43.95192" lon="7.243">
        <ele>1496</ele>
        <time>2012-05-15T14:16:46Z</time>
      </trkpt>
      <trkpt lat="43.95192" lon="7.24304">
        <ele>1497</ele>
        <time>2012-05-15T14:16:57Z</time>
      </trkpt>
      <trkpt lat="43.95192" lon="7.24308">
        <ele>1498</ele>
        <time>2012-05-15T14:17:06Z</time>
      </trkpt>
      <trkpt lat="43.95191" lon="7.24308">
        <ele>1502</ele>
        <time>2012-05-15T14:17:15Z</time>
      </trkpt>
      <trkpt lat="43.9519" lon="7.24309">
        <ele>1504</ele>
        <time>2012-05-15T14:17:29Z</time>
      </trkpt>
      <trkpt lat="43.95182" lon="7.24314">
        <ele>1506</ele>
        <time>2012-05-15T14:17:38Z</time>
      </trkpt>
      <trkpt lat="43.95179" lon="7.24314">
        <ele>1508</ele>
        <time>2012-05-15T14:17:49Z</time>
      </trkpt>
      <trkpt lat="43.95175" lon="7.24317">
        <ele>1508</ele>
        <time>2012-05-15T14:17:58Z</time>
      </trkpt>
      <trkpt lat="43.95171" lon="7.24325">
        <ele>1510</ele>
        <time>2012-05-15T14:18:07Z</time>
      </trkpt>
      <trkpt lat="43.9517" lon="7.24321">
        <ele>1515</ele>
        <time>2012-05-15T14:18:18Z</time>
      </trkpt>
      <trkpt lat="43.95168" lon="7.24318">
        <ele>1516</ele>
        <time>2012-05-15T14:18:27Z</time>
      </trkpt>
      <trkpt lat="43.95166" lon="7.24321">
        <ele>1516</ele>
        <time>2012-05-15T14:18:37Z</time>
      </trkpt>
      <trkpt lat="43.95163" lon="7.24327">
        <ele>1518</ele>
        <time>2012-05-15T14:18:46Z</time>
      </trkpt>
      <trkpt lat="43.9516" lon="7.24327">
        <ele>1519</ele>
        <time>2012-05-15T14:18:55Z</time>
      </trkpt>
      <trkpt lat="43.95158" lon="7.24334">
        <ele>1521</ele>
        <time>2012-05-15T14:19:04Z</time>
      </trkpt>
      <trkpt lat="43.95155" lon="7.24339">
        <ele>1528</ele>
        <time>2012-05-15T14:19:15Z</time>
      </trkpt>
      <trkpt lat="43.95154" lon="7.24343">
        <ele>1529</ele>
        <time>2012-05-15T14:19:26Z</time>
      </trkpt>
      <trkpt lat="43.95155" lon="7.24349">
        <ele>1528</ele>
        <time>2012-05-15T14:19:35Z</time>
      </trkpt>
      <trkpt lat="43.95152" lon="7.24354">
        <ele>1528</ele>
        <time>2012-05-15T14:19:45Z</time>
      </trkpt>
      <trkpt lat="43.95149" lon="7.24358">
        <ele>1528</ele>
        <time>2012-05-15T14:19:56Z</time>
      </trkpt>
      <trkpt lat="43.95143" lon="7.24361">
        <ele>1530</ele>
        <time>2012-05-15T14:20:06Z</time>
      </trkpt>
      <trkpt lat="43.95135" lon="7.24368">
        <ele>1531</ele>
        <time>2012-05-15T14:20:15Z</time>
      </trkpt>
      <trkpt lat="43.95124" lon="7.24369">
        <ele>1531</ele>
        <time>2012-05-15T14:20:25Z</time>
      </trkpt>
      <trkpt lat="43.95117" lon="7.24363">
        <ele>1531</ele>
        <time>2012-05-15T14:20:36Z</time>
      </trkpt>
      <trkpt lat="43.95108" lon="7.24365">
        <ele>1531</ele>
        <time>2012-05-15T14:20:45Z</time>
      </trkpt>
      <trkpt lat="43.95098" lon="7.24373">
        <ele>1531</ele>
        <time>2012-05-15T14:20:55Z</time>
      </trkpt>
      <trkpt lat="43.95089" lon="7.24371">
        <ele>1533</ele>
        <time>2012-05-15T14:21:05Z</time>
      </trkpt>
      <trkpt lat="43.95081" lon="7.24368">
        <ele>1534</ele>
        <time>2012-05-15T14:21:15Z</time>
      </trkpt>
      <trkpt lat="43.95077" lon="7.24361">
        <ele>1536</ele>
        <time>2012-05-15T14:21:25Z</time>
      </trkpt>
      <trkpt lat="43.95074" lon="7.24356">
        <ele>1537</ele>
        <time>2012-05-15T14:21:34Z</time>
      </trkpt>
      <trkpt lat="43.95071" lon="7.24352">
        <ele>1537</ele>
        <time>2012-05-15T14:22:00Z</time>
      </trkpt>
      <trkpt lat="43.95073" lon="7.24352">
        <ele>1537</ele>
        <time>2012-05-15T14:22:11Z</time>
      </trkpt>
      <trkpt lat="43.95074" lon="7.24353">
        <ele>1537</ele>
        <time>2012-05-15T14:22:28Z</time>
      </trkpt>
      <trkpt lat="43.95069" lon="7.24349">
        <ele>1537</ele>
        <time>2012-05-15T14:22:37Z</time>
      </trkpt>
      <trkpt lat="43.95064" lon="7.2434">
        <ele>1537</ele>
        <time>2012-05-15T14:22:47Z</time>
      </trkpt>
      <trkpt lat="43.9506" lon="7.24329">
        <ele>1537</ele>
        <time>2012-05-15T14:22:56Z</time>
      </trkpt>
      <trkpt lat="43.95058" lon="7.24319">
        <ele>1537</ele>
        <time>2012-05-15T14:23:05Z</time>
      </trkpt>
      <trkpt lat="43.95055" lon="7.24312">
        <ele>1537</ele>
        <time>2012-05-15T14:23:19Z</time>
      </trkpt>
      <trkpt lat="43.95055" lon="7.24313">
        <ele>1538</ele>
        <time>2012-05-15T14:23:34Z</time>
      </trkpt>
      <trkpt lat="43.95059" lon="7.24313">
        <ele>1538</ele>
        <time>2012-05-15T14:23:51Z</time>
      </trkpt>
      <trkpt lat="43.9506" lon="7.24314">
        <ele>1539</ele>
        <time>2012-05-15T14:24:15Z</time>
      </trkpt>
      <trkpt lat="43.95055" lon="7.24313">
        <ele>1539</ele>
        <time>2012-05-15T14:24:24Z</time>
      </trkpt>
      <trkpt lat="43.95052" lon="7.24312">
        <ele>1539</ele>
        <time>2012-05-15T14:24:38Z</time>
      </trkpt>
      <trkpt lat="43.9505" lon="7.24309">
        <ele>1539</ele>
        <time>2012-05-15T14:25:08Z</time>
      </trkpt>
      <trkpt lat="43.95052" lon="7.24311">
        <ele>1539</ele>
        <time>2012-05-15T14:25:29Z</time>
      </trkpt>
      <trkpt lat="43.95052" lon="7.24312">
        <ele>1539</ele>
        <time>2012-05-15T14:26:34Z</time>
      </trkpt>
      <trkpt lat="43.95053" lon="7.24312">
        <ele>1539</ele>
        <time>2012-05-15T14:26:46Z</time>
      </trkpt>
      <trkpt lat="43.9505" lon="7.24312">
        <ele>1539</ele>
        <time>2012-05-15T14:26:57Z</time>
      </trkpt>
      <trkpt lat="43.95049" lon="7.24312">
        <ele>1539</ele>
        <time>2012-05-15T14:27:10Z</time>
      </trkpt>
      <trkpt lat="43.95036" lon="7.24322">
        <ele>1538</ele>
        <time>2012-05-15T14:27:19Z</time>
      </trkpt>
      <trkpt lat="43.95034" lon="7.24324">
        <ele>1536</ele>
        <time>2012-05-15T14:27:37Z</time>
      </trkpt>
      <trkpt lat="43.95022" lon="7.24332">
        <ele>1535</ele>
        <time>2012-05-15T14:27:46Z</time>
      </trkpt>
      <trkpt lat="43.95012" lon="7.24343">
        <ele>1532</ele>
        <time>2012-05-15T14:27:55Z</time>
      </trkpt>
      <trkpt lat="43.95007" lon="7.24347">
        <ele>1529</ele>
        <time>2012-05-15T14:28:06Z</time>
      </trkpt>
      <trkpt lat="43.94993" lon="7.24356">
        <ele>1527</ele>
        <time>2012-05-15T14:28:15Z</time>
      </trkpt>
      <trkpt lat="43.94981" lon="7.24363">
        <ele>1525</ele>
        <time>2012-05-15T14:28:24Z</time>
      </trkpt>
      <trkpt lat="43.9496" lon="7.24357">
        <ele>1520</ele>
        <time>2012-05-15T14:28:33Z</time>
      </trkpt>
      <trkpt lat="43.94943" lon="7.24348">
        <ele>1518</ele>
        <time>2012-05-15T14:28:42Z</time>
      </trkpt>
      <trkpt lat="43.94931" lon="7.24346">
        <ele>1518</ele>
        <time>2012-05-15T14:28:51Z</time>
      </trkpt>
      <trkpt lat="43.94912" lon="7.24368">
        <ele>1518</ele>
        <time>2012-05-15T14:29:00Z</time>
      </trkpt>
      <trkpt lat="43.94898" lon="7.24388">
        <ele>1514</ele>
        <time>2012-05-15T14:29:09Z</time>
      </trkpt>
      <trkpt lat="43.94884" lon="7.24398">
        <ele>1508</ele>
        <time>2012-05-15T14:29:18Z</time>
      </trkpt>
      <trkpt lat="43.9487" lon="7.24395">
        <ele>1502</ele>
        <time>2012-05-15T14:29:28Z</time>
      </trkpt>
      <trkpt lat="43.94878" lon="7.24381">
        <ele>1497</ele>
        <time>2012-05-15T14:29:38Z</time>
      </trkpt>
      <trkpt lat="43.94875" lon="7.24381">
        <ele>1496</ele>
        <time>2012-05-15T14:29:47Z</time>
      </trkpt>
      <trkpt lat="43.9488" lon="7.24375">
        <ele>1494</ele>
        <time>2012-05-15T14:29:56Z</time>
      </trkpt>
      <trkpt lat="43.94886" lon="7.24349">
        <ele>1492</ele>
        <time>2012-05-15T14:30:05Z</time>
      </trkpt>
      <trkpt lat="43.94887" lon="7.24335">
        <ele>1491</ele>
        <time>2012-05-15T14:30:18Z</time>
      </trkpt>
      <trkpt lat="43.94879" lon="7.2435">
        <ele>1486</ele>
        <time>2012-05-15T14:30:28Z</time>
      </trkpt>
      <trkpt lat="43.94881" lon="7.24348">
        <ele>1485</ele>
        <time>2012-05-15T14:30:40Z</time>
      </trkpt>
      <trkpt lat="43.9488" lon="7.24343">
        <ele>1485</ele>
        <time>2012-05-15T14:30:49Z</time>
      </trkpt>
      <trkpt lat="43.94874" lon="7.24344">
        <ele>1482</ele>
        <time>2012-05-15T14:30:59Z</time>
      </trkpt>
      <trkpt lat="43.9487" lon="7.24349">
        <ele>1478</ele>
        <time>2012-05-15T14:31:10Z</time>
      </trkpt>
      <trkpt lat="43.94863" lon="7.24361">
        <ele>1474</ele>
        <time>2012-05-15T14:31:20Z</time>
      </trkpt>
      <trkpt lat="43.94843" lon="7.24385">
        <ele>1472</ele>
        <time>2012-05-15T14:31:29Z</time>
      </trkpt>
      <trkpt lat="43.94824" lon="7.24402">
        <ele>1470</ele>
        <time>2012-05-15T14:31:40Z</time>
      </trkpt>
      <trkpt lat="43.94815" lon="7.24409">
        <ele>1470</ele>
        <time>2012-05-15T14:31:49Z</time>
      </trkpt>
      <trkpt lat="43.94795" lon="7.2442">
        <ele>1467</ele>
        <time>2012-05-15T14:31:58Z</time>
      </trkpt>
      <trkpt lat="43.94786" lon="7.24424">
        <ele>1463</ele>
        <time>2012-05-15T14:32:08Z</time>
      </trkpt>
      <trkpt lat="43.94791" lon="7.24407">
        <ele>1460</ele>
        <time>2012-05-15T14:32:17Z</time>
      </trkpt>
      <trkpt lat="43.94791" lon="7.24396">
        <ele>1453</ele>
        <time>2012-05-15T14:32:27Z</time>
      </trkpt>
      <trkpt lat="43.94777" lon="7.24404">
        <ele>1452</ele>
        <time>2012-05-15T14:32:36Z</time>
      </trkpt>
      <trkpt lat="43.94775" lon="7.2439">
        <ele>1448</ele>
        <time>2012-05-15T14:32:45Z</time>
      </trkpt>
      <trkpt lat="43.9478" lon="7.24368">
        <ele>1443</ele>
        <time>2012-05-15T14:32:54Z</time>
      </trkpt>
      <trkpt lat="43.94765" lon="7.24373">
        <ele>1439</ele>
        <time>2012-05-15T14:33:03Z</time>
      </trkpt>
      <trkpt lat="43.9476" lon="7.24371">
        <ele>1436</ele>
        <time>2012-05-15T14:33:13Z</time>
      </trkpt>
      <trkpt lat="43.94752" lon="7.24359">
        <ele>1433</ele>
        <time>2012-05-15T14:33:23Z</time>
      </trkpt>
      <trkpt lat="43.94754" lon="7.24351">
        <ele>1430</ele>
        <time>2012-05-15T14:33:34Z</time>
      </trkpt>
      <trkpt lat="43.94745" lon="7.24351">
        <ele>1427</ele>
        <time>2012-05-15T14:33:43Z</time>
      </trkpt>
      <trkpt lat="43.94732" lon="7.24358">
        <ele>1422</ele>
        <time>2012-05-15T14:33:52Z</time>
      </trkpt>
      <trkpt lat="43.94723" lon="7.24351">
        <ele>1415</ele>
        <time>2012-05-15T14:34:01Z</time>
      </trkpt>
      <trkpt lat="43.94715" lon="7.2435">
        <ele>1410</ele>
        <time>2012-05-15T14:34:10Z</time>
      </trkpt>
      <trkpt lat="43.94711" lon="7.24352">
        <ele>1409</ele>
        <time>2012-05-15T14:34:22Z</time>
      </trkpt>
      <trkpt lat="43.94705" lon="7.24347">
        <ele>1409</ele>
        <time>2012-05-15T14:34:31Z</time>
      </trkpt>
      <trkpt lat="43.94702" lon="7.24343">
        <ele>1404</ele>
        <time>2012-05-15T14:34:40Z</time>
      </trkpt>
      <trkpt lat="43.94697" lon="7.24337">
        <ele>1400</ele>
        <time>2012-05-15T14:34:49Z</time>
      </trkpt>
      <trkpt lat="43.94695" lon="7.24327">
        <ele>1396</ele>
        <time>2012-05-15T14:34:58Z</time>
      </trkpt>
      <trkpt lat="43.94683" lon="7.24321">
        <ele>1392</ele>
        <time>2012-05-15T14:35:07Z</time>
      </trkpt>
      <trkpt lat="43.94673" lon="7.24311">
        <ele>1388</ele>
        <time>2012-05-15T14:35:16Z</time>
      </trkpt>
      <trkpt lat="43.94675" lon="7.243">
        <ele>1384</ele>
        <time>2012-05-15T14:35:25Z</time>
      </trkpt>
      <trkpt lat="43.94656" lon="7.24287">
        <ele>1378</ele>
        <time>2012-05-15T14:35:35Z</time>
      </trkpt>
      <trkpt lat="43.94625" lon="7.24249">
        <ele>1373</ele>
        <time>2012-05-15T14:35:44Z</time>
      </trkpt>
      <trkpt lat="43.94618" lon="7.24234">
        <ele>1370</ele>
        <time>2012-05-15T14:35:55Z</time>
      </trkpt>
      <trkpt lat="43.94622" lon="7.24244">
        <ele>1367</ele>
        <time>2012-05-15T14:36:04Z</time>
      </trkpt>
      <trkpt lat="43.94627" lon="7.24251">
        <ele>1367</ele>
        <time>2012-05-15T14:36:13Z</time>
      </trkpt>
      <trkpt lat="43.94633" lon="7.24264">
        <ele>1365</ele>
        <time>2012-05-15T14:36:23Z</time>
      </trkpt>
      <trkpt lat="43.94638" lon="7.24275">
        <ele>1365</ele>
        <time>2012-05-15T14:36:33Z</time>
      </trkpt>
      <trkpt lat="43.94633" lon="7.24277">
        <ele>1365</ele>
        <time>2012-05-15T14:37:00Z</time>
      </trkpt>
      <trkpt lat="43.94632" lon="7.24275">
        <ele>1365</ele>
        <time>2012-05-15T14:37:13Z</time>
      </trkpt>
      <trkpt lat="43.94632" lon="7.24277">
        <ele>1365</ele>
        <time>2012-05-15T14:37:32Z</time>
      </trkpt>
      <trkpt lat="43.94633" lon="7.24276">
        <ele>1365</ele>
        <time>2012-05-15T14:38:05Z</time>
      </trkpt>
      <trkpt lat="43.94633" lon="7.24263">
        <ele>1365</ele>
        <time>2012-05-15T14:38:14Z</time>
      </trkpt>
      <trkpt lat="43.94627" lon="7.24253">
        <ele>1365</ele>
        <time>2012-05-15T14:38:23Z</time>
      </trkpt>
      <trkpt lat="43.94622" lon="7.24242">
        <ele>1365</ele>
        <time>2012-05-15T14:38:33Z</time>
      </trkpt>
      <trkpt lat="43.94622" lon="7.24242">
        <ele>1365</ele>
        <time>2012-05-15T14:38:47Z</time>
      </trkpt>
      <trkpt lat="43.94627" lon="7.24255">
        <ele>1365</ele>
        <time>2012-05-15T14:38:56Z</time>
      </trkpt>
      <trkpt lat="43.94635" lon="7.24274">
        <ele>1365</ele>
        <time>2012-05-15T14:39:07Z</time>
      </trkpt>
      <trkpt lat="43.94635" lon="7.24273">
        <ele>1365</ele>
        <time>2012-05-15T14:39:34Z</time>
      </trkpt>
      <trkpt lat="43.94631" lon="7.24259">
        <ele>1365</ele>
        <time>2012-05-15T14:39:43Z</time>
      </trkpt>
      <trkpt lat="43.94625" lon="7.24247">
        <ele>1365</ele>
        <time>2012-05-15T14:39:53Z</time>
      </trkpt>
      <trkpt lat="43.9462" lon="7.24239">
        <ele>1365</ele>
        <time>2012-05-15T14:40:02Z</time>
      </trkpt>
      <trkpt lat="43.94617" lon="7.24234">
        <ele>1365</ele>
        <time>2012-05-15T14:40:13Z</time>
      </trkpt>
      <trkpt lat="43.94616" lon="7.2423">
        <ele>1365</ele>
        <time>2012-05-15T14:40:22Z</time>
      </trkpt>
      <trkpt lat="43.94606" lon="7.24208">
        <ele>1365</ele>
        <time>2012-05-15T14:40:31Z</time>
      </trkpt>
      <trkpt lat="43.9459" lon="7.24169">
        <ele>1368</ele>
        <time>2012-05-15T14:40:41Z</time>
      </trkpt>
      <trkpt lat="43.94568" lon="7.24136">
        <ele>1368</ele>
        <time>2012-05-15T14:40:50Z</time>
      </trkpt>
      <trkpt lat="43.94556" lon="7.24104">
        <ele>1368</ele>
        <time>2012-05-15T14:40:59Z</time>
      </trkpt>
      <trkpt lat="43.94558" lon="7.24071">
        <ele>1369</ele>
        <time>2012-05-15T14:41:08Z</time>
      </trkpt>
      <trkpt lat="43.94556" lon="7.24045">
        <ele>1370</ele>
        <time>2012-05-15T14:41:18Z</time>
      </trkpt>
      <trkpt lat="43.94554" lon="7.24003">
        <ele>1370</ele>
        <time>2012-05-15T14:41:28Z</time>
      </trkpt>
      <trkpt lat="43.94547" lon="7.23978">
        <ele>1370</ele>
        <time>2012-05-15T14:41:38Z</time>
      </trkpt>
      <trkpt lat="43.94542" lon="7.23975">
        <ele>1370</ele>
        <time>2012-05-15T14:41:48Z</time>
      </trkpt>
      <trkpt lat="43.94525" lon="7.23983">
        <ele>1367</ele>
        <time>2012-05-15T14:41:57Z</time>
      </trkpt>
      <trkpt lat="43.94494" lon="7.24003">
        <ele>1364</ele>
        <time>2012-05-15T14:42:06Z</time>
      </trkpt>
      <trkpt lat="43.94459" lon="7.24013">
        <ele>1360</ele>
        <time>2012-05-15T14:42:15Z</time>
      </trkpt>
      <trkpt lat="43.94449" lon="7.24012">
        <ele>1358</ele>
        <time>2012-05-15T14:42:25Z</time>
      </trkpt>
      <trkpt lat="43.94436" lon="7.24013">
        <ele>1358</ele>
        <time>2012-05-15T14:42:35Z</time>
      </trkpt>
      <trkpt lat="43.94414" lon="7.24006">
        <ele>1358</ele>
        <time>2012-05-15T14:42:44Z</time>
      </trkpt>
      <trkpt lat="43.94377" lon="7.24006">
        <ele>1358</ele>
        <time>2012-05-15T14:42:53Z</time>
      </trkpt>
      <trkpt lat="43.94334" lon="7.24007">
        <ele>1358</ele>
        <time>2012-05-15T14:43:03Z</time>
      </trkpt>
      <trkpt lat="43.94288" lon="7.23994">
        <ele>1358</ele>
        <time>2012-05-15T14:43:12Z</time>
      </trkpt>
      <trkpt lat="43.94236" lon="7.23975">
        <ele>1353</ele>
        <time>2012-05-15T14:43:21Z</time>
      </trkpt>
      <trkpt lat="43.94227" lon="7.2389">
        <ele>1351</ele>
        <time>2012-05-15T14:43:30Z</time>
      </trkpt>
      <trkpt lat="43.9423" lon="7.23883">
        <ele>1348</ele>
        <time>2012-05-15T14:43:52Z</time>
      </trkpt>
      <trkpt lat="43.94233" lon="7.2387">
        <ele>1346</ele>
        <time>2012-05-15T14:44:02Z</time>
      </trkpt>
      <trkpt lat="43.9425" lon="7.23793">
        <ele>1341</ele>
        <time>2012-05-15T14:44:11Z</time>
      </trkpt>
      <trkpt lat="43.94276" lon="7.23719">
        <ele>1332</ele>
        <time>2012-05-15T14:44:20Z</time>
      </trkpt>
      <trkpt lat="43.94275" lon="7.23715">
        <ele>1329</ele>
        <time>2012-05-15T14:44:30Z</time>
      </trkpt>
      <trkpt lat="43.94274" lon="7.23715">
        <ele>1329</ele>
        <time>2012-05-15T14:44:40Z</time>
      </trkpt>
      <trkpt lat="43.94269" lon="7.23714">
        <ele>1327</ele>
        <time>2012-05-15T14:44:54Z</time>
      </trkpt>
      <trkpt lat="43.94261" lon="7.23721">
        <ele>1327</ele>
        <time>2012-05-15T14:45:03Z</time>
      </trkpt>
      <trkpt lat="43.94259" lon="7.23724">
        <ele>1325</ele>
        <time>2012-05-15T14:45:21Z</time>
      </trkpt>
      <trkpt lat="43.94264" lon="7.2373">
        <ele>1325</ele>
        <time>2012-05-15T14:45:32Z</time>
      </trkpt>
      <trkpt lat="43.94265" lon="7.2373">
        <ele>1325</ele>
        <time>2012-05-15T14:45:47Z</time>
      </trkpt>
      <trkpt lat="43.94264" lon="7.23731">
        <ele>1325</ele>
        <time>2012-05-15T14:46:14Z</time>
      </trkpt>
      <trkpt lat="43.94261" lon="7.23733">
        <ele>1325</ele>
        <time>2012-05-15T14:46:34Z</time>
      </trkpt>
      <trkpt lat="43.94261" lon="7.23732">
        <ele>1325</ele>
        <time>2012-05-15T14:48:15Z</time>
      </trkpt>
      <trkpt lat="43.94262" lon="7.23726">
        <ele>1325</ele>
        <time>2012-05-15T14:48:25Z</time>
      </trkpt>
      <trkpt lat="43.94268" lon="7.23716">
        <ele>1325</ele>
        <time>2012-05-15T14:48:34Z</time>
      </trkpt>
      <trkpt lat="43.94272" lon="7.23715">
        <ele>1325</ele>
        <time>2012-05-15T14:48:44Z</time>
      </trkpt>
      <trkpt lat="43.94255" lon="7.23732">
        <ele>1325</ele>
        <time>2012-05-15T14:48:53Z</time>
      </trkpt>
      <trkpt lat="43.94227" lon="7.23794">
        <ele>1320</ele>
        <time>2012-05-15T14:49:02Z</time>
      </trkpt>
      <trkpt lat="43.942" lon="7.23863">
        <ele>1314</ele>
        <time>2012-05-15T14:49:11Z</time>
      </trkpt>
      <trkpt lat="43.9414" lon="7.23862">
        <ele>1306</ele>
        <time>2012-05-15T14:49:20Z</time>
      </trkpt>
      <trkpt lat="43.94081" lon="7.23836">
        <ele>1299</ele>
        <time>2012-05-15T14:49:29Z</time>
      </trkpt>
      <trkpt lat="43.94075" lon="7.23896">
        <ele>1292</ele>
        <time>2012-05-15T14:49:38Z</time>
      </trkpt>
      <trkpt lat="43.94049" lon="7.23935">
        <ele>1287</ele>
        <time>2012-05-15T14:49:47Z</time>
      </trkpt>
      <trkpt lat="43.94006" lon="7.23944">
        <ele>1282</ele>
        <time>2012-05-15T14:49:56Z</time>
      </trkpt>
      <trkpt lat="43.93966" lon="7.23954">
        <ele>1277</ele>
        <time>2012-05-15T14:50:05Z</time>
      </trkpt>
      <trkpt lat="43.93922" lon="7.23975">
        <ele>1273</ele>
        <time>2012-05-15T14:50:14Z</time>
      </trkpt>
      <trkpt lat="43.93877" lon="7.23999">
        <ele>1272</ele>
        <time>2012-05-15T14:50:23Z</time>
      </trkpt>
      <trkpt lat="43.93842" lon="7.23984">
        <ele>1269</ele>
        <time>2012-05-15T14:50:32Z</time>
      </trkpt>
      <trkpt lat="43.93808" lon="7.23976">
        <ele>1264</ele>
        <time>2012-05-15T14:50:41Z</time>
      </trkpt>
      <trkpt lat="43.93788" lon="7.24018">
        <ele>1259</ele>
        <time>2012-05-15T14:50:50Z</time>
      </trkpt>
      <trkpt lat="43.93792" lon="7.24069">
        <ele>1252</ele>
        <time>2012-05-15T14:50:59Z</time>
      </trkpt>
      <trkpt lat="43.93799" lon="7.24125">
        <ele>1247</ele>
        <time>2012-05-15T14:51:08Z</time>
      </trkpt>
      <trkpt lat="43.9379" lon="7.24166">
        <ele>1244</ele>
        <time>2012-05-15T14:51:17Z</time>
      </trkpt>
      <trkpt lat="43.93774" lon="7.24204">
        <ele>1240</ele>
        <time>2012-05-15T14:51:26Z</time>
      </trkpt>
      <trkpt lat="43.9374" lon="7.24237">
        <ele>1238</ele>
        <time>2012-05-15T14:51:35Z</time>
      </trkpt>
      <trkpt lat="43.93707" lon="7.24263">
        <ele>1235</ele>
        <time>2012-05-15T14:51:44Z</time>
      </trkpt>
      <trkpt lat="43.93674" lon="7.24294">
        <ele>1232</ele>
        <time>2012-05-15T14:51:53Z</time>
      </trkpt>
      <trkpt lat="43.93653" lon="7.24326">
        <ele>1229</ele>
        <time>2012-05-15T14:52:02Z</time>
      </trkpt>
      <trkpt lat="43.93628" lon="7.24338">
        <ele>1226</ele>
        <time>2012-05-15T14:52:12Z</time>
      </trkpt>
      <trkpt lat="43.93608" lon="7.24341">
        <ele>1224</ele>
        <time>2012-05-15T14:52:21Z</time>
      </trkpt>
      <trkpt lat="43.93572" lon="7.24349">
        <ele>1222</ele>
        <time>2012-05-15T14:52:30Z</time>
      </trkpt>
      <trkpt lat="43.93545" lon="7.24352">
        <ele>1222</ele>
        <time>2012-05-15T14:52:39Z</time>
      </trkpt>
      <trkpt lat="43.93507" lon="7.24349">
        <ele>1222</ele>
        <time>2012-05-15T14:52:48Z</time>
      </trkpt>
      <trkpt lat="43.93467" lon="7.24325">
        <ele>1222</ele>
        <time>2012-05-15T14:52:57Z</time>
      </trkpt>
      <trkpt lat="43.93424" lon="7.24305">
        <ele>1220</ele>
        <time>2012-05-15T14:53:06Z</time>
      </trkpt>
      <trkpt lat="43.9342" lon="7.24312">
        <ele>1219</ele>
        <time>2012-05-15T14:53:24Z</time>
      </trkpt>
      <trkpt lat="43.93421" lon="7.24313">
        <ele>1218</ele>
        <time>2012-05-15T14:53:54Z</time>
      </trkpt>
      <trkpt lat="43.93422" lon="7.24315">
        <ele>1218</ele>
        <time>2012-05-15T14:54:08Z</time>
      </trkpt>
      <trkpt lat="43.93422" lon="7.24311">
        <ele>1218</ele>
        <time>2012-05-15T14:54:38Z</time>
      </trkpt>
      <trkpt lat="43.93422" lon="7.24313">
        <ele>1218</ele>
        <time>2012-05-15T14:54:55Z</time>
      </trkpt>
      <trkpt lat="43.93421" lon="7.2431">
        <ele>1218</ele>
        <time>2012-05-15T14:55:15Z</time>
      </trkpt>
      <trkpt lat="43.93421" lon="7.24313">
        <ele>1218</ele>
        <time>2012-05-15T14:55:26Z</time>
      </trkpt>
      <trkpt lat="43.93417" lon="7.24316">
        <ele>1218</ele>
        <time>2012-05-15T14:55:35Z</time>
      </trkpt>
      <trkpt lat="43.93375" lon="7.24345">
        <ele>1214</ele>
        <time>2012-05-15T14:55:44Z</time>
      </trkpt>
      <trkpt lat="43.93347" lon="7.24369">
        <ele>1208</ele>
        <time>2012-05-15T14:55:53Z</time>
      </trkpt>
      <trkpt lat="43.93323" lon="7.24377">
        <ele>1204</ele>
        <time>2012-05-15T14:56:02Z</time>
      </trkpt>
      <trkpt lat="43.93304" lon="7.2439">
        <ele>1198</ele>
        <time>2012-05-15T14:56:11Z</time>
      </trkpt>
      <trkpt lat="43.93281" lon="7.24396">
        <ele>1194</ele>
        <time>2012-05-15T14:56:20Z</time>
      </trkpt>
      <trkpt lat="43.93264" lon="7.24412">
        <ele>1187</ele>
        <time>2012-05-15T14:56:29Z</time>
      </trkpt>
      <trkpt lat="43.93246" lon="7.24427">
        <ele>1178</ele>
        <time>2012-05-15T14:56:40Z</time>
      </trkpt>
      <trkpt lat="43.93219" lon="7.24449">
        <ele>1173</ele>
        <time>2012-05-15T14:56:49Z</time>
      </trkpt>
      <trkpt lat="43.9319" lon="7.24498">
        <ele>1166</ele>
        <time>2012-05-15T14:56:58Z</time>
      </trkpt>
      <trkpt lat="43.93179" lon="7.24511">
        <ele>1158</ele>
        <time>2012-05-15T14:57:08Z</time>
      </trkpt>
      <trkpt lat="43.93186" lon="7.24502">
        <ele>1154</ele>
        <time>2012-05-15T14:57:17Z</time>
      </trkpt>
      <trkpt lat="43.9319" lon="7.24498">
        <ele>1154</ele>
        <time>2012-05-15T14:57:35Z</time>
      </trkpt>
      <trkpt lat="43.93188" lon="7.24499">
        <ele>1154</ele>
        <time>2012-05-15T14:57:48Z</time>
      </trkpt>
      <trkpt lat="43.93187" lon="7.24499">
        <ele>1154</ele>
        <time>2012-05-15T14:58:10Z</time>
      </trkpt>
      <trkpt lat="43.93187" lon="7.24497">
        <ele>1155</ele>
        <time>2012-05-15T14:58:58Z</time>
      </trkpt>
      <trkpt lat="43.93187" lon="7.24498">
        <ele>1155</ele>
        <time>2012-05-15T14:59:13Z</time>
      </trkpt>
      <trkpt lat="43.93188" lon="7.24497">
        <ele>1155</ele>
        <time>2012-05-15T14:59:29Z</time>
      </trkpt>
      <trkpt lat="43.93187" lon="7.24499">
        <ele>1155</ele>
        <time>2012-05-15T14:59:48Z</time>
      </trkpt>
      <trkpt lat="43.93185" lon="7.24508">
        <ele>1155</ele>
        <time>2012-05-15T14:59:57Z</time>
      </trkpt>
      <trkpt lat="43.9318" lon="7.24516">
        <ele>1155</ele>
        <time>2012-05-15T15:00:06Z</time>
      </trkpt>
      <trkpt lat="43.93163" lon="7.24536">
        <ele>1155</ele>
        <time>2012-05-15T15:00:15Z</time>
      </trkpt>
      <trkpt lat="43.93147" lon="7.24545">
        <ele>1152</ele>
        <time>2012-05-15T15:00:24Z</time>
      </trkpt>
      <trkpt lat="43.93127" lon="7.24536">
        <ele>1149</ele>
        <time>2012-05-15T15:00:33Z</time>
      </trkpt>
      <trkpt lat="43.931" lon="7.24531">
        <ele>1146</ele>
        <time>2012-05-15T15:00:42Z</time>
      </trkpt>
      <trkpt lat="43.93068" lon="7.24536">
        <ele>1141</ele>
        <time>2012-05-15T15:00:52Z</time>
      </trkpt>
      <trkpt lat="43.93055" lon="7.24517">
        <ele>1139</ele>
        <time>2012-05-15T15:01:01Z</time>
      </trkpt>
      <trkpt lat="43.9303" lon="7.24499">
        <ele>1135</ele>
        <time>2012-05-15T15:01:10Z</time>
      </trkpt>
      <trkpt lat="43.93002" lon="7.24515">
        <ele>1128</ele>
        <time>2012-05-15T15:01:19Z</time>
      </trkpt>
      <trkpt lat="43.92984" lon="7.24509">
        <ele>1121</ele>
        <time>2012-05-15T15:01:28Z</time>
      </trkpt>
      <trkpt lat="43.92956" lon="7.24502">
        <ele>1113</ele>
        <time>2012-05-15T15:01:37Z</time>
      </trkpt>
      <trkpt lat="43.92931" lon="7.24496">
        <ele>1108</ele>
        <time>2012-05-15T15:01:46Z</time>
      </trkpt>
      <trkpt lat="43.92905" lon="7.24504">
        <ele>1106</ele>
        <time>2012-05-15T15:01:55Z</time>
      </trkpt>
      <trkpt lat="43.92881" lon="7.24521">
        <ele>1104</ele>
        <time>2012-05-15T15:02:04Z</time>
      </trkpt>
      <trkpt lat="43.92853" lon="7.24536">
        <ele>1103</ele>
        <time>2012-05-15T15:02:13Z</time>
      </trkpt>
      <trkpt lat="43.92832" lon="7.24524">
        <ele>1101</ele>
        <time>2012-05-15T15:02:22Z</time>
      </trkpt>
      <trkpt lat="43.92795" lon="7.24528">
        <ele>1096</ele>
        <time>2012-05-15T15:02:31Z</time>
      </trkpt>
      <trkpt lat="43.92764" lon="7.24538">
        <ele>1092</ele>
        <time>2012-05-15T15:02:40Z</time>
      </trkpt>
      <trkpt lat="43.92753" lon="7.24544">
        <ele>1088</ele>
        <time>2012-05-15T15:02:49Z</time>
      </trkpt>
      <trkpt lat="43.92739" lon="7.24517">
        <ele>1084</ele>
        <time>2012-05-15T15:02:58Z</time>
      </trkpt>
      <trkpt lat="43.92721" lon="7.24472">
        <ele>1080</ele>
        <time>2012-05-15T15:03:07Z</time>
      </trkpt>
      <trkpt lat="43.92718" lon="7.24465">
        <ele>1079</ele>
        <time>2012-05-15T15:03:16Z</time>
      </trkpt>
      <trkpt lat="43.92706" lon="7.24466">
        <ele>1079</ele>
        <time>2012-05-15T15:03:25Z</time>
      </trkpt>
      <trkpt lat="43.92696" lon="7.24466">
        <ele>1079</ele>
        <time>2012-05-15T15:03:34Z</time>
      </trkpt>
      <trkpt lat="43.92687" lon="7.24465">
        <ele>1079</ele>
        <time>2012-05-15T15:03:44Z</time>
      </trkpt>
      <trkpt lat="43.92681" lon="7.2446">
        <ele>1081</ele>
        <time>2012-05-15T15:04:02Z</time>
      </trkpt>
      <trkpt lat="43.92683" lon="7.2446">
        <ele>1082</ele>
        <time>2012-05-15T15:04:13Z</time>
      </trkpt>
      <trkpt lat="43.9268" lon="7.24459">
        <ele>1084</ele>
        <time>2012-05-15T15:04:25Z</time>
      </trkpt>
      <trkpt lat="43.92681" lon="7.24459">
        <ele>1086</ele>
        <time>2012-05-15T15:04:48Z</time>
      </trkpt>
      <trkpt lat="43.9268" lon="7.24457">
        <ele>1086</ele>
        <time>2012-05-15T15:04:58Z</time>
      </trkpt>
      <trkpt lat="43.92659" lon="7.24445">
        <ele>1083</ele>
        <time>2012-05-15T15:05:07Z</time>
      </trkpt>
      <trkpt lat="43.92621" lon="7.24456">
        <ele>1079</ele>
        <time>2012-05-15T15:05:16Z</time>
      </trkpt>
      <trkpt lat="43.926" lon="7.24462">
        <ele>1076</ele>
        <time>2012-05-15T15:05:26Z</time>
      </trkpt>
      <trkpt lat="43.92584" lon="7.24433">
        <ele>1070</ele>
        <time>2012-05-15T15:05:35Z</time>
      </trkpt>
      <trkpt lat="43.9257" lon="7.24406">
        <ele>1069</ele>
        <time>2012-05-15T15:05:44Z</time>
      </trkpt>
      <trkpt lat="43.92554" lon="7.24408">
        <ele>1063</ele>
        <time>2012-05-15T15:05:53Z</time>
      </trkpt>
      <trkpt lat="43.9254" lon="7.24411">
        <ele>1053</ele>
        <time>2012-05-15T15:06:06Z</time>
      </trkpt>
      <trkpt lat="43.92532" lon="7.24417">
        <ele>1049</ele>
        <time>2012-05-15T15:06:16Z</time>
      </trkpt>
      <trkpt lat="43.92548" lon="7.24433">
        <ele>1044</ele>
        <time>2012-05-15T15:06:25Z</time>
      </trkpt>
      <trkpt lat="43.92536" lon="7.24435">
        <ele>1039</ele>
        <time>2012-05-15T15:06:34Z</time>
      </trkpt>
      <trkpt lat="43.92529" lon="7.24439">
        <ele>1035</ele>
        <time>2012-05-15T15:06:43Z</time>
      </trkpt>
      <trkpt lat="43.92511" lon="7.24448">
        <ele>1031</ele>
        <time>2012-05-15T15:06:52Z</time>
      </trkpt>
      <trkpt lat="43.92489" lon="7.24466">
        <ele>1024</ele>
        <time>2012-05-15T15:07:01Z</time>
      </trkpt>
      <trkpt lat="43.9248" lon="7.24481">
        <ele>1017</ele>
        <time>2012-05-15T15:07:11Z</time>
      </trkpt>
      <trkpt lat="43.9248" lon="7.24491">
        <ele>1012</ele>
        <time>2012-05-15T15:07:20Z</time>
      </trkpt>
      <trkpt lat="43.92466" lon="7.24502">
        <ele>1006</ele>
        <time>2012-05-15T15:07:29Z</time>
      </trkpt>
      <trkpt lat="43.92447" lon="7.24514">
        <ele>1000</ele>
        <time>2012-05-15T15:07:38Z</time>
      </trkpt>
      <trkpt lat="43.92455" lon="7.24518">
        <ele>994</ele>
        <time>2012-05-15T15:07:48Z</time>
      </trkpt>
      <trkpt lat="43.92441" lon="7.24533">
        <ele>988</ele>
        <time>2012-05-15T15:07:57Z</time>
      </trkpt>
      <trkpt lat="43.92434" lon="7.24556">
        <ele>982</ele>
        <time>2012-05-15T15:08:06Z</time>
      </trkpt>
      <trkpt lat="43.92415" lon="7.24579">
        <ele>978</ele>
        <time>2012-05-15T15:08:15Z</time>
      </trkpt>
      <trkpt lat="43.92402" lon="7.24571">
        <ele>976</ele>
        <time>2012-05-15T15:08:25Z</time>
      </trkpt>
      <trkpt lat="43.92393" lon="7.24565">
        <ele>976</ele>
        <time>2012-05-15T15:08:35Z</time>
      </trkpt>
      <trkpt lat="43.92378" lon="7.24566">
        <ele>976</ele>
        <time>2012-05-15T15:08:44Z</time>
      </trkpt>
      <trkpt lat="43.92367" lon="7.2455">
        <ele>976</ele>
        <time>2012-05-15T15:08:53Z</time>
      </trkpt>
      <trkpt lat="43.92366" lon="7.24549">
        <ele>976</ele>
        <time>2012-05-15T15:09:25Z</time>
      </trkpt>
      <trkpt lat="43.92364" lon="7.24547">
        <ele>979</ele>
        <time>2012-05-15T15:09:46Z</time>
      </trkpt>
      <trkpt lat="43.92365" lon="7.24548">
        <ele>979</ele>
        <time>2012-05-15T15:10:03Z</time>
      </trkpt>
      <trkpt lat="43.92366" lon="7.2455">
        <ele>979</ele>
        <time>2012-05-15T15:10:19Z</time>
      </trkpt>
      <trkpt lat="43.92365" lon="7.24548">
        <ele>979</ele>
        <time>2012-05-15T15:10:43Z</time>
      </trkpt>
      <trkpt lat="43.92361" lon="7.24538">
        <ele>979</ele>
        <time>2012-05-15T15:10:52Z</time>
      </trkpt>
      <trkpt lat="43.92347" lon="7.24519">
        <ele>976</ele>
        <time>2012-05-15T15:11:01Z</time>
      </trkpt>
      <trkpt lat="43.92344" lon="7.24507">
        <ele>972</ele>
        <time>2012-05-15T15:11:10Z</time>
      </trkpt>
      <trkpt lat="43.92344" lon="7.24508">
        <ele>972</ele>
        <time>2012-05-15T15:11:21Z</time>
      </trkpt>
      <trkpt lat="43.9234" lon="7.24506">
        <ele>971</ele>
        <time>2012-05-15T15:11:33Z</time>
      </trkpt>
      <trkpt lat="43.9234" lon="7.24504">
        <ele>971</ele>
        <time>2012-05-15T15:11:48Z</time>
      </trkpt>
      <trkpt lat="43.92339" lon="7.24501">
        <ele>971</ele>
        <time>2012-05-15T15:11:59Z</time>
      </trkpt>
      <trkpt lat="43.9233" lon="7.24488">
        <ele>968</ele>
        <time>2012-05-15T15:12:10Z</time>
      </trkpt>
      <trkpt lat="43.92327" lon="7.24491">
        <ele>964</ele>
        <time>2012-05-15T15:12:19Z</time>
      </trkpt>
      <trkpt lat="43.92316" lon="7.24473">
        <ele>962</ele>
        <time>2012-05-15T15:12:28Z</time>
      </trkpt>
      <trkpt lat="43.9231" lon="7.24468">
        <ele>959</ele>
        <time>2012-05-15T15:12:37Z</time>
      </trkpt>
      <trkpt lat="43.9231" lon="7.24457">
        <ele>955</ele>
        <time>2012-05-15T15:12:46Z</time>
      </trkpt>
      <trkpt lat="43.92304" lon="7.24441">
        <ele>951</ele>
        <time>2012-05-15T15:12:55Z</time>
      </trkpt>
      <trkpt lat="43.92308" lon="7.24403">
        <ele>949</ele>
        <time>2012-05-15T15:13:04Z</time>
      </trkpt>
      <trkpt lat="43.92292" lon="7.24388">
        <ele>949</ele>
        <time>2012-05-15T15:13:13Z</time>
      </trkpt>
      <trkpt lat="43.92273" lon="7.24391">
        <ele>955</ele>
        <time>2012-05-15T15:13:22Z</time>
      </trkpt>
      <trkpt lat="43.92258" lon="7.24387">
        <ele>952</ele>
        <time>2012-05-15T15:13:33Z</time>
      </trkpt>
      <trkpt lat="43.92249" lon="7.24387">
        <ele>941</ele>
        <time>2012-05-15T15:13:42Z</time>
      </trkpt>
      <trkpt lat="43.92237" lon="7.24368">
        <ele>932</ele>
        <time>2012-05-15T15:13:51Z</time>
      </trkpt>
      <trkpt lat="43.92215" lon="7.2437">
        <ele>921</ele>
        <time>2012-05-15T15:14:00Z</time>
      </trkpt>
      <trkpt lat="43.92198" lon="7.24345">
        <ele>912</ele>
        <time>2012-05-15T15:14:09Z</time>
      </trkpt>
      <trkpt lat="43.92174" lon="7.24326">
        <ele>911</ele>
        <time>2012-05-15T15:14:18Z</time>
      </trkpt>
      <trkpt lat="43.92157" lon="7.24335">
        <ele>904</ele>
        <time>2012-05-15T15:14:27Z</time>
      </trkpt>
      <trkpt lat="43.92139" lon="7.24356">
        <ele>899</ele>
        <time>2012-05-15T15:14:36Z</time>
      </trkpt>
      <trkpt lat="43.92136" lon="7.24362">
        <ele>895</ele>
        <time>2012-05-15T15:14:45Z</time>
      </trkpt>
      <trkpt lat="43.92124" lon="7.24376">
        <ele>891</ele>
        <time>2012-05-15T15:14:54Z</time>
      </trkpt>
      <trkpt lat="43.92108" lon="7.2437">
        <ele>886</ele>
        <time>2012-05-15T15:15:03Z</time>
      </trkpt>
      <trkpt lat="43.92097" lon="7.24379">
        <ele>880</ele>
        <time>2012-05-15T15:15:12Z</time>
      </trkpt>
      <trkpt lat="43.92082" lon="7.24376">
        <ele>873</ele>
        <time>2012-05-15T15:15:21Z</time>
      </trkpt>
      <trkpt lat="43.92066" lon="7.24364">
        <ele>869</ele>
        <time>2012-05-15T15:15:30Z</time>
      </trkpt>
      <trkpt lat="43.92058" lon="7.24361">
        <ele>866</ele>
        <time>2012-05-15T15:15:39Z</time>
      </trkpt>
      <trkpt lat="43.9205" lon="7.2435">
        <ele>863</ele>
        <time>2012-05-15T15:15:49Z</time>
      </trkpt>
      <trkpt lat="43.92057" lon="7.24354">
        <ele>860</ele>
        <time>2012-05-15T15:15:58Z</time>
      </trkpt>
      <trkpt lat="43.92066" lon="7.24369">
        <ele>860</ele>
        <time>2012-05-15T15:16:08Z</time>
      </trkpt>
      <trkpt lat="43.92067" lon="7.24362">
        <ele>860</ele>
        <time>2012-05-15T15:16:19Z</time>
      </trkpt>
      <trkpt lat="43.92066" lon="7.24361">
        <ele>862</ele>
        <time>2012-05-15T15:16:30Z</time>
      </trkpt>
      <trkpt lat="43.92065" lon="7.24362">
        <ele>864</ele>
        <time>2012-05-15T15:16:45Z</time>
      </trkpt>
      <trkpt lat="43.92065" lon="7.24364">
        <ele>867</ele>
        <time>2012-05-15T15:16:56Z</time>
      </trkpt>
      <trkpt lat="43.92066" lon="7.24363">
        <ele>867</ele>
        <time>2012-05-15T15:17:06Z</time>
      </trkpt>
      <trkpt lat="43.92068" lon="7.24362">
        <ele>867</ele>
        <time>2012-05-15T15:17:37Z</time>
      </trkpt>
      <trkpt lat="43.92067" lon="7.24363">
        <ele>867</ele>
        <time>2012-05-15T15:17:46Z</time>
      </trkpt>
      <trkpt lat="43.92065" lon="7.2436">
        <ele>867</ele>
        <time>2012-05-15T15:18:01Z</time>
      </trkpt>
      <trkpt lat="43.92064" lon="7.24362">
        <ele>867</ele>
        <time>2012-05-15T15:18:17Z</time>
      </trkpt>
      <trkpt lat="43.92066" lon="7.2436">
        <ele>867</ele>
        <time>2012-05-15T15:18:28Z</time>
      </trkpt>
      <trkpt lat="43.92067" lon="7.24362">
        <ele>867</ele>
        <time>2012-05-15T15:18:44Z</time>
      </trkpt>
      <trkpt lat="43.92062" lon="7.24371">
        <ele>865</ele>
        <time>2012-05-15T15:18:53Z</time>
      </trkpt>
      <trkpt lat="43.92058" lon="7.24358">
        <ele>863</ele>
        <time>2012-05-15T15:19:02Z</time>
      </trkpt>
      <trkpt lat="43.9205" lon="7.24354">
        <ele>860</ele>
        <time>2012-05-15T15:19:25Z</time>
      </trkpt>
      <trkpt lat="43.92051" lon="7.24355">
        <ele>860</ele>
        <time>2012-05-15T15:19:43Z</time>
      </trkpt>
      <trkpt lat="43.92048" lon="7.24376">
        <ele>859</ele>
        <time>2012-05-15T15:19:52Z</time>
      </trkpt>
      <trkpt lat="43.92033" lon="7.24402">
        <ele>854</ele>
        <time>2012-05-15T15:20:01Z</time>
      </trkpt>
      <trkpt lat="43.92018" lon="7.24433">
        <ele>847</ele>
        <time>2012-05-15T15:20:10Z</time>
      </trkpt>
      <trkpt lat="43.91985" lon="7.24473">
        <ele>839</ele>
        <time>2012-05-15T15:20:19Z</time>
      </trkpt>
      <trkpt lat="43.91947" lon="7.24488">
        <ele>832</ele>
        <time>2012-05-15T15:20:28Z</time>
      </trkpt>
      <trkpt lat="43.91904" lon="7.24526">
        <ele>825</ele>
        <time>2012-05-15T15:20:37Z</time>
      </trkpt>
      <trkpt lat="43.91867" lon="7.24539">
        <ele>816</ele>
        <time>2012-05-15T15:20:46Z</time>
      </trkpt>
      <trkpt lat="43.91841" lon="7.2457">
        <ele>813</ele>
        <time>2012-05-15T15:20:55Z</time>
      </trkpt>
      <trkpt lat="43.91811" lon="7.24624">
        <ele>812</ele>
        <time>2012-05-15T15:21:04Z</time>
      </trkpt>
      <trkpt lat="43.91788" lon="7.24668">
        <ele>812</ele>
        <time>2012-05-15T15:21:13Z</time>
      </trkpt>
      <trkpt lat="43.91757" lon="7.24715">
        <ele>813</ele>
        <time>2012-05-15T15:21:22Z</time>
      </trkpt>
      <trkpt lat="43.91714" lon="7.24757">
        <ele>812</ele>
        <time>2012-05-15T15:21:31Z</time>
      </trkpt>
      <trkpt lat="43.91701" lon="7.24756">
        <ele>813</ele>
        <time>2012-05-15T15:21:42Z</time>
      </trkpt>
      <trkpt lat="43.917" lon="7.24757">
        <ele>824</ele>
        <time>2012-05-15T15:21:54Z</time>
      </trkpt>
      <trkpt lat="43.917" lon="7.2476">
        <ele>833</ele>
        <time>2012-05-15T15:22:03Z</time>
      </trkpt>
      <trkpt lat="43.91698" lon="7.24759">
        <ele>834</ele>
        <time>2012-05-15T15:22:15Z</time>
      </trkpt>
      <trkpt lat="43.91695" lon="7.24756">
        <ele>834</ele>
        <time>2012-05-15T15:22:26Z</time>
      </trkpt>
      <trkpt lat="43.91694" lon="7.24753">
        <ele>835</ele>
        <time>2012-05-15T15:22:37Z</time>
      </trkpt>
      <trkpt lat="43.91694" lon="7.24752">
        <ele>833</ele>
        <time>2012-05-15T15:22:51Z</time>
      </trkpt>
      <trkpt lat="43.91697" lon="7.24754">
        <ele>833</ele>
        <time>2012-05-15T15:23:10Z</time>
      </trkpt>
      <trkpt lat="43.91698" lon="7.24754">
        <ele>833</ele>
        <time>2012-05-15T15:23:29Z</time>
      </trkpt>
      <trkpt lat="43.91698" lon="7.24756">
        <ele>833</ele>
        <time>2012-05-15T15:23:57Z</time>
      </trkpt>
      <trkpt lat="43.91697" lon="7.24757">
        <ele>833</ele>
        <time>2012-05-15T15:24:08Z</time>
      </trkpt>
      <trkpt lat="43.91697" lon="7.24756">
        <ele>833</ele>
        <time>2012-05-15T15:24:29Z</time>
      </trkpt>
      <trkpt lat="43.91698" lon="7.24759">
        <ele>833</ele>
        <time>2012-05-15T15:24:39Z</time>
      </trkpt>
      <trkpt lat="43.91697" lon="7.2476">
        <ele>833</ele>
        <time>2012-05-15T15:24:51Z</time>
      </trkpt>
      <trkpt lat="43.91695" lon="7.2476">
        <ele>833</ele>
        <time>2012-05-15T15:25:02Z</time>
      </trkpt>
      <trkpt lat="43.91695" lon="7.24759">
        <ele>833</ele>
        <time>2012-05-15T15:25:19Z</time>
      </trkpt>
      <trkpt lat="43.91697" lon="7.24762">
        <ele>828</ele>
        <time>2012-05-15T15:25:32Z</time>
      </trkpt>
      <trkpt lat="43.91696" lon="7.24756">
        <ele>827</ele>
        <time>2012-05-15T15:25:43Z</time>
      </trkpt>
      <trkpt lat="43.91695" lon="7.24753">
        <ele>827</ele>
        <time>2012-05-15T15:25:52Z</time>
      </trkpt>
      <trkpt lat="43.91697" lon="7.24748">
        <ele>827</ele>
        <time>2012-05-15T15:26:03Z</time>
      </trkpt>
      <trkpt lat="43.91702" lon="7.24739">
        <ele>828</ele>
        <time>2012-05-15T15:26:13Z</time>
      </trkpt>
      <trkpt lat="43.917" lon="7.24754">
        <ele>824</ele>
        <time>2012-05-15T15:26:23Z</time>
      </trkpt>
      <trkpt lat="43.91696" lon="7.2476">
        <ele>825</ele>
        <time>2012-05-15T15:26:39Z</time>
      </trkpt>
      <trkpt lat="43.91696" lon="7.24758">
        <ele>826</ele>
        <time>2012-05-15T15:26:48Z</time>
      </trkpt>
      <trkpt lat="43.91697" lon="7.24754">
        <ele>828</ele>
        <time>2012-05-15T15:27:02Z</time>
      </trkpt>
      <trkpt lat="43.91698" lon="7.24752">
        <ele>828</ele>
        <time>2012-05-15T15:27:12Z</time>
      </trkpt>
      <trkpt lat="43.91697" lon="7.24752">
        <ele>825</ele>
        <time>2012-05-15T15:27:32Z</time>
      </trkpt>
      <trkpt lat="43.91696" lon="7.24754">
        <ele>825</ele>
        <time>2012-05-15T15:27:43Z</time>
      </trkpt>
      <trkpt lat="43.91696" lon="7.24755">
        <ele>830</ele>
        <time>2012-05-15T15:28:09Z</time>
      </trkpt>
      <trkpt lat="43.91695" lon="7.24755">
        <ele>831</ele>
        <time>2012-05-15T15:28:18Z</time>
      </trkpt>
      <trkpt lat="43.91695" lon="7.24757">
        <ele>835</ele>
        <time>2012-05-15T15:28:30Z</time>
      </trkpt>
      <trkpt lat="43.91695" lon="7.24763">
        <ele>839</ele>
        <time>2012-05-15T15:28:42Z</time>
      </trkpt>
      <trkpt lat="43.91698" lon="7.2476">
        <ele>844</ele>
        <time>2012-05-15T15:28:52Z</time>
      </trkpt>
      <trkpt lat="43.91699" lon="7.24757">
        <ele>850</ele>
        <time>2012-05-15T15:29:03Z</time>
      </trkpt>
      <trkpt lat="43.91698" lon="7.24754">
        <ele>850</ele>
        <time>2012-05-15T15:29:15Z</time>
      </trkpt>
      <trkpt lat="43.91699" lon="7.24752">
        <ele>848</ele>
        <time>2012-05-15T15:29:28Z</time>
      </trkpt>
      <trkpt lat="43.91699" lon="7.2475">
        <ele>845</ele>
        <time>2012-05-15T15:29:42Z</time>
      </trkpt>
      <trkpt lat="43.917" lon="7.24748">
        <ele>841</ele>
        <time>2012-05-15T15:30:04Z</time>
      </trkpt>
      <trkpt lat="43.91697" lon="7.24755">
        <ele>838</ele>
        <time>2012-05-15T15:30:22Z</time>
      </trkpt>
      <trkpt lat="43.91697" lon="7.24756">
        <ele>838</ele>
        <time>2012-05-15T15:30:39Z</time>
      </trkpt>
      <trkpt lat="43.91695" lon="7.24753">
        <ele>832</ele>
        <time>2012-05-15T15:30:48Z</time>
      </trkpt>
      <trkpt lat="43.91695" lon="7.24742">
        <ele>828</ele>
        <time>2012-05-15T15:30:57Z</time>
      </trkpt>
      <trkpt lat="43.91702" lon="7.24723">
        <ele>820</ele>
        <time>2012-05-15T15:31:07Z</time>
      </trkpt>
      <trkpt lat="43.91711" lon="7.24688">
        <ele>815</ele>
        <time>2012-05-15T15:31:16Z</time>
      </trkpt>
      <trkpt lat="43.91703" lon="7.24636">
        <ele>813</ele>
        <time>2012-05-15T15:31:25Z</time>
      </trkpt>
      <trkpt lat="43.91715" lon="7.2458">
        <ele>808</ele>
        <time>2012-05-15T15:31:35Z</time>
      </trkpt>
      <trkpt lat="43.91714" lon="7.24501">
        <ele>799</ele>
        <time>2012-05-15T15:31:44Z</time>
      </trkpt>
      <trkpt lat="43.91707" lon="7.24473">
        <ele>790</ele>
        <time>2012-05-15T15:31:53Z</time>
      </trkpt>
      <trkpt lat="43.91705" lon="7.24464">
        <ele>784</ele>
        <time>2012-05-15T15:32:03Z</time>
      </trkpt>
      <trkpt lat="43.91707" lon="7.24453">
        <ele>780</ele>
        <time>2012-05-15T15:32:13Z</time>
      </trkpt>
      <trkpt lat="43.91715" lon="7.24416">
        <ele>776</ele>
        <time>2012-05-15T15:32:22Z</time>
      </trkpt>
      <trkpt lat="43.91707" lon="7.24372">
        <ele>771</ele>
        <time>2012-05-15T15:32:31Z</time>
      </trkpt>
      <trkpt lat="43.91683" lon="7.24326">
        <ele>766</ele>
        <time>2012-05-15T15:32:41Z</time>
      </trkpt>
      <trkpt lat="43.91659" lon="7.24329">
        <ele>762</ele>
        <time>2012-05-15T15:32:51Z</time>
      </trkpt>
      <trkpt lat="43.91639" lon="7.24324">
        <ele>760</ele>
        <time>2012-05-15T15:33:01Z</time>
      </trkpt>
      <trkpt lat="43.91612" lon="7.24326">
        <ele>760</ele>
        <time>2012-05-15T15:33:10Z</time>
      </trkpt>
      <trkpt lat="43.91586" lon="7.24346">
        <ele>760</ele>
        <time>2012-05-15T15:33:19Z</time>
      </trkpt>
      <trkpt lat="43.91562" lon="7.24341">
        <ele>760</ele>
        <time>2012-05-15T15:33:28Z</time>
      </trkpt>
      <trkpt lat="43.91542" lon="7.24328">
        <ele>760</ele>
        <time>2012-05-15T15:33:37Z</time>
      </trkpt>
      <trkpt lat="43.91524" lon="7.24313">
        <ele>760</ele>
        <time>2012-05-15T15:33:46Z</time>
      </trkpt>
      <trkpt lat="43.91514" lon="7.24289">
        <ele>761</ele>
        <time>2012-05-15T15:33:55Z</time>
      </trkpt>
      <trkpt lat="43.91507" lon="7.24297">
        <ele>763</ele>
        <time>2012-05-15T15:34:10Z</time>
      </trkpt>
      <trkpt lat="43.91503" lon="7.24305">
        <ele>770</ele>
        <time>2012-05-15T15:34:19Z</time>
      </trkpt>
      <trkpt lat="43.91495" lon="7.2431">
        <ele>777</ele>
        <time>2012-05-15T15:34:36Z</time>
      </trkpt>
      <trkpt lat="43.91497" lon="7.24321">
        <ele>784</ele>
        <time>2012-05-15T15:34:45Z</time>
      </trkpt>
      <trkpt lat="43.9149" lon="7.24331">
        <ele>785</ele>
        <time>2012-05-15T15:34:55Z</time>
      </trkpt>
      <trkpt lat="43.91485" lon="7.24342">
        <ele>785</ele>
        <time>2012-05-15T15:35:04Z</time>
      </trkpt>
      <trkpt lat="43.91478" lon="7.24352">
        <ele>785</ele>
        <time>2012-05-15T15:35:14Z</time>
      </trkpt>
      <trkpt lat="43.91477" lon="7.24363">
        <ele>786</ele>
        <time>2012-05-15T15:35:24Z</time>
      </trkpt>
      <trkpt lat="43.91474" lon="7.24372">
        <ele>789</ele>
        <time>2012-05-15T15:35:33Z</time>
      </trkpt>
      <trkpt lat="43.91472" lon="7.24382">
        <ele>790</ele>
        <time>2012-05-15T15:35:42Z</time>
      </trkpt>
      <trkpt lat="43.91469" lon="7.24393">
        <ele>792</ele>
        <time>2012-05-15T15:35:52Z</time>
      </trkpt>
      <trkpt lat="43.91465" lon="7.24406">
        <ele>793</ele>
        <time>2012-05-15T15:36:01Z</time>
      </trkpt>
      <trkpt lat="43.9146" lon="7.24418">
        <ele>794</ele>
        <time>2012-05-15T15:36:10Z</time>
      </trkpt>
      <trkpt lat="43.91459" lon="7.2443">
        <ele>795</ele>
        <time>2012-05-15T15:36:19Z</time>
      </trkpt>
      <trkpt lat="43.91457" lon="7.24443">
        <ele>796</ele>
        <time>2012-05-15T15:36:28Z</time>
      </trkpt>
      <trkpt lat="43.91454" lon="7.24456">
        <ele>796</ele>
        <time>2012-05-15T15:36:38Z</time>
      </trkpt>
      <trkpt lat="43.91451" lon="7.24468">
        <ele>798</ele>
        <time>2012-05-15T15:36:48Z</time>
      </trkpt>
      <trkpt lat="43.91449" lon="7.24479">
        <ele>799</ele>
        <time>2012-05-15T15:36:57Z</time>
      </trkpt>
      <trkpt lat="43.91445" lon="7.24492">
        <ele>800</ele>
        <time>2012-05-15T15:37:06Z</time>
      </trkpt>
      <trkpt lat="43.91439" lon="7.24502">
        <ele>800</ele>
        <time>2012-05-15T15:37:15Z</time>
      </trkpt>
      <trkpt lat="43.9143" lon="7.24506">
        <ele>800</ele>
        <time>2012-05-15T15:37:24Z</time>
      </trkpt>
      <trkpt lat="43.9142" lon="7.24509">
        <ele>800</ele>
        <time>2012-05-15T15:37:34Z</time>
      </trkpt>
      <trkpt lat="43.91411" lon="7.24509">
        <ele>801</ele>
        <time>2012-05-15T15:37:45Z</time>
      </trkpt>
      <trkpt lat="43.91403" lon="7.24508">
        <ele>803</ele>
        <time>2012-05-15T15:37:54Z</time>
      </trkpt>
      <trkpt lat="43.91393" lon="7.24508">
        <ele>804</ele>
        <time>2012-05-15T15:38:05Z</time>
      </trkpt>
      <trkpt lat="43.91385" lon="7.24513">
        <ele>807</ele>
        <time>2012-05-15T15:38:15Z</time>
      </trkpt>
      <trkpt lat="43.91376" lon="7.24515">
        <ele>809</ele>
        <time>2012-05-15T15:38:24Z</time>
      </trkpt>
      <trkpt lat="43.91367" lon="7.24517">
        <ele>810</ele>
        <time>2012-05-15T15:38:34Z</time>
      </trkpt>
      <trkpt lat="43.91358" lon="7.24517">
        <ele>812</ele>
        <time>2012-05-15T15:38:44Z</time>
      </trkpt>
      <trkpt lat="43.91347" lon="7.24518">
        <ele>814</ele>
        <time>2012-05-15T15:38:54Z</time>
      </trkpt>
      <trkpt lat="43.91338" lon="7.24519">
        <ele>814</ele>
        <time>2012-05-15T15:39:04Z</time>
      </trkpt>
      <trkpt lat="43.91328" lon="7.24519">
        <ele>815</ele>
        <time>2012-05-15T15:39:14Z</time>
      </trkpt>
      <trkpt lat="43.9132" lon="7.24513">
        <ele>815</ele>
        <time>2012-05-15T15:39:24Z</time>
      </trkpt>
      <trkpt lat="43.91313" lon="7.24517">
        <ele>815</ele>
        <time>2012-05-15T15:39:33Z</time>
      </trkpt>
      <trkpt lat="43.9128" lon="7.24527">
        <ele>815</ele>
        <time>2012-05-15T15:39:43Z</time>
      </trkpt>
      <trkpt lat="43.91252" lon="7.24531">
        <ele>812</ele>
        <time>2012-05-15T15:39:53Z</time>
      </trkpt>
      <trkpt lat="43.91224" lon="7.24522">
        <ele>808</ele>
        <time>2012-05-15T15:40:03Z</time>
      </trkpt>
      <trkpt lat="43.9118" lon="7.24515">
        <ele>804</ele>
        <time>2012-05-15T15:40:13Z</time>
      </trkpt>
      <trkpt lat="43.9114" lon="7.24503">
        <ele>798</ele>
        <time>2012-05-15T15:40:23Z</time>
      </trkpt>
      <trkpt lat="43.91111" lon="7.24485">
        <ele>794</ele>
        <time>2012-05-15T15:40:33Z</time>
      </trkpt>
      <trkpt lat="43.91076" lon="7.24453">
        <ele>789</ele>
        <time>2012-05-15T15:40:43Z</time>
      </trkpt>
      <trkpt lat="43.91069" lon="7.24423">
        <ele>785</ele>
        <time>2012-05-15T15:40:52Z</time>
      </trkpt>
      <trkpt lat="43.91073" lon="7.24389">
        <ele>783</ele>
        <time>2012-05-15T15:41:01Z</time>
      </trkpt>
      <trkpt lat="43.91068" lon="7.24354">
        <ele>778</ele>
        <time>2012-05-15T15:41:11Z</time>
      </trkpt>
      <trkpt lat="43.91067" lon="7.2435">
        <ele>777</ele>
        <time>2012-05-15T15:41:24Z</time>
      </trkpt>
      <trkpt lat="43.91066" lon="7.24353">
        <ele>777</ele>
        <time>2012-05-15T15:42:15Z</time>
      </trkpt>
      <trkpt lat="43.91067" lon="7.24365">
        <ele>777</ele>
        <time>2012-05-15T15:42:24Z</time>
      </trkpt>
      <trkpt lat="43.91068" lon="7.24366">
        <ele>780</ele>
        <time>2012-05-15T15:43:07Z</time>
      </trkpt>
      <trkpt lat="43.91068" lon="7.24358">
        <ele>780</ele>
        <time>2012-05-15T15:43:16Z</time>
      </trkpt>
      <trkpt lat="43.91066" lon="7.24349">
        <ele>780</ele>
        <time>2012-05-15T15:43:25Z</time>
      </trkpt>
      <trkpt lat="43.91062" lon="7.2432">
        <ele>779</ele>
        <time>2012-05-15T15:43:34Z</time>
      </trkpt>
      <trkpt lat="43.91048" lon="7.24283">
        <ele>777</ele>
        <time>2012-05-15T15:43:43Z</time>
      </trkpt>
      <trkpt lat="43.91018" lon="7.2426">
        <ele>777</ele>
        <time>2012-05-15T15:43:52Z</time>
      </trkpt>
      <trkpt lat="43.90985" lon="7.24231">
        <ele>775</ele>
        <time>2012-05-15T15:44:01Z</time>
      </trkpt>
      <trkpt lat="43.90951" lon="7.24208">
        <ele>775</ele>
        <time>2012-05-15T15:44:10Z</time>
      </trkpt>
      <trkpt lat="43.90936" lon="7.24195">
        <ele>775</ele>
        <time>2012-05-15T15:44:20Z</time>
      </trkpt>
      <trkpt lat="43.90929" lon="7.24191">
        <ele>775</ele>
        <time>2012-05-15T15:44:30Z</time>
      </trkpt>
      <trkpt lat="43.90923" lon="7.2418">
        <ele>775</ele>
        <time>2012-05-15T15:44:40Z</time>
      </trkpt>
      <trkpt lat="43.90918" lon="7.24165">
        <ele>775</ele>
        <time>2012-05-15T15:44:51Z</time>
      </trkpt>
      <trkpt lat="43.90915" lon="7.24151">
        <ele>775</ele>
        <time>2012-05-15T15:45:01Z</time>
      </trkpt>
      <trkpt lat="43.90911" lon="7.24123">
        <ele>775</ele>
        <time>2012-05-15T15:45:10Z</time>
      </trkpt>
      <trkpt lat="43.90906" lon="7.24088">
        <ele>775</ele>
        <time>2012-05-15T15:45:19Z</time>
      </trkpt>
      <trkpt lat="43.90898" lon="7.24068">
        <ele>775</ele>
        <time>2012-05-15T15:45:28Z</time>
      </trkpt>
      <trkpt lat="43.90892" lon="7.24064">
        <ele>775</ele>
        <time>2012-05-15T15:45:37Z</time>
      </trkpt>
      <trkpt lat="43.90884" lon="7.2406">
        <ele>775</ele>
        <time>2012-05-15T15:45:47Z</time>
      </trkpt>
      <trkpt lat="43.90877" lon="7.24052">
        <ele>777</ele>
        <time>2012-05-15T15:45:57Z</time>
      </trkpt>
      <trkpt lat="43.90869" lon="7.24044">
        <ele>779</ele>
        <time>2012-05-15T15:46:08Z</time>
      </trkpt>
      <trkpt lat="43.90865" lon="7.24031">
        <ele>779</ele>
        <time>2012-05-15T15:46:17Z</time>
      </trkpt>
      <trkpt lat="43.90862" lon="7.24004">
        <ele>779</ele>
        <time>2012-05-15T15:46:26Z</time>
      </trkpt>
      <trkpt lat="43.9085" lon="7.23957">
        <ele>779</ele>
        <time>2012-05-15T15:46:35Z</time>
      </trkpt>
      <trkpt lat="43.90814" lon="7.23926">
        <ele>778</ele>
        <time>2012-05-15T15:46:44Z</time>
      </trkpt>
      <trkpt lat="43.90785" lon="7.23887">
        <ele>776</ele>
        <time>2012-05-15T15:46:54Z</time>
      </trkpt>
      <trkpt lat="43.90777" lon="7.23879">
        <ele>776</ele>
        <time>2012-05-15T15:47:04Z</time>
      </trkpt>
      <trkpt lat="43.90771" lon="7.23864">
        <ele>776</ele>
        <time>2012-05-15T15:47:13Z</time>
      </trkpt>
      <trkpt lat="43.90764" lon="7.23823">
        <ele>775</ele>
        <time>2012-05-15T15:47:22Z</time>
      </trkpt>
      <trkpt lat="43.90771" lon="7.23781">
        <ele>773</ele>
        <time>2012-05-15T15:47:31Z</time>
      </trkpt>
      <trkpt lat="43.90788" lon="7.23727">
        <ele>768</ele>
        <time>2012-05-15T15:47:40Z</time>
      </trkpt>
      <trkpt lat="43.90791" lon="7.23678">
        <ele>765</ele>
        <time>2012-05-15T15:47:49Z</time>
      </trkpt>
      <trkpt lat="43.90762" lon="7.23678">
        <ele>765</ele>
        <time>2012-05-15T15:47:58Z</time>
      </trkpt>
      <trkpt lat="43.90722" lon="7.23679">
        <ele>763</ele>
        <time>2012-05-15T15:48:07Z</time>
      </trkpt>
      <trkpt lat="43.90688" lon="7.23666">
        <ele>756</ele>
        <time>2012-05-15T15:48:16Z</time>
      </trkpt>
      <trkpt lat="43.90662" lon="7.23616">
        <ele>750</ele>
        <time>2012-05-15T15:48:25Z</time>
      </trkpt>
      <trkpt lat="43.9065" lon="7.23558">
        <ele>745</ele>
        <time>2012-05-15T15:48:34Z</time>
      </trkpt>
      <trkpt lat="43.90643" lon="7.23512">
        <ele>743</ele>
        <time>2012-05-15T15:48:43Z</time>
      </trkpt>
      <trkpt lat="43.90632" lon="7.23465">
        <ele>743</ele>
        <time>2012-05-15T15:48:52Z</time>
      </trkpt>
      <trkpt lat="43.90612" lon="7.23423">
        <ele>743</ele>
        <time>2012-05-15T15:49:01Z</time>
      </trkpt>
      <trkpt lat="43.90604" lon="7.23427">
        <ele>742</ele>
        <time>2012-05-15T15:49:10Z</time>
      </trkpt>
      <trkpt lat="43.90615" lon="7.23436">
        <ele>747</ele>
        <time>2012-05-15T15:49:20Z</time>
      </trkpt>
      <trkpt lat="43.90618" lon="7.23434">
        <ele>749</ele>
        <time>2012-05-15T15:49:30Z</time>
      </trkpt>
      <trkpt lat="43.90619" lon="7.23432">
        <ele>749</ele>
        <time>2012-05-15T15:49:39Z</time>
      </trkpt>
      <trkpt lat="43.90623" lon="7.23429">
        <ele>749</ele>
        <time>2012-05-15T15:49:48Z</time>
      </trkpt>
      <trkpt lat="43.90623" lon="7.23412">
        <ele>748</ele>
        <time>2012-05-15T15:49:57Z</time>
      </trkpt>
      <trkpt lat="43.90621" lon="7.2341">
        <ele>747</ele>
        <time>2012-05-15T15:50:08Z</time>
      </trkpt>
      <trkpt lat="43.90618" lon="7.23413">
        <ele>747</ele>
        <time>2012-05-15T15:50:17Z</time>
      </trkpt>
      <trkpt lat="43.90623" lon="7.23432">
        <ele>747</ele>
        <time>2012-05-15T15:50:26Z</time>
      </trkpt>
      <trkpt lat="43.90622" lon="7.23444">
        <ele>749</ele>
        <time>2012-05-15T15:50:35Z</time>
      </trkpt>
      <trkpt lat="43.90609" lon="7.23482">
        <ele>749</ele>
        <time>2012-05-15T15:50:44Z</time>
      </trkpt>
      <trkpt lat="43.90588" lon="7.2353">
        <ele>748</ele>
        <time>2012-05-15T15:50:53Z</time>
      </trkpt>
      <trkpt lat="43.90583" lon="7.23569">
        <ele>747</ele>
        <time>2012-05-15T15:51:02Z</time>
      </trkpt>
      <trkpt lat="43.90563" lon="7.23608">
        <ele>744</ele>
        <time>2012-05-15T15:51:11Z</time>
      </trkpt>
      <trkpt lat="43.90543" lon="7.23633">
        <ele>743</ele>
        <time>2012-05-15T15:51:20Z</time>
      </trkpt>
      <trkpt lat="43.90531" lon="7.23647">
        <ele>744</ele>
        <time>2012-05-15T15:51:29Z</time>
      </trkpt>
      <trkpt lat="43.90526" lon="7.23665">
        <ele>740</ele>
        <time>2012-05-15T15:51:38Z</time>
      </trkpt>
      <trkpt lat="43.90523" lon="7.23698">
        <ele>738</ele>
        <time>2012-05-15T15:51:47Z</time>
      </trkpt>
      <trkpt lat="43.90534" lon="7.23754">
        <ele>735</ele>
        <time>2012-05-15T15:51:56Z</time>
      </trkpt>
      <trkpt lat="43.9052" lon="7.23805">
        <ele>730</ele>
        <time>2012-05-15T15:52:05Z</time>
      </trkpt>
      <trkpt lat="43.90487" lon="7.23845">
        <ele>728</ele>
        <time>2012-05-15T15:52:14Z</time>
      </trkpt>
      <trkpt lat="43.90461" lon="7.23823">
        <ele>723</ele>
        <time>2012-05-15T15:52:23Z</time>
      </trkpt>
      <trkpt lat="43.90445" lon="7.23859">
        <ele>723</ele>
        <time>2012-05-15T15:52:32Z</time>
      </trkpt>
      <trkpt lat="43.90424" lon="7.23913">
        <ele>723</ele>
        <time>2012-05-15T15:52:41Z</time>
      </trkpt>
      <trkpt lat="43.90406" lon="7.23919">
        <ele>727</ele>
        <time>2012-05-15T15:52:50Z</time>
      </trkpt>
      <trkpt lat="43.90406" lon="7.23953">
        <ele>734</ele>
        <time>2012-05-15T15:53:00Z</time>
      </trkpt>
      <trkpt lat="43.90405" lon="7.23962">
        <ele>734</ele>
        <time>2012-05-15T15:53:09Z</time>
      </trkpt>
      <trkpt lat="43.90404" lon="7.23971">
        <ele>734</ele>
        <time>2012-05-15T15:53:18Z</time>
      </trkpt>
      <trkpt lat="43.90398" lon="7.23978">
        <ele>734</ele>
        <time>2012-05-15T15:53:28Z</time>
      </trkpt>
      <trkpt lat="43.90379" lon="7.2397">
        <ele>734</ele>
        <time>2012-05-15T15:53:37Z</time>
      </trkpt>
      <trkpt lat="43.9035" lon="7.23972">
        <ele>730</ele>
        <time>2012-05-15T15:53:46Z</time>
      </trkpt>
      <trkpt lat="43.90309" lon="7.23971">
        <ele>728</ele>
        <time>2012-05-15T15:53:55Z</time>
      </trkpt>
      <trkpt lat="43.90271" lon="7.23955">
        <ele>727</ele>
        <time>2012-05-15T15:54:04Z</time>
      </trkpt>
      <trkpt lat="43.90252" lon="7.23976">
        <ele>726</ele>
        <time>2012-05-15T15:54:13Z</time>
      </trkpt>
      <trkpt lat="43.9027" lon="7.24035">
        <ele>726</ele>
        <time>2012-05-15T15:54:22Z</time>
      </trkpt>
      <trkpt lat="43.90265" lon="7.24111">
        <ele>726</ele>
        <time>2012-05-15T15:54:31Z</time>
      </trkpt>
      <trkpt lat="43.90234" lon="7.24163">
        <ele>725</ele>
        <time>2012-05-15T15:54:40Z</time>
      </trkpt>
      <trkpt lat="43.90223" lon="7.24206">
        <ele>723</ele>
        <time>2012-05-15T15:54:49Z</time>
      </trkpt>
      <trkpt lat="43.90221" lon="7.24236">
        <ele>723</ele>
        <time>2012-05-15T15:54:58Z</time>
      </trkpt>
      <trkpt lat="43.90224" lon="7.2427">
        <ele>725</ele>
        <time>2012-05-15T15:55:07Z</time>
      </trkpt>
      <trkpt lat="43.9022" lon="7.24302">
        <ele>731</ele>
        <time>2012-05-15T15:55:16Z</time>
      </trkpt>
      <trkpt lat="43.9022" lon="7.24349">
        <ele>733</ele>
        <time>2012-05-15T15:55:25Z</time>
      </trkpt>
      <trkpt lat="43.90207" lon="7.24419">
        <ele>733</ele>
        <time>2012-05-15T15:55:34Z</time>
      </trkpt>
      <trkpt lat="43.90179" lon="7.2449">
        <ele>731</ele>
        <time>2012-05-15T15:55:43Z</time>
      </trkpt>
      <trkpt lat="43.90135" lon="7.24532">
        <ele>720</ele>
        <time>2012-05-15T15:55:52Z</time>
      </trkpt>
      <trkpt lat="43.90098" lon="7.24551">
        <ele>710</ele>
        <time>2012-05-15T15:56:01Z</time>
      </trkpt>
      <trkpt lat="43.90065" lon="7.24565">
        <ele>699</ele>
        <time>2012-05-15T15:56:10Z</time>
      </trkpt>
      <trkpt lat="43.90047" lon="7.24558">
        <ele>690</ele>
        <time>2012-05-15T15:56:19Z</time>
      </trkpt>
      <trkpt lat="43.90023" lon="7.24548">
        <ele>681</ele>
        <time>2012-05-15T15:56:28Z</time>
      </trkpt>
      <trkpt lat="43.89999" lon="7.24556">
        <ele>681</ele>
        <time>2012-05-15T15:56:37Z</time>
      </trkpt>
      <trkpt lat="43.89969" lon="7.24581">
        <ele>681</ele>
        <time>2012-05-15T15:56:46Z</time>
      </trkpt>
      <trkpt lat="43.89983" lon="7.24629">
        <ele>674</ele>
        <time>2012-05-15T15:56:55Z</time>
      </trkpt>
      <trkpt lat="43.8997" lon="7.24688">
        <ele>666</ele>
        <time>2012-05-15T15:57:04Z</time>
      </trkpt>
      <trkpt lat="43.89965" lon="7.247">
        <ele>666</ele>
        <time>2012-05-15T15:57:14Z</time>
      </trkpt>
      <trkpt lat="43.89968" lon="7.24701">
        <ele>666</ele>
        <time>2012-05-15T15:57:28Z</time>
      </trkpt>
      <trkpt lat="43.89971" lon="7.24703">
        <ele>666</ele>
        <time>2012-05-15T15:57:37Z</time>
      </trkpt>
      <trkpt lat="43.89972" lon="7.24703">
        <ele>666</ele>
        <time>2012-05-15T15:57:52Z</time>
      </trkpt>
      <trkpt lat="43.8997" lon="7.24703">
        <ele>666</ele>
        <time>2012-05-15T15:58:04Z</time>
      </trkpt>
      <trkpt lat="43.89972" lon="7.24704">
        <ele>666</ele>
        <time>2012-05-15T15:58:15Z</time>
      </trkpt>
      <trkpt lat="43.8997" lon="7.24703">
        <ele>666</ele>
        <time>2012-05-15T15:58:32Z</time>
      </trkpt>
      <trkpt lat="43.8997" lon="7.24697">
        <ele>666</ele>
        <time>2012-05-15T15:58:44Z</time>
      </trkpt>
      <trkpt lat="43.89973" lon="7.24693">
        <ele>666</ele>
        <time>2012-05-15T15:58:53Z</time>
      </trkpt>
      <trkpt lat="43.89981" lon="7.24683">
        <ele>666</ele>
        <time>2012-05-15T15:59:02Z</time>
      </trkpt>
      <trkpt lat="43.89987" lon="7.24679">
        <ele>666</ele>
        <time>2012-05-15T15:59:19Z</time>
      </trkpt>
      <trkpt lat="43.89988" lon="7.2468">
        <ele>668</ele>
        <time>2012-05-15T15:59:28Z</time>
      </trkpt>
      <trkpt lat="43.89988" lon="7.24682">
        <ele>670</ele>
        <time>2012-05-15T15:59:50Z</time>
      </trkpt>
      <trkpt lat="43.89979" lon="7.24691">
        <ele>670</ele>
        <time>2012-05-15T16:00:00Z</time>
      </trkpt>
      <trkpt lat="43.89974" lon="7.24696">
        <ele>670</ele>
        <time>2012-05-15T16:00:09Z</time>
      </trkpt>
      <trkpt lat="43.89967" lon="7.247">
        <ele>670</ele>
        <time>2012-05-15T16:00:18Z</time>
      </trkpt>
      <trkpt lat="43.89968" lon="7.24702">
        <ele>670</ele>
        <time>2012-05-15T16:00:29Z</time>
      </trkpt>
      <trkpt lat="43.89968" lon="7.24704">
        <ele>669</ele>
        <time>2012-05-15T16:00:50Z</time>
      </trkpt>
      <trkpt lat="43.89965" lon="7.24702">
        <ele>668</ele>
        <time>2012-05-15T16:01:09Z</time>
      </trkpt>
      <trkpt lat="43.89956" lon="7.24706">
        <ele>667</ele>
        <time>2012-05-15T16:01:18Z</time>
      </trkpt>
      <trkpt lat="43.89923" lon="7.24706">
        <ele>667</ele>
        <time>2012-05-15T16:01:27Z</time>
      </trkpt>
      <trkpt lat="43.89891" lon="7.24705">
        <ele>667</ele>
        <time>2012-05-15T16:01:36Z</time>
      </trkpt>
      <trkpt lat="43.89856" lon="7.24711">
        <ele>667</ele>
        <time>2012-05-15T16:01:45Z</time>
      </trkpt>
      <trkpt lat="43.89821" lon="7.24726">
        <ele>667</ele>
        <time>2012-05-15T16:01:54Z</time>
      </trkpt>
      <trkpt lat="43.89787" lon="7.2473">
        <ele>666</ele>
        <time>2012-05-15T16:02:03Z</time>
      </trkpt>
      <trkpt lat="43.89746" lon="7.24728">
        <ele>665</ele>
        <time>2012-05-15T16:02:12Z</time>
      </trkpt>
      <trkpt lat="43.89706" lon="7.24728">
        <ele>664</ele>
        <time>2012-05-15T16:02:21Z</time>
      </trkpt>
      <trkpt lat="43.89676" lon="7.24744">
        <ele>661</ele>
        <time>2012-05-15T16:02:30Z</time>
      </trkpt>
      <trkpt lat="43.89664" lon="7.24741">
        <ele>656</ele>
        <time>2012-05-15T16:02:44Z</time>
      </trkpt>
      <trkpt lat="43.89663" lon="7.24743">
        <ele>655</ele>
        <time>2012-05-15T16:02:57Z</time>
      </trkpt>
      <trkpt lat="43.89653" lon="7.24759">
        <ele>653</ele>
        <time>2012-05-15T16:03:06Z</time>
      </trkpt>
      <trkpt lat="43.89656" lon="7.24721">
        <ele>649</ele>
        <time>2012-05-15T16:03:15Z</time>
      </trkpt>
      <trkpt lat="43.89659" lon="7.24687">
        <ele>645</ele>
        <time>2012-05-15T16:03:24Z</time>
      </trkpt>
      <trkpt lat="43.89666" lon="7.24654">
        <ele>641</ele>
        <time>2012-05-15T16:03:33Z</time>
      </trkpt>
      <trkpt lat="43.89672" lon="7.24619">
        <ele>639</ele>
        <time>2012-05-15T16:03:42Z</time>
      </trkpt>
      <trkpt lat="43.89679" lon="7.24577">
        <ele>635</ele>
        <time>2012-05-15T16:03:51Z</time>
      </trkpt>
      <trkpt lat="43.89681" lon="7.24529">
        <ele>630</ele>
        <time>2012-05-15T16:04:00Z</time>
      </trkpt>
      <trkpt lat="43.89671" lon="7.2449">
        <ele>627</ele>
        <time>2012-05-15T16:04:09Z</time>
      </trkpt>
      <trkpt lat="43.8966" lon="7.24469">
        <ele>623</ele>
        <time>2012-05-15T16:04:18Z</time>
      </trkpt>
      <trkpt lat="43.89647" lon="7.24503">
        <ele>622</ele>
        <time>2012-05-15T16:04:27Z</time>
      </trkpt>
      <trkpt lat="43.89614" lon="7.24535">
        <ele>621</ele>
        <time>2012-05-15T16:04:36Z</time>
      </trkpt>
      <trkpt lat="43.89589" lon="7.24567">
        <ele>619</ele>
        <time>2012-05-15T16:04:45Z</time>
      </trkpt>
      <trkpt lat="43.89559" lon="7.24587">
        <ele>618</ele>
        <time>2012-05-15T16:04:54Z</time>
      </trkpt>
      <trkpt lat="43.89534" lon="7.24602">
        <ele>615</ele>
        <time>2012-05-15T16:05:03Z</time>
      </trkpt>
      <trkpt lat="43.89509" lon="7.24621">
        <ele>614</ele>
        <time>2012-05-15T16:05:12Z</time>
      </trkpt>
      <trkpt lat="43.89466" lon="7.24635">
        <ele>613</ele>
        <time>2012-05-15T16:05:21Z</time>
      </trkpt>
      <trkpt lat="43.89437" lon="7.24668">
        <ele>613</ele>
        <time>2012-05-15T16:05:30Z</time>
      </trkpt>
      <trkpt lat="43.89414" lon="7.24694">
        <ele>613</ele>
        <time>2012-05-15T16:05:39Z</time>
      </trkpt>
      <trkpt lat="43.89395" lon="7.24715">
        <ele>615</ele>
        <time>2012-05-15T16:05:48Z</time>
      </trkpt>
      <trkpt lat="43.89377" lon="7.24718">
        <ele>615</ele>
        <time>2012-05-15T16:05:57Z</time>
      </trkpt>
      <trkpt lat="43.89364" lon="7.24745">
        <ele>616</ele>
        <time>2012-05-15T16:06:06Z</time>
      </trkpt>
      <trkpt lat="43.89349" lon="7.24766">
        <ele>619</ele>
        <time>2012-05-15T16:06:16Z</time>
      </trkpt>
      <trkpt lat="43.89341" lon="7.24767">
        <ele>619</ele>
        <time>2012-05-15T16:06:26Z</time>
      </trkpt>
      <trkpt lat="43.89339" lon="7.24765">
        <ele>619</ele>
        <time>2012-05-15T16:06:49Z</time>
      </trkpt>
      <trkpt lat="43.89339" lon="7.24765">
        <ele>619</ele>
        <time>2012-05-15T16:07:10Z</time>
      </trkpt>
      <trkpt lat="43.89334" lon="7.24762">
        <ele>619</ele>
        <time>2012-05-15T16:07:23Z</time>
      </trkpt>
      <trkpt lat="43.89337" lon="7.24761">
        <ele>619</ele>
        <time>2012-05-15T16:07:32Z</time>
      </trkpt>
      <trkpt lat="43.89334" lon="7.24762">
        <ele>619</ele>
        <time>2012-05-15T16:07:44Z</time>
      </trkpt>
      <trkpt lat="43.89314" lon="7.24755">
        <ele>619</ele>
        <time>2012-05-15T16:07:53Z</time>
      </trkpt>
      <trkpt lat="43.89309" lon="7.24759">
        <ele>618</ele>
        <time>2012-05-15T16:08:02Z</time>
      </trkpt>
      <trkpt lat="43.89304" lon="7.24764">
        <ele>615</ele>
        <time>2012-05-15T16:08:11Z</time>
      </trkpt>
      <trkpt lat="43.893" lon="7.24766">
        <ele>612</ele>
        <time>2012-05-15T16:08:20Z</time>
      </trkpt>
      <trkpt lat="43.89309" lon="7.24763">
        <ele>611</ele>
        <time>2012-05-15T16:08:30Z</time>
      </trkpt>
      <trkpt lat="43.89316" lon="7.24761">
        <ele>611</ele>
        <time>2012-05-15T16:09:09Z</time>
      </trkpt>
      <trkpt lat="43.89318" lon="7.24763">
        <ele>611</ele>
        <time>2012-05-15T16:09:44Z</time>
      </trkpt>
      <trkpt lat="43.89318" lon="7.24765">
        <ele>611</ele>
        <time>2012-05-15T16:10:21Z</time>
      </trkpt>
      <trkpt lat="43.89316" lon="7.24765">
        <ele>611</ele>
        <time>2012-05-15T16:11:09Z</time>
      </trkpt>
      <trkpt lat="43.89305" lon="7.24767">
        <ele>611</ele>
        <time>2012-05-15T16:11:18Z</time>
      </trkpt>
      <trkpt lat="43.89295" lon="7.24771">
        <ele>611</ele>
        <time>2012-05-15T16:11:27Z</time>
      </trkpt>
      <trkpt lat="43.89286" lon="7.24773">
        <ele>611</ele>
        <time>2012-05-15T16:11:36Z</time>
      </trkpt>
      <trkpt lat="43.89269" lon="7.24755">
        <ele>608</ele>
        <time>2012-05-15T16:11:45Z</time>
      </trkpt>
      <trkpt lat="43.89261" lon="7.24722">
        <ele>601</ele>
        <time>2012-05-15T16:11:54Z</time>
      </trkpt>
      <trkpt lat="43.89236" lon="7.24709">
        <ele>597</ele>
        <time>2012-05-15T16:12:03Z</time>
      </trkpt>
      <trkpt lat="43.89219" lon="7.24701">
        <ele>596</ele>
        <time>2012-05-15T16:12:13Z</time>
      </trkpt>
      <trkpt lat="43.8921" lon="7.24692">
        <ele>596</ele>
        <time>2012-05-15T16:12:22Z</time>
      </trkpt>
      <trkpt lat="43.89203" lon="7.24677">
        <ele>596</ele>
        <time>2012-05-15T16:12:32Z</time>
      </trkpt>
      <trkpt lat="43.89188" lon="7.24657">
        <ele>596</ele>
        <time>2012-05-15T16:12:41Z</time>
      </trkpt>
      <trkpt lat="43.89183" lon="7.24627">
        <ele>595</ele>
        <time>2012-05-15T16:12:50Z</time>
      </trkpt>
      <trkpt lat="43.89169" lon="7.24587">
        <ele>594</ele>
        <time>2012-05-15T16:12:59Z</time>
      </trkpt>
      <trkpt lat="43.89138" lon="7.24581">
        <ele>594</ele>
        <time>2012-05-15T16:13:08Z</time>
      </trkpt>
      <trkpt lat="43.89108" lon="7.24587">
        <ele>594</ele>
        <time>2012-05-15T16:13:17Z</time>
      </trkpt>
      <trkpt lat="43.89088" lon="7.24559">
        <ele>594</ele>
        <time>2012-05-15T16:13:26Z</time>
      </trkpt>
      <trkpt lat="43.89086" lon="7.24523">
        <ele>594</ele>
        <time>2012-05-15T16:13:35Z</time>
      </trkpt>
      <trkpt lat="43.89086" lon="7.24505">
        <ele>592</ele>
        <time>2012-05-15T16:13:45Z</time>
      </trkpt>
      <trkpt lat="43.89083" lon="7.24494">
        <ele>592</ele>
        <time>2012-05-15T16:13:54Z</time>
      </trkpt>
      <trkpt lat="43.89072" lon="7.24481">
        <ele>592</ele>
        <time>2012-05-15T16:14:03Z</time>
      </trkpt>
      <trkpt lat="43.89046" lon="7.24474">
        <ele>592</ele>
        <time>2012-05-15T16:14:12Z</time>
      </trkpt>
      <trkpt lat="43.89031" lon="7.24446">
        <ele>593</ele>
        <time>2012-05-15T16:14:21Z</time>
      </trkpt>
      <trkpt lat="43.8902" lon="7.24405">
        <ele>593</ele>
        <time>2012-05-15T16:14:30Z</time>
      </trkpt>
      <trkpt lat="43.8902" lon="7.24357">
        <ele>593</ele>
        <time>2012-05-15T16:14:39Z</time>
      </trkpt>
      <trkpt lat="43.89018" lon="7.24337">
        <ele>594</ele>
        <time>2012-05-15T16:14:48Z</time>
      </trkpt>
      <trkpt lat="43.89015" lon="7.24332">
        <ele>595</ele>
        <time>2012-05-15T16:14:58Z</time>
      </trkpt>
      <trkpt lat="43.88994" lon="7.24305">
        <ele>595</ele>
        <time>2012-05-15T16:15:07Z</time>
      </trkpt>
      <trkpt lat="43.88982" lon="7.2428">
        <ele>595</ele>
        <time>2012-05-15T16:15:16Z</time>
      </trkpt>
      <trkpt lat="43.89" lon="7.24244">
        <ele>595</ele>
        <time>2012-05-15T16:15:25Z</time>
      </trkpt>
      <trkpt lat="43.89" lon="7.24206">
        <ele>595</ele>
        <time>2012-05-15T16:15:35Z</time>
      </trkpt>
      <trkpt lat="43.88966" lon="7.24206">
        <ele>598</ele>
        <time>2012-05-15T16:15:44Z</time>
      </trkpt>
      <trkpt lat="43.8894" lon="7.24191">
        <ele>599</ele>
        <time>2012-05-15T16:15:53Z</time>
      </trkpt>
      <trkpt lat="43.8894" lon="7.24152">
        <ele>599</ele>
        <time>2012-05-15T16:16:02Z</time>
      </trkpt>
      <trkpt lat="43.88909" lon="7.24152">
        <ele>599</ele>
        <time>2012-05-15T16:16:11Z</time>
      </trkpt>
      <trkpt lat="43.88902" lon="7.2415">
        <ele>599</ele>
        <time>2012-05-15T16:16:20Z</time>
      </trkpt>
      <trkpt lat="43.88892" lon="7.24157">
        <ele>599</ele>
        <time>2012-05-15T16:16:30Z</time>
      </trkpt>
      <trkpt lat="43.88883" lon="7.24162">
        <ele>599</ele>
        <time>2012-05-15T16:16:39Z</time>
      </trkpt>
      <trkpt lat="43.88872" lon="7.24166">
        <ele>599</ele>
        <time>2012-05-15T16:16:49Z</time>
      </trkpt>
      <trkpt lat="43.88867" lon="7.24179">
        <ele>599</ele>
        <time>2012-05-15T16:16:58Z</time>
      </trkpt>
      <trkpt lat="43.88858" lon="7.2419">
        <ele>596</ele>
        <time>2012-05-15T16:17:07Z</time>
      </trkpt>
      <trkpt lat="43.88864" lon="7.24194">
        <ele>592</ele>
        <time>2012-05-15T16:17:16Z</time>
      </trkpt>
      <trkpt lat="43.88867" lon="7.24198">
        <ele>588</ele>
        <time>2012-05-15T16:17:25Z</time>
      </trkpt>
      <trkpt lat="43.88857" lon="7.24216">
        <ele>581</ele>
        <time>2012-05-15T16:17:34Z</time>
      </trkpt>
      <trkpt lat="43.88856" lon="7.24239">
        <ele>579</ele>
        <time>2012-05-15T16:17:43Z</time>
      </trkpt>
      <trkpt lat="43.88841" lon="7.24235">
        <ele>574</ele>
        <time>2012-05-15T16:17:52Z</time>
      </trkpt>
      <trkpt lat="43.88826" lon="7.24244">
        <ele>569</ele>
        <time>2012-05-15T16:18:01Z</time>
      </trkpt>
      <trkpt lat="43.88801" lon="7.24262">
        <ele>564</ele>
        <time>2012-05-15T16:18:10Z</time>
      </trkpt>
      <trkpt lat="43.88777" lon="7.24275">
        <ele>557</ele>
        <time>2012-05-15T16:18:19Z</time>
      </trkpt>
      <trkpt lat="43.88765" lon="7.24271">
        <ele>554</ele>
        <time>2012-05-15T16:18:28Z</time>
      </trkpt>
      <trkpt lat="43.8876" lon="7.24239">
        <ele>548</ele>
        <time>2012-05-15T16:18:37Z</time>
      </trkpt>
      <trkpt lat="43.88757" lon="7.24225">
        <ele>545</ele>
        <time>2012-05-15T16:18:47Z</time>
      </trkpt>
      <trkpt lat="43.88753" lon="7.24253">
        <ele>543</ele>
        <time>2012-05-15T16:18:56Z</time>
      </trkpt>
      <trkpt lat="43.88749" lon="7.24273">
        <ele>540</ele>
        <time>2012-05-15T16:19:05Z</time>
      </trkpt>
      <trkpt lat="43.8874" lon="7.243">
        <ele>537</ele>
        <time>2012-05-15T16:19:14Z</time>
      </trkpt>
      <trkpt lat="43.88733" lon="7.24314">
        <ele>534</ele>
        <time>2012-05-15T16:19:26Z</time>
      </trkpt>
      <trkpt lat="43.88732" lon="7.24297">
        <ele>532</ele>
        <time>2012-05-15T16:19:35Z</time>
      </trkpt>
      <trkpt lat="43.88728" lon="7.24266">
        <ele>526</ele>
        <time>2012-05-15T16:19:44Z</time>
      </trkpt>
      <trkpt lat="43.88722" lon="7.24255">
        <ele>521</ele>
        <time>2012-05-15T16:19:53Z</time>
      </trkpt>
      <trkpt lat="43.88717" lon="7.24248">
        <ele>517</ele>
        <time>2012-05-15T16:20:02Z</time>
      </trkpt>
      <trkpt lat="43.88711" lon="7.24248">
        <ele>512</ele>
        <time>2012-05-15T16:20:11Z</time>
      </trkpt>
      <trkpt lat="43.88707" lon="7.24236">
        <ele>508</ele>
        <time>2012-05-15T16:20:20Z</time>
      </trkpt>
      <trkpt lat="43.88701" lon="7.24213">
        <ele>504</ele>
        <time>2012-05-15T16:20:29Z</time>
      </trkpt>
      <trkpt lat="43.88691" lon="7.24228">
        <ele>501</ele>
        <time>2012-05-15T16:20:38Z</time>
      </trkpt>
      <trkpt lat="43.88689" lon="7.24214">
        <ele>496</ele>
        <time>2012-05-15T16:20:47Z</time>
      </trkpt>
      <trkpt lat="43.88688" lon="7.24203">
        <ele>491</ele>
        <time>2012-05-15T16:20:57Z</time>
      </trkpt>
      <trkpt lat="43.88681" lon="7.24198">
        <ele>488</ele>
        <time>2012-05-15T16:21:06Z</time>
      </trkpt>
      <trkpt lat="43.88676" lon="7.24174">
        <ele>482</ele>
        <time>2012-05-15T16:21:15Z</time>
      </trkpt>
      <trkpt lat="43.88679" lon="7.24145">
        <ele>477</ele>
        <time>2012-05-15T16:21:24Z</time>
      </trkpt>
      <trkpt lat="43.88679" lon="7.24122">
        <ele>472</ele>
        <time>2012-05-15T16:21:33Z</time>
      </trkpt>
      <trkpt lat="43.88662" lon="7.24145">
        <ele>468</ele>
        <time>2012-05-15T16:21:42Z</time>
      </trkpt>
      <trkpt lat="43.88648" lon="7.24154">
        <ele>464</ele>
        <time>2012-05-15T16:21:51Z</time>
      </trkpt>
      <trkpt lat="43.88649" lon="7.24135">
        <ele>464</ele>
        <time>2012-05-15T16:22:01Z</time>
      </trkpt>
      <trkpt lat="43.88632" lon="7.2415">
        <ele>463</ele>
        <time>2012-05-15T16:22:10Z</time>
      </trkpt>
      <trkpt lat="43.88625" lon="7.24177">
        <ele>458</ele>
        <time>2012-05-15T16:22:19Z</time>
      </trkpt>
      <trkpt lat="43.88617" lon="7.24217">
        <ele>453</ele>
        <time>2012-05-15T16:22:28Z</time>
      </trkpt>
      <trkpt lat="43.88612" lon="7.24248">
        <ele>448</ele>
        <time>2012-05-15T16:22:37Z</time>
      </trkpt>
      <trkpt lat="43.88606" lon="7.24269">
        <ele>443</ele>
        <time>2012-05-15T16:22:46Z</time>
      </trkpt>
      <trkpt lat="43.88602" lon="7.24244">
        <ele>438</ele>
        <time>2012-05-15T16:22:55Z</time>
      </trkpt>
      <trkpt lat="43.88598" lon="7.24214">
        <ele>434</ele>
        <time>2012-05-15T16:23:04Z</time>
      </trkpt>
      <trkpt lat="43.88591" lon="7.24188">
        <ele>430</ele>
        <time>2012-05-15T16:23:13Z</time>
      </trkpt>
      <trkpt lat="43.88588" lon="7.24162">
        <ele>426</ele>
        <time>2012-05-15T16:23:22Z</time>
      </trkpt>
      <trkpt lat="43.88583" lon="7.24134">
        <ele>420</ele>
        <time>2012-05-15T16:23:31Z</time>
      </trkpt>
      <trkpt lat="43.88566" lon="7.24108">
        <ele>416</ele>
        <time>2012-05-15T16:23:40Z</time>
      </trkpt>
      <trkpt lat="43.88557" lon="7.24093">
        <ele>415</ele>
        <time>2012-05-15T16:23:50Z</time>
      </trkpt>
      <trkpt lat="43.88548" lon="7.24089">
        <ele>414</ele>
        <time>2012-05-15T16:23:59Z</time>
      </trkpt>
      <trkpt lat="43.88541" lon="7.24086">
        <ele>411</ele>
        <time>2012-05-15T16:24:09Z</time>
      </trkpt>
      <trkpt lat="43.88538" lon="7.24084">
        <ele>411</ele>
        <time>2012-05-15T16:24:19Z</time>
      </trkpt>
      <trkpt lat="43.88537" lon="7.24085">
        <ele>411</ele>
        <time>2012-05-15T16:24:34Z</time>
      </trkpt>
      <trkpt lat="43.88535" lon="7.24082">
        <ele>411</ele>
        <time>2012-05-15T16:24:44Z</time>
      </trkpt>
      <trkpt lat="43.88536" lon="7.24081">
        <ele>411</ele>
        <time>2012-05-15T16:24:54Z</time>
      </trkpt>
      <trkpt lat="43.88539" lon="7.24083">
        <ele>411</ele>
        <time>2012-05-15T16:25:12Z</time>
      </trkpt>
      <trkpt lat="43.8854" lon="7.24084">
        <ele>411</ele>
        <time>2012-05-15T16:26:15Z</time>
      </trkpt>
      <trkpt lat="43.88541" lon="7.24087">
        <ele>411</ele>
        <time>2012-05-15T16:26:26Z</time>
      </trkpt>
      <trkpt lat="43.88541" lon="7.24085">
        <ele>411</ele>
        <time>2012-05-15T16:26:40Z</time>
      </trkpt>
      <trkpt lat="43.8854" lon="7.24082">
        <ele>411</ele>
        <time>2012-05-15T16:26:53Z</time>
      </trkpt>
      <trkpt lat="43.88538" lon="7.24081">
        <ele>411</ele>
        <time>2012-05-15T16:27:07Z</time>
      </trkpt>
      <trkpt lat="43.8854" lon="7.24082">
        <ele>411</ele>
        <time>2012-05-15T16:27:38Z</time>
      </trkpt>
      <trkpt lat="43.88539" lon="7.2408">
        <ele>411</ele>
        <time>2012-05-15T16:28:02Z</time>
      </trkpt>
      <trkpt lat="43.88541" lon="7.24081">
        <ele>411</ele>
        <time>2012-05-15T16:28:11Z</time>
      </trkpt>
      <trkpt lat="43.8854" lon="7.24084">
        <ele>411</ele>
        <time>2012-05-15T16:28:21Z</time>
      </trkpt>
      <trkpt lat="43.88538" lon="7.24081">
        <ele>411</ele>
        <time>2012-05-15T16:28:32Z</time>
      </trkpt>
      <trkpt lat="43.88538" lon="7.24081">
        <ele>411</ele>
        <time>2012-05-15T16:28:48Z</time>
      </trkpt>
      <trkpt lat="43.88537" lon="7.24082">
        <ele>411</ele>
        <time>2012-05-15T16:29:02Z</time>
      </trkpt>
      <trkpt lat="43.88536" lon="7.24082">
        <ele>412</ele>
        <time>2012-05-15T16:29:38Z</time>
      </trkpt>
      <trkpt lat="43.88538" lon="7.24084">
        <ele>412</ele>
        <time>2012-05-15T16:29:48Z</time>
      </trkpt>
      <trkpt lat="43.8854" lon="7.24085">
        <ele>412</ele>
        <time>2012-05-15T16:30:00Z</time>
      </trkpt>
      <trkpt lat="43.88539" lon="7.24086">
        <ele>412</ele>
        <time>2012-05-15T16:30:21Z</time>
      </trkpt>
      <trkpt lat="43.88541" lon="7.24086">
        <ele>412</ele>
        <time>2012-05-15T16:30:50Z</time>
      </trkpt>
      <trkpt lat="43.88538" lon="7.24084">
        <ele>412</ele>
        <time>2012-05-15T16:31:08Z</time>
      </trkpt>
      <trkpt lat="43.88523" lon="7.24074">
        <ele>412</ele>
        <time>2012-05-15T16:31:17Z</time>
      </trkpt>
      <trkpt lat="43.88497" lon="7.24072">
        <ele>409</ele>
        <time>2012-05-15T16:31:26Z</time>
      </trkpt>
      <trkpt lat="43.88477" lon="7.24067">
        <ele>403</ele>
        <time>2012-05-15T16:31:36Z</time>
      </trkpt>
      <trkpt lat="43.88466" lon="7.24049">
        <ele>394</ele>
        <time>2012-05-15T16:31:46Z</time>
      </trkpt>
      <trkpt lat="43.88457" lon="7.24028">
        <ele>388</ele>
        <time>2012-05-15T16:31:56Z</time>
      </trkpt>
      <trkpt lat="43.88447" lon="7.23994">
        <ele>382</ele>
        <time>2012-05-15T16:32:06Z</time>
      </trkpt>
      <trkpt lat="43.8843" lon="7.23963">
        <ele>379</ele>
        <time>2012-05-15T16:32:16Z</time>
      </trkpt>
      <trkpt lat="43.88412" lon="7.23925">
        <ele>375</ele>
        <time>2012-05-15T16:32:26Z</time>
      </trkpt>
      <trkpt lat="43.88407" lon="7.23895">
        <ele>370</ele>
        <time>2012-05-15T16:32:35Z</time>
      </trkpt>
      <trkpt lat="43.88403" lon="7.23885">
        <ele>365</ele>
        <time>2012-05-15T16:32:44Z</time>
      </trkpt>
      <trkpt lat="43.88396" lon="7.23896">
        <ele>365</ele>
        <time>2012-05-15T16:32:53Z</time>
      </trkpt>
      <trkpt lat="43.88393" lon="7.23906">
        <ele>365</ele>
        <time>2012-05-15T16:33:02Z</time>
      </trkpt>
      <trkpt lat="43.88393" lon="7.23885">
        <ele>362</ele>
        <time>2012-05-15T16:33:11Z</time>
      </trkpt>
      <trkpt lat="43.88389" lon="7.23859">
        <ele>356</ele>
        <time>2012-05-15T16:33:21Z</time>
      </trkpt>
      <trkpt lat="43.88374" lon="7.23827">
        <ele>350</ele>
        <time>2012-05-15T16:33:31Z</time>
      </trkpt>
      <trkpt lat="43.88353" lon="7.23766">
        <ele>344</ele>
        <time>2012-05-15T16:33:41Z</time>
      </trkpt>
      <trkpt lat="43.88353" lon="7.23768">
        <ele>343</ele>
        <time>2012-05-15T16:33:51Z</time>
      </trkpt>
      <trkpt lat="43.88358" lon="7.23781">
        <ele>343</ele>
        <time>2012-05-15T16:34:00Z</time>
      </trkpt>
      <trkpt lat="43.8836" lon="7.23781">
        <ele>345</ele>
        <time>2012-05-15T16:34:47Z</time>
      </trkpt>
      <trkpt lat="43.88361" lon="7.23782">
        <ele>345</ele>
        <time>2012-05-15T16:34:57Z</time>
      </trkpt>
      <trkpt lat="43.88363" lon="7.23782">
        <ele>345</ele>
        <time>2012-05-15T16:35:06Z</time>
      </trkpt>
      <trkpt lat="43.88361" lon="7.23782">
        <ele>345</ele>
        <time>2012-05-15T16:35:30Z</time>
      </trkpt>
      <trkpt lat="43.8836" lon="7.23782">
        <ele>345</ele>
        <time>2012-05-15T16:35:43Z</time>
      </trkpt>
      <trkpt lat="43.88356" lon="7.23782">
        <ele>349</ele>
        <time>2012-05-15T16:36:07Z</time>
      </trkpt>
      <trkpt lat="43.88359" lon="7.23783">
        <ele>350</ele>
        <time>2012-05-15T16:36:16Z</time>
      </trkpt>
      <trkpt lat="43.88359" lon="7.23782">
        <ele>350</ele>
        <time>2012-05-15T16:36:25Z</time>
      </trkpt>
      <trkpt lat="43.88353" lon="7.23769">
        <ele>350</ele>
        <time>2012-05-15T16:36:35Z</time>
      </trkpt>
      <trkpt lat="43.8835" lon="7.2376">
        <ele>350</ele>
        <time>2012-05-15T16:36:45Z</time>
      </trkpt>
      <trkpt lat="43.88346" lon="7.23752">
        <ele>350</ele>
        <time>2012-05-15T16:36:56Z</time>
      </trkpt>
      <trkpt lat="43.88331" lon="7.23714">
        <ele>349</ele>
        <time>2012-05-15T16:37:06Z</time>
      </trkpt>
      <trkpt lat="43.88319" lon="7.23678">
        <ele>349</ele>
        <time>2012-05-15T16:37:16Z</time>
      </trkpt>
      <trkpt lat="43.88301" lon="7.23638">
        <ele>348</ele>
        <time>2012-05-15T16:37:25Z</time>
      </trkpt>
      <trkpt lat="43.88306" lon="7.23614">
        <ele>348</ele>
        <time>2012-05-15T16:37:34Z</time>
      </trkpt>
      <trkpt lat="43.88304" lon="7.23606">
        <ele>348</ele>
        <time>2012-05-15T16:37:44Z</time>
      </trkpt>
      <trkpt lat="43.88295" lon="7.2354">
        <ele>348</ele>
        <time>2012-05-15T16:37:54Z</time>
      </trkpt>
      <trkpt lat="43.88328" lon="7.23491">
        <ele>347</ele>
        <time>2012-05-15T16:38:03Z</time>
      </trkpt>
      <trkpt lat="43.88379" lon="7.23458">
        <ele>342</ele>
        <time>2012-05-15T16:38:13Z</time>
      </trkpt>
      <trkpt lat="43.88326" lon="7.23474">
        <ele>337</ele>
        <time>2012-05-15T16:38:22Z</time>
      </trkpt>
      <trkpt lat="43.88246" lon="7.23511">
        <ele>333</ele>
        <time>2012-05-15T16:38:32Z</time>
      </trkpt>
      <trkpt lat="43.88239" lon="7.23502">
        <ele>330</ele>
        <time>2012-05-15T16:38:42Z</time>
      </trkpt>
      <trkpt lat="43.88296" lon="7.23449">
        <ele>321</ele>
        <time>2012-05-15T16:38:51Z</time>
      </trkpt>
      <trkpt lat="43.88369" lon="7.23382">
        <ele>312</ele>
        <time>2012-05-15T16:39:00Z</time>
      </trkpt>
      <trkpt lat="43.88343" lon="7.23389">
        <ele>304</ele>
        <time>2012-05-15T16:39:09Z</time>
      </trkpt>
      <trkpt lat="43.88274" lon="7.23421">
        <ele>304</ele>
        <time>2012-05-15T16:39:18Z</time>
      </trkpt>
      <trkpt lat="43.88206" lon="7.23444">
        <ele>304</ele>
        <time>2012-05-15T16:39:27Z</time>
      </trkpt>
      <trkpt lat="43.88146" lon="7.23498">
        <ele>301</ele>
        <time>2012-05-15T16:39:37Z</time>
      </trkpt>
      <trkpt lat="43.88122" lon="7.23583">
        <ele>297</ele>
        <time>2012-05-15T16:39:47Z</time>
      </trkpt>
      <trkpt lat="43.88108" lon="7.23511">
        <ele>292</ele>
        <time>2012-05-15T16:39:56Z</time>
      </trkpt>
      <trkpt lat="43.88107" lon="7.23413">
        <ele>284</ele>
        <time>2012-05-15T16:40:05Z</time>
      </trkpt>
      <trkpt lat="43.88184" lon="7.23373">
        <ele>275</ele>
        <time>2012-05-15T16:40:15Z</time>
      </trkpt>
      <trkpt lat="43.88189" lon="7.23362">
        <ele>269</ele>
        <time>2012-05-15T16:40:25Z</time>
      </trkpt>
      <trkpt lat="43.88116" lon="7.23379">
        <ele>268</ele>
        <time>2012-05-15T16:40:35Z</time>
      </trkpt>
      <trkpt lat="43.88092" lon="7.23359">
        <ele>265</ele>
        <time>2012-05-15T16:40:45Z</time>
      </trkpt>
      <trkpt lat="43.88151" lon="7.23359">
        <ele>264</ele>
        <time>2012-05-15T16:40:54Z</time>
      </trkpt>
      <trkpt lat="43.88166" lon="7.23299">
        <ele>262</ele>
        <time>2012-05-15T16:41:03Z</time>
      </trkpt>
      <trkpt lat="43.88111" lon="7.2328">
        <ele>257</ele>
        <time>2012-05-15T16:41:12Z</time>
      </trkpt>
      <trkpt lat="43.88074" lon="7.23215">
        <ele>256</ele>
        <time>2012-05-15T16:41:21Z</time>
      </trkpt>
      <trkpt lat="43.88072" lon="7.23112">
        <ele>252</ele>
        <time>2012-05-15T16:41:31Z</time>
      </trkpt>
      <trkpt lat="43.88102" lon="7.23034">
        <ele>246</ele>
        <time>2012-05-15T16:41:40Z</time>
      </trkpt>
      <trkpt lat="43.88048" lon="7.23026">
        <ele>242</ele>
        <time>2012-05-15T16:41:49Z</time>
      </trkpt>
      <trkpt lat="43.88043" lon="7.23042">
        <ele>237</ele>
        <time>2012-05-15T16:41:59Z</time>
      </trkpt>
      <trkpt lat="43.88064" lon="7.23091">
        <ele>234</ele>
        <time>2012-05-15T16:42:08Z</time>
      </trkpt>
      <trkpt lat="43.88009" lon="7.23127">
        <ele>232</ele>
        <time>2012-05-15T16:42:17Z</time>
      </trkpt>
      <trkpt lat="43.87987" lon="7.23209">
        <ele>230</ele>
        <time>2012-05-15T16:42:26Z</time>
      </trkpt>
      <trkpt lat="43.87968" lon="7.23173">
        <ele>224</ele>
        <time>2012-05-15T16:42:36Z</time>
      </trkpt>
      <trkpt lat="43.87988" lon="7.23101">
        <ele>215</ele>
        <time>2012-05-15T16:42:45Z</time>
      </trkpt>
      <trkpt lat="43.88002" lon="7.23087">
        <ele>206</ele>
        <time>2012-05-15T16:42:54Z</time>
      </trkpt>
      <trkpt lat="43.87947" lon="7.23113">
        <ele>201</ele>
        <time>2012-05-15T16:43:03Z</time>
      </trkpt>
      <trkpt lat="43.87949" lon="7.23213">
        <ele>198</ele>
        <time>2012-05-15T16:43:12Z</time>
      </trkpt>
      <trkpt lat="43.87951" lon="7.23266">
        <ele>197</ele>
        <time>2012-05-15T16:43:21Z</time>
      </trkpt>
      <trkpt lat="43.87957" lon="7.23299">
        <ele>197</ele>
        <time>2012-05-15T16:43:31Z</time>
      </trkpt>
      <trkpt lat="43.87968" lon="7.23325">
        <ele>198</ele>
        <time>2012-05-15T16:43:40Z</time>
      </trkpt>
      <trkpt lat="43.87981" lon="7.2335">
        <ele>200</ele>
        <time>2012-05-15T16:43:49Z</time>
      </trkpt>
      <trkpt lat="43.87985" lon="7.23355">
        <ele>201</ele>
        <time>2012-05-15T16:44:01Z</time>
      </trkpt>
      <trkpt lat="43.87985" lon="7.23353">
        <ele>201</ele>
        <time>2012-05-15T16:44:38Z</time>
      </trkpt>
      <trkpt lat="43.87985" lon="7.2335">
        <ele>204</ele>
        <time>2012-05-15T16:44:48Z</time>
      </trkpt>
      <trkpt lat="43.87981" lon="7.23349">
        <ele>212</ele>
        <time>2012-05-15T16:44:57Z</time>
      </trkpt>
      <trkpt lat="43.87978" lon="7.23349">
        <ele>225</ele>
        <time>2012-05-15T16:45:10Z</time>
      </trkpt>
      <trkpt lat="43.87976" lon="7.23349">
        <ele>237</ele>
        <time>2012-05-15T16:45:32Z</time>
      </trkpt>
      <trkpt lat="43.87976" lon="7.23351">
        <ele>230</ele>
        <time>2012-05-15T16:45:41Z</time>
      </trkpt>
      <trkpt lat="43.87977" lon="7.23352">
        <ele>222</ele>
        <time>2012-05-15T16:45:49Z</time>
      </trkpt>
    </trkseg>
  </trk>
</gpx>